     2              OBSERVATION DATA    GPS                 RINEX VERSION / TYPE
TRRINEXO V2.8.4 LH                                          PGM / RUN BY / DATE
                                                            COMMENT
BIT 2 OF LLI (+4) FLAGS DATA COLLECTED UNDER "AS" CONDITION COMMENT
Original Marker Name: 0185                                  COMMENT
Campaign Name: coachelle valley 1990                        COMMENT
4-Character Station Name: 0185                              COMMENT
6-Character Antenna Code: TRMSST                            COMMENT
Vertical Measurement Point: TGP                             COMMENT
Vertical Offset to Rinex Ref. Point: 0.0629                 COMMENT
Radial Measurement Point: NGP                               COMMENT
Radial Offset to Rinex Ref. Point: 0.2334                   COMMENT
Antenna Height from Field Measurement: 1.2550 m             COMMENT
Original XYZ: -2352477.2929 -4754295.4229 3529874.7861      COMMENT
New XYZ position is based on association with SCEC monument COMMENT
E1D0T8R5+0011. Position of that monument is believed to be  COMMENT
valid to within 1 m horizontally; vertical accuracy         COMMENT
should be no worse than 3-times this value.                 COMMENT
                                                            COMMENT
Revised Rinex header created by UCSD GPS archive for        COMMENT
GSAC on 19-Apr-1999 (1999:109) 07:46:37 GMT                 COMMENT
For assistance contact dagnew@ucsd.edu or hjohnson@ucsd.edu COMMENT
                                                            COMMENT
PALM 03 1990                                                MARKER NAME
UNKNOWN OBSERVER RIVERSIDE COUNTY FCWCD                     OBSERVER / AGENCY
432 TRIMBLE 4000 SST 4.11 / 4.10                            REC # / TYPE / VERS
97 TR 4000SST L1/L2 GEO                                     ANT # / TYPE
 -2352479.0000 -4754296.0000  3529877.0000                  APPROX POSITION XYZ
        1.1702        0.0000        0.0000                  ANTENNA: DELTA H/E/N
     1     2     0                                          WAVELENGTH FACT L1/2
     3    C1    L1    L2                                    # / TYPES OF OBSERV
     0                                                      INTERVAL
  1990    10    24    10    34   45.000000                  TIME OF FIRST OBS
  1990    10    24    17    34    0.000000                  TIME OF LAST OBS
     0                                                      # OF SATELLITES
                                                            END OF HEADER
 90 10 24 10 34 45.0000000  0  5 02 11 06 18 15
  20845517.211          -0.25417
  24105175.117          -0.66315
  22194043.391          -0.76516
  22414190.805          -0.48616
  24674155.617          -0.30515
 90 10 24 10 35  0.0000000  0  5 02 11 06 18 15
  20844977.891       -2841.379 7        -0.13813
  24113180.094       42060.554 6
  22188217.617      -30616.857 6
  22423355.672       48167.859 6
  24668168.156      -31471.137 5
 90 10 24 10 35 15.0000000  0  5 02 11 06 18 15
  20844449.102       -5613.789 7     -2160.454 3
  24121200.953       84218.828 5        -0.08911
  22182400.094      -61212.648 6        -0.13311
  22432535.781       96408.684 6        -0.07511
  24662190.023      -62884.843 5        -0.29511
 90 10 24 10 35 30.0000000  0  5 02 11 06 18 15
  20843931.812       -8329.315 7     -4276.445 3
  24129239.023      126462.106 5     32916.731 1
  22176575.773      -91799.530 6    -23834.057 1
  22441728.406      144710.214 6     37637.470 1
  24656219.703      -94252.411 5    -24442.546 1
 90 10 24 10 35 45.0000000  0  5 02 11 06 18 15
  20843426.094      -10989.019 7     -6348.941 3
  24137293.977      168788.931 5     65898.642 1
  22170758.945     -122378.430 6    -47661.766 1
  22450930.367      193070.614 6     75320.890 1
  24650259.391     -125574.692 5    -48849.492 1
 90 10 24 10 36  0.0000000  0  5 02 11 06 18 15
  20842930.703      -13593.173 7     -8378.149 3
  24145361.602      211198.673 5     98945.180 1
  22164941.609     -152949.506 6    -71483.372 1
  22460144.383      241489.629 6    113049.982 1
  24644308.742     -156851.762 5    -73221.198 1
 90 10 24 10 36 15.0000000  0  5 02 11 06 18 15
  20842447.219      -16136.425 7    -10359.900 3
  24153450.859      253696.646 5    132060.435 1
  22159124.969     -183507.004 6    -95294.399 1
  22469370.953      289972.393 6    150828.748 1
  24638365.273     -188077.395 5    -97552.844 1
 90 10 24 10 36 30.0000000  0  5 02 11 06 18 15
  20841973.320      -18624.269 7    -12298.478 3
  24161554.703      296276.938 5    165239.848 1
  22153309.961     -214056.319 6   -119099.050 1
  22478607.602      338513.165 6    188652.726 1
  24632434.055     -219256.855 5   -121848.490 1
 90 10 24 10 36 45.0000000  0  5 02 11 06 18 15
  20841510.336      -21056.275 7    -14193.545 3
  24169669.758      338939.658 5    198483.519 1
  22147501.367     -244596.861 6   -142896.874 1
  22487857.109      387111.914 6    226521.869 1
  24626513.461     -250389.315 5   -146107.523 1
 90 10 24 10 37  0.0000000  0  5 02 11 06 18 15
  20841058.172      -23433.284 7    -16045.760 3
  24177807.555      381683.804 5    231790.614 1
  22141692.383     -275129.119 6   -166688.237 1
  22497115.961      435767.849 6    264435.574 1
  24620592.305     -281475.062 5   -170330.159 1
 90 10 24 10 37 15.0000000  0  5 02 11 06 18 15
  20840619.242      -25740.069 7    -17843.252 3
  24185959.414      424524.350 5    265172.830 1
  22135885.766     -305637.587 6   -190461.056 1
  22506388.047      484495.896 6    302405.475 1
  24614690.023     -312498.169 5   -194503.992 1
 90 10 24 10 37 30.0000000  0  5 02 11 06 18 15
  20840192.078      -27983.044 7    -19591.021 3
  24194127.828      467454.751 5    298625.078 1
  22130080.141     -336128.283 6   -214220.032 1
  22515672.031      533289.287 6    340426.292 1
  24608798.703     -343464.461 5   -218633.543 1
 90 10 24 10 37 45.0000000  0  5 02 11 06 18 15
  20839777.688      -30160.299 7    -21287.581 3
  24202315.734      510476.618 5    332148.589 1
  22124284.234     -366599.152 6   -237963.566 1
  22524971.453      582149.632 6    378499.280 1
  24602917.086     -374371.669 5   -242717.059 1
 90 10 24 10 38  0.0000000  0  5 02 11 06 18 15
  20839373.500      -32284.267 7    -22942.619 3
  24210514.992      553577.090 5    365733.339 1
  22118487.977     -397062.469 6   -261701.202 1
  22534277.953      631064.398 6    416614.673 1
  24597041.672     -405232.128 5   -266764.136 1
 90 10 24 10 38 15.0000000  0  5 02 11 06 18 15
  20838980.891      -34350.131 7    -24552.381 3
  24218733.313      596760.598 5    399382.820 1
  22112693.242     -427513.173 6   -285429.020 1
  22543598.633      680037.881 6    454775.821 1
  24591179.867     -436040.500 5   -290770.643 1
 90 10 24 10 38 30.0000000  0  5 02 11 06 18 15
  20838598.859      -36357.598 7    -26116.637 3
  24226968.953      640027.256 5    433097.076 1
  22106902.664     -457950.811 6   -309146.648 1
  22552928.398      729070.442 6    492983.000 1
  24585329.008     -466796.156 5   -314736.060 1
 90 10 24 10 38 45.0000000  0  5 02 11 06 18 15
  20838228.539      -38304.184 7    -27633.453 3
  24235217.273      683379.418 5    466877.940 1
  22101110.789     -488372.384 6   -332851.766 1
  22562270.797      778164.482 6    531238.088 1
  24579487.820     -497495.795 5   -338657.835 1
 90 10 24 10 39  0.0000000  0  5 02 11 06 18 15
  20837869.727      -40187.794 7    -29101.197 3
  24243485.398      726819.006 5    500726.944 1
  22095326.508     -518775.686 6   -356542.647 1
  22571625.148      827321.775 6    569542.461 1
  24573651.617     -528136.778 5   -362533.905 1
 90 10 24 10 39 15.0000000  0  5 02 11 06 18 15
  20837521.781      -42015.360 7    -30525.266 3
  24251763.742      770338.762 5    534638.430 1
  22089541.922     -549167.372 6   -380224.475 1
  22580989.234      876534.707 6    607890.195 1
  24567830.219     -558725.478 5   -386369.217 1
 90 10 24 10 39 30.0000000  0  5 02 11 06 18 15
  20837185.188      -43785.584 7    -31904.664 3
  24260061.828      813939.699 5    568613.169 1
  22083761.156     -579545.806 6   -403895.972 1
  22590367.711      925804.763 6    646282.436 1
  24562023.563     -589260.256 5   -410162.517 1
 90 10 24 10 39 45.0000000  0  5 02 11 06 18 15
  20836858.742      -45499.977 7    -33240.550 3
  24268375.492      857619.965 5    602649.691 1
  22077983.695     -609912.396 6
  22599752.258      975129.992 6    684717.675 1
  24556223.391     -619742.530 5
 90 10 24 10 40  0.0000000  0  5 02 11 06 18 15
  20836543.156      -47160.143 7    -34534.182 3
  24276703.875      901377.738 5    636746.629 1
  22072207.352     -640268.454 6
  22609149.422     1024508.490 6    723194.418 1
  24550431.242     -650173.307 5
 90 10 24 10 40 15.0000000  0  5 02 11 06 18 15
  20836237.906      -48766.188 7    -35785.644 3
  24285042.109      945212.637 5    670903.689 1
  22066432.609     -670613.861 6
  22618554.352     1073939.994 6    761712.463 1
  24544650.117     -680552.086 5
 90 10 24 10 40 30.0000000  0  5 02 11 06 18 15
  20835944.055      -50310.251 7    -36988.811 3
  24293400.906      989132.327 5    705126.784 1
  22060661.367     -700940.472 6
  22627973.344     1123432.118 6    800277.742 1
  24538882.109     -710870.681 5
 90 10 24 10 40 45.0000000  0  6 02 11 06 18 15 13
  20835661.555      -51791.411 7    -38142.957 3
  24301776.609     1033137.306 6    739416.360 1
  22054893.141     -731247.177 6
  22637401.805     1172985.515 6    838890.777 1
  24533123.016     -741127.603 5
  24683330.148          -0.76414
 90 10 24 10 41  0.0000000  0  6 02 11 06 18 15 13
  20835390.133      -53221.164 7    -39257.052 3
  24310163.227     1077215.722 6    773763.125 1
  22049129.617     -761545.339 6   -545713.765 1
  22646841.906     1222588.280 6    877542.268 1
  24527372.836     -771333.861 5   -552037.400 1
  24671826.063      -60471.056 4
 90 10 24 10 41 15.0000000  0  6 02 11 06 18 15 13
  20835127.844      -54597.897 7    -40329.829 3
  24318566.766     1121369.190 5    808168.404 1
  22043363.102     -791832.796 6   -569314.378 1
  22656290.680     1272242.137 6    916233.572 1
  24521635.555     -801487.300 5   -575533.572 1
  24660315.969     -120939.123 4
 90 10 24 10 41 30.0000000  0  6 02 11 06 18 15 13
  20834877.867      -55913.207 7    -41354.742 3
  24326982.156     1165605.885 5    842638.532 1
  22037606.789     -822100.988 6   -592899.971 1
  22665752.031     1321954.841 6    954970.737 1
  24515911.570     -831579.202 5   -598981.791 1
  24648812.367     -181396.336 4
 90 10 24 10 41 45.0000000  0  6 02 11 06 18 15 13
  20834638.672      -57163.882 7    -42329.295 3
  24335417.000     1209928.567 5    877175.654 1
  22031851.492     -852346.624 6   -616467.993 1
  22675223.211     1371729.653 6    993756.293 1
  24510197.906     -861606.036 5   -622379.279 1
  24637311.609     -241839.002 4
 90 10 24 10 42  0.0000000  0  6 02 11 06 18 15 13
  20834412.102      -58360.237 7    -43261.518 3
  24343863.047     1254326.664 5    911771.552 1
  22026095.969     -882579.635 6   -640026.173 1
  22684705.188     1421555.904 6   1032581.939 1
  24504495.961     -891577.491 5   -645733.632 1
  24625811.648     -302277.074 4
 90 10 24 10 42 15.0000000  0  6 02 11 06 18 15 13
  20834194.000      -59505.904 7    -44154.242 3
  24352326.602     1298796.179 5    946423.080 1
  22020349.086     -912803.479 6   -663577.215 1
  22694195.875     1471429.597 6   1071444.543 1
  24498801.992     -921496.849 5   -669047.392 1
  24614309.484     -362713.793 4
 90 10 24 10 42 30.0000000  0  6 02 11 06 18 15 13
  20833987.938      -60590.390 7    -44999.296 3
  24360806.016     1343347.401 5    981138.283 1
  22014598.992     -943007.366 6   -687112.700 1
  22703698.000     1521361.195 6   1110352.276 1
  24493118.344     -951353.086 5   -692311.983 1
  24602811.883     -423138.137 4        -0.19911
 90 10 24 10 42 45.0000000  0  6 02 11 06 18 15 13
  20833792.242      -61616.252 7    -45798.668 3
  24369299.016     1387977.569 5   1015915.017 1
  22008854.063     -973193.520 6   -710634.377 1
  22713208.258     1571347.783 6   1149302.855 1
  24487449.297     -981148.272 5   -715528.971 1
  24591315.250     -483552.073 5    -47075.963 1
 90 10 24 10 43  0.0000000  0  6 02 11 06 18 15 13
  20833608.180      -62585.625 7    -46554.020 3
  24377806.563     1432684.215 5   1050751.339 1
  22003114.320    -1003363.869 6   -734143.724 1
  22722733.141     1621387.140 6   1188294.550 1
  24481792.453    -1010884.011 5   -738699.667 1
  24579819.930     -543957.122 4    -94144.771 1
 90 10 24 10 43 15.0000000  0  6 02 11 06 18 15 13
  20833434.055      -63492.642 7    -47260.782 3
  24386330.898     1477473.054 5   1085651.708 1
  21997371.508    -1033512.205 6   -757635.923 1
  22732262.977     1671484.581 6   1227331.509 1
  24476142.984    -1040553.870 5   -761819.018 1
  24568329.516     -604347.162 5   -141201.925 1
 90 10 24 10 43 30.0000000  0  6 02 11 06 18 15 13
  20833274.516      -64344.855 7    -47924.843 3
  24394863.789     1522336.288 5   1120610.046 1
  21991638.531    -1063645.920 6   -781116.733 1
  22741807.133     1721632.485 6   1266407.782 1
  24470509.055    -1070165.132 5   -784892.682 1
  24556840.367     -664729.205 4   -188252.845 1
 90 10 24 10 43 45.0000000  0  6 02 11 06 18 15 13
  20833123.570      -65138.856 7    -48543.540 3
  24403417.125     1567276.881 5   1155628.674 1
  21985910.547    -1093761.308 6   -804583.266 1
  22751360.578     1771833.989 6   1305525.833 1
  24464887.422    -1099713.834 5   -807917.617 1
  24545347.875     -725099.436 4   -235294.509 1
 90 10 24 10 44  0.0000000  0  6 02 11 06 18 15 13
  20832983.000      -65872.887 7    -49115.511 3
  24411985.391     1612296.417 5   1190708.822 1
  21980182.453    -1123856.365 6   -828033.955 1
  22760924.633     1822090.669 6   1344686.873 1
  24459277.234    -1129197.792 5   -830892.111 1
  24533859.258     -785455.531 4   -282325.185 1
 90 10 24 10 44 15.0000000  0  6 02 11 06 18 15 13
  20832852.406      -66548.962 7    -49642.321 3
  24420568.195     1657392.769 5   1225848.787 1
  21974459.672    -1153932.660 6   -851470.026 1
  22770498.180     1872400.236 6   1383889.118 1
  24453676.016    -1158618.573 5   -853817.380 1
  24522379.633     -845799.007 4   -329346.012 1
 90 10 24 10 44 30.0000000  0  6 02 11 06 18 15 13
  20832733.648      -67173.946 7    -50129.323 3
  24429162.922     1702558.543 5   1261042.908 1
  21968738.406    -1183996.925 6   -874896.723 1
  22780080.258     1922755.592 6   1423127.052 1
  24448089.859    -1187982.458 5   -876698.300 1
  24510897.281     -906136.408 4   -376362.179 1
 90 10 24 10 44 45.0000000  0  6 02 11 06 18 15 13
  20832626.570      -67733.664 7    -50565.460 3
  24437770.664     1747807.754 5   1296302.047 1
  21963023.477    -1214034.675 6   -898302.755 2
  22789674.523     1973170.702 6   1462411.542 1
  24442516.578    -1217274.903 5   -899523.547 1
  24499420.977     -966453.128 4   -423362.122 1
 90 10 24 10 45  0.0000000  0  6 02 11 06 18 15 13
  20832534.734      -68234.685 7    -50955.864 3
  24446398.727     1793133.556 5   1331620.789 1
  21957309.289    -1244052.297 6   -921693.108 1
  22799277.922     2023638.684 6   1501737.230 1
  24436954.336    -1246501.946 5   -922297.852 1
  24487946.406    -1026755.322 4   -470350.878 1
 90 10 24 10 45 15.0000000  0  6 02 11 06 18 15 13
  20832445.383      -68686.601 7    -51308.007 3
  24455038.461     1838526.067 5   1366991.588 1
  21951600.109    -1274059.250 6   -945075.138 1
  22808889.836     2074149.583 6   1541096.361 1
  24431400.563    -1275672.782 5   -945028.363 1
  24476472.023    -1087052.099 3   -517335.305 1
 90 10 24 10 45 30.0000000  0  6 02 11 06 18 15 13
  20832369.500      -69082.212 7    -51616.279 3
  24463688.094     1883992.155 5   1402419.691 1
  21945893.203    -1304047.810 6   -968442.840 1
  22818510.086     2124710.428 6   1580494.412 1
  24425862.703    -1304780.151 5   -967709.411 1
  24464998.352    -1147335.886 3   -564309.656 1
 90 10 24 10 45 45.0000000  0  6 02 11 06 18 15 13
  20832307.555      -69420.077 7    -51879.547 3
  24472351.477     1929533.061 5   1437906.063 1
  21940190.664    -1334016.417 7   -991794.995 1
  22828141.523     2175322.580 6   1619932.445 1
  24420338.406    -1333821.758 5   -990339.211 1
  24453528.828    -1207604.525 4   -611272.167 1
 90 10 24 10 46  0.0000000  0  6 02 11 06 18 15 13
  20832252.500      -69710.209 7    -52105.626 3
  24481030.609     1975138.629 5   1473442.883 1
  21934492.414    -1363974.703 7  -1015139.108 1
  22837780.094     2225975.500 6   1659402.239 1
  24414818.383    -1362807.340 5  -1012925.358 1
  24442062.789    -1267867.282 4   -658230.112 1
 90 10 24 10 46 15.0000000  0  6 02 11 06 18 15 13
  20832211.031      -69932.858 7    -52279.117 3
  24489726.508     2020828.198 5   1509045.114 1
  21928795.188    -1393902.845 7  -1038459.728 1
  22847431.359     2276688.614 6   1698918.938 1
  24409323.008    -1391716.762 5  -1035452.167 1
  24430600.945    -1328104.403 4   -705168.101 1
 90 10 24 10 46 30.0000000  0  6 02 11 06 18 15 13
  20832178.445      -70101.396 7
  24498434.406     2066588.095 5   1544702.134 1
  21923102.734    -1423813.816 7  -1061766.968 1
  22857091.063     2327448.562 6   1738472.134 1
  24403832.563    -1420562.547 5  -1057929.381 1
  24419142.211    -1388328.829 4   -752096.166 1
 90 10 24 10 46 45.0000000  0  6 02 11 06 18 15 13
  20832154.773      -70210.827 7
  24507155.977     2112423.176 5   1580417.769 1
  21917415.250    -1453702.219 7  -1085056.625 1
  22866760.750     2378260.117 6   1778065.543 1
  24398352.273    -1449339.037 5  -1080352.592 1
  24407683.078    -1448535.022 4   -799010.074 1
 90 10 24 10 47  0.0000000  0  6 02 11 06 18 15 13
  20832146.383      -70258.873 7
  24515892.805     2158335.319 5   1616193.423 1
  21911735.109    -1483565.694 7  -1108326.859 1
  22876438.250     2429125.142 6   1817700.618 1
  24392894.281    -1478044.125 5  -1102720.163 1
  24396231.047    -1508720.091 4   -845907.520 1
 90 10 24 10 47 15.0000000  0  6 02 11 06 18 15 13
  20832146.734      -70254.164 7
  24524643.297     2204315.519 5   1652022.139 1
  21906052.547    -1513412.739 7  -1131584.291 1
  22886126.578     2480034.437 6   1857370.190 1
  24387442.414    -1506685.883 5  -1125038.391 1
  24384779.836    -1568892.191 4   -892794.788 1
 90 10 24 10 47 30.0000000  0  6 02 11 06 18 15 13
  20832163.359      -70188.138 7
  24533406.445     2250372.068 5   1687910.334 1
  21900375.398    -1543234.607 6  -1154822.097 1
  22895823.117     2530996.558 6   1897080.923 1
  24382006.469    -1535255.527 5  -1147300.434 1
  24373334.141    -1629042.626 5   -939665.216 1
 90 10 24 10 47 45.0000000  0  6 02 11 06 18 15 13
  20832184.359      -70062.891 7
  24542184.742     2296503.016 5   1723856.535 1
  21894709.203    -1573032.709 7  -1178041.390 1
  22905532.242     2582009.459 6   1936831.226 1
  24376580.922    -1563754.092 5  -1169507.077 1
  24361890.602    -1689172.769 5   -986519.854 1
 90 10 24 10 48  0.0000000  0  6 02 11 06 18 15 13
  20832216.734      -69880.764 7
  24550976.727     2342705.523 5   1759858.498 1
  21889043.117    -1602809.199 7  -1201243.837 2
  22915248.109     2633070.255 6   1976618.839 1
  24371171.953    -1592183.567 5  -1191659.887 1
  24350454.156    -1749284.493 5  -1033360.113 1
 90 10 24 10 48 15.0000000  0  6 02 11 06 18 15 13
  20832266.898      -69630.046 7
  24559784.922     2388990.946 5   1795924.991 1
  21883379.477    -1632552.196 7  -1224420.196 1
  22924975.773     2684190.382 6   2016452.699 1
  24365776.336    -1620531.923 5  -1213749.494 1
  24339022.680    -1809365.770 5  -1080176.657 1
 90 10 24 10 48 30.0000000  0  6 02 11 06 18 15 13
  20832324.203      -69329.892 7
  24568605.805     2435339.880 5   1832041.064 1
  21877723.758    -1662280.575 7  -1247585.160 2
  22934711.086     2735350.613 6   2056317.793 1
  24360393.359    -1648817.917 5  -1235790.497 1
  24327589.883    -1869435.337 5  -1126984.091 1
 90 10 24 10 48 45.0000000  0  6 02 11 06 18 15 13
  20832393.852      -68969.665 7        -0.05813
  24577440.766     2481762.632 5   1868214.601 1
  21872074.820    -1691983.471 7  -1270730.270 2
  22944454.898     2786561.167 6   2096222.108 1
  24355023.680    -1677030.669 5  -1257774.432 1
  24316164.039    -1929482.161 5  -1173773.800 1
 90 10 24 10 49  0.0000000  0  6 02 11 06 18 15 13
  20832471.242      -68557.803 7       320.874 3
  24586285.391     2528250.534 5   1904438.955 1
  21866424.859    -1721668.985 7  -1293861.832 1
  22954208.664     2837813.407 6   2136158.911 1
  24349669.023    -1705177.829 5  -1279707.261 1
  24304740.914    -1989513.749 5  -1220551.610 1
 90 10 24 10 49 15.0000000  0  6 02 11 06 18 15 13
  20832558.852      -68093.631 7       682.564 3
  24595144.250     2574803.990 5   1940714.365 1
  21860779.555    -1751336.131 7  -1316979.076 2
  22963970.336     2889107.898 6   2176128.630 1
  24344327.211    -1733258.408 5  -1301588.213 1
  24293318.812    -2049529.195 5  -1267316.921 1
 90 10 24 10 49 30.0000000  0  6 02 11 06 18 15 13
  20832657.953      -67568.879 7      1091.466 3
  24604018.930     2621431.105 5   1977047.139 1
  21855136.688    -1780976.272 7  -1340075.289 2
  22973740.320     2940452.677 6   2216137.550 1
  24338995.461    -1761263.536 5  -1323410.360 1
  24281902.664    -2109519.660 5  -1314062.689 1
 90 10 24 10 49 45.0000000  0  6 02 11 06 18 15 13
  20832767.422      -66990.824 7      1541.900 3
  24612904.672     2668124.443 5   2013431.549 1
  21849501.523    -1810596.359 7  -1363155.868 2
  22983518.742     2991840.297 6   2256179.829 1
  24333681.289    -1789199.905 5  -1345178.937 1
  24270490.453    -2169491.732 5  -1360794.127 1
 90 10 24 10 50  0.0000000  0  6 02 11 06 18 15 13
  20832890.367      -66353.687 7      2038.368 3
  24621801.414     2714889.115 5   2049871.526 1
  21843868.352    -1840190.506 7  -1386216.239 2
  22993307.445     3043276.123 6   2296259.683 1
  24328379.242    -1817061.850 5  -1366889.503 1
  24259083.391    -2229439.606 5  -1407506.780 1
 90 10 24 10 50 15.0000000  0  6 02 11 06 18 15 13
  20833022.773      -65655.846 7      2582.141 3
  24630714.656     2761726.453 5   2086368.151 1
  21838242.297    -1869757.044 7  -1409255.093 2
  23003105.102     3094761.292 6   2336377.980 1
  24323090.297    -1844847.350 5  -1388540.524 1
  24247682.578    -2289361.210 5  -1454198.885 1
 90 10 24 10 50 30.0000000  0  6 02 11 06 18 15 13
  20833167.328      -64900.904 7      3170.410 3
  24639640.891     2808632.784 5   2122918.499 1
  21832618.195    -1899299.107 7  -1432274.878 2
  23012912.109     3146292.284 6   2376531.986 1
  24317819.750    -1872559.322 5  -1410134.226 1
  24236284.141    -2349259.758 5  -1500873.082 1
 90 10 24 10 50 45.0000000  0  6 02 11 06 18 15 13
  20833318.961      -64096.753 7      3797.022 3
  24648576.766     2855599.921 5   2159516.310 1
  21827002.438    -1928824.288 7  -1455281.508 2
  23022724.578     3197860.601 6   2416715.085 1
  24312555.750    -1900204.952 5  -1431676.244 1
  24224885.797    -2409142.524 5  -1547534.942 1
 90 10 24 10 51  0.0000000  0  6 02 11 06 18 15 13
  20833483.016      -63241.436 7      4463.504 3
  24657528.789     2902629.572 5   2196162.770 1
  21821387.672    -1958330.289 7  -1478273.188 1
  23032544.445     3249468.023 6   2456928.655 1
  24307309.102    -1927781.830 5  -1453164.710 1
  24213493.703    -2469007.053 5  -1594182.618 1
 90 10 24 10 51 15.0000000  0  6 02 11 06 18 15 13
  20833663.352      -62288.679 7      5205.913 3
  24666499.078     2949767.828 5   2232893.857 1
  21815784.313    -1987770.425 7  -1501213.544 1
  23042380.672     3301160.790 6   2497208.723 1
  24302084.977    -1955243.116 5  -1474563.083 1
  24202116.016    -2528806.510 5  -1640779.588 1
 90 10 24 10 51 30.0000000  0  6 02 11 06 18 15 13
  20833853.203      -61296.215 7      5979.260 3
  24675475.867     2996956.528 5   2269664.249 1
  21810184.086    -2017202.394 7  -1524147.532 1
  23052223.148     3352880.839 6   2537510.045 1
  24296870.555    -1982646.387 5  -1495916.259 1
  24190739.719    -2588598.355 5  -1687370.594 1
 90 10 24 10 51 45.0000000  0  6 02 11 06 18 15 13
  20834049.695      -60253.483 7      6791.778 3
  24684468.992     3044205.846 5   2306481.921 1
  21804588.477    -2046615.411 7  -1547066.755 1
  23062072.484     3404638.343 6   2577840.555 1
  24291668.992    -2009980.728 5  -1517215.715 1
  24179364.773    -2648371.434 5  -1733947.035 1
 90 10 24 10 52  0.0000000  0  6 02 11 06 18 15 13
  20834261.758      -59149.290 7      7652.187 3
  24693475.289     3091526.746 5   2343355.331 1
  21798995.242    -2075997.941 7  -1569962.224 2
  23071930.484     3456444.340 6   2618208.867 1
  24286482.766    -2037234.611 5  -1538452.488 1
  24167993.859    -2708114.082 5  -1780499.715 1
 90 10 24 10 52 15.0000000  0  6 02 11 06 18 15 13
  20834481.578      -57995.336 7      8551.376 3
  24702491.008     3138907.382 5   2380275.294 1
  21793406.539    -2105361.340 7  -1592842.784 1
  23081796.578     3508286.872 6   2658605.628 1
  24281306.281    -2064419.148 5  -1559635.215 1
  24156628.516    -2767837.810 5  -1827037.662 1
 90 10 24 10 52 30.0000000  0  6 02 11 06 18 15 13
  20834709.367      -56794.102 7      9487.403 3
  24711516.570     3186344.832 5   2417239.560 1
  21787825.094    -2134707.991 7  -1615710.297 2
  23091668.273     3560162.944 6   2699028.536 1
  24276147.117    -2091536.396 5  -1580765.513 1
  24145264.570    -2827544.462 4  -1873562.346 1
 90 10 24 10 52 45.0000000  0  6 02 11 06 18 15 13
  20834947.656      -55546.328 7     10459.694 3
  24720552.492     3233838.280 5   2454247.431 1
  21782242.539    -2164038.085 7  -1638564.906 2
  23101546.766     3612071.702 6   2739476.906 1
  24271002.891    -2118586.516 5  -1601843.503 1
  24133909.547    -2887234.214 4  -1920073.789 1
 90 10 24 10 53  0.0000000  0  6 02 11 06 18 15 13
  20835195.563      -54239.706 7     11477.843 3
  24729604.367     3281399.589 5   2491308.185 1
  21776666.211    -2193339.277 7  -1661396.998 2
  23111432.531     3664025.186 6   2779960.129 1
  24265869.680    -2145557.043 5  -1622859.482 1
  24122554.953    -2946894.423 4  -1966562.243 1
 90 10 24 10 53 15.0000000  0  6 02 11 06 18 15 13
  20835455.391      -52876.081 7     12540.407 3
  24738665.672     3329026.833 5   2528420.297 1
  21771094.727    -2222612.786 7  -1684207.511 1
  23121327.578     3716021.590 6   2820476.801 1
  24260748.945    -2172449.131 5  -1643814.337 1
  24111207.930    -3006526.450 4  -2013028.714 1
 90 10 24 10 53 30.0000000  0  6 02 11 06 18 15 13
  20835723.234      -51470.799 7     13635.436 3
  24747740.203     3376704.338 5   2565571.608 1
  21765527.922    -2251873.845 7  -1707008.336 2
  23131226.344     3768045.287 6   2861014.732 1
  24255647.953    -2199277.448 5  -1664719.485 1
  24099864.703    -3066145.030 4  -2059484.734 1
 90 10 24 10 53 45.0000000  0  6 02 11 06 18 15 13
  20835999.359      -50016.619 7     14768.566 3
  24756826.328     3424438.866 5   2602767.286 1
  21759964.266    -2281115.083 7  -1729793.706 2
  23141132.547     3820102.842 6   2901579.055 1
  24250552.695    -2226034.614 5  -1685569.201 1
  24088523.391    -3125742.773 5  -2105924.490 1
 90 10 24 10 54  0.0000000  0  6 02 11 06 18 15 13
  20836286.828      -48508.548 7     15943.691 3
  24765921.148     3472235.242 4   2640011.218 1
  21754403.172    -2310331.035 7  -1752559.381 2
  23151047.641     3872199.321 6   2942173.692 1
  24245477.641    -2252715.137 5  -1706359.202 1
  24077188.070    -3185313.937 5  -2152343.588 1
 90 10 24 10 54 15.0000000  0  6 02 11 06 18 15 13
  20836585.422      -46938.886 7     17166.806 3
  24775026.063     3520100.870 4   2677309.084 1
  21748851.297    -2339513.869 7  -1775299.244 2
  23160970.156     3924342.175 6   2982804.484 1
  24240418.352    -2279311.117 6  -1727083.315 1
  24065856.523    -3244850.437 5  -2198735.658 1
 90 10 24 10 54 30.0000000  0  6 02 11 06 18 15 13
  20836893.789      -45317.293 7     18430.387 3
  24784147.938     3568025.885 5   2714653.199 1
  21743301.250    -2368672.826 7  -1798020.500 2
  23170898.234     3976521.424 6   3023463.622 1
  24235367.789    -2305831.460 5  -1747748.490 1
  24054532.867    -3304361.407 5  -2245107.802 1
 90 10 24 10 54 45.0000000  0  6 02 11 06 18 15 13
  20837214.102      -43636.539 7     19740.069 3
  24793281.250     3616017.304 4   2752049.113 1
  21737758.297    -2397800.517 7  -1820717.396 2
  23180836.242     4028743.576 6   3064156.186 1
  24230338.055    -2332268.836 5  -1768349.017 1
  24043214.031    -3363839.219 5  -2291454.130 1
 90 10 24 10 55  0.0000000  0  6 02 11 06 18 15 13
  20837546.602      -41888.182 7     21102.427 3
  24802427.570     3664083.319 4   2789503.137 1
  21732224.297    -2426888.123 7  -1843383.050 2
  23190785.484     4081017.246 6   3104888.908 1
  24225326.672    -2358614.275 5  -1788877.909 1
  24031905.109    -3423274.969 5  -2337767.686 1
 90 10 24 10 55 15.0000000  0  6 02 11 06 18 15 13
  20837889.219      -40088.283 7     22504.947 3
  24811584.063     3712207.469 5   2827002.454 1
  21726690.414    -2455951.330 7  -1866029.698 2
  23200737.758     4133325.916 6   3145648.906 1
  24220327.211    -2384883.218 5  -1809347.186 1
  24020599.367    -3482684.199 5  -2384060.552 1
 90 10 24 10 55 30.0000000  0  6 02 11 06 18 15 13
  20838240.414      -38242.218 7     23943.444 3
  24820753.836     3760384.233 5   2864542.731 1
  21721165.688    -2484995.320 7  -1888661.370 2
  23210695.703     4185664.607 6   3186432.278 1
  24215342.898    -2411080.449 5  -1829760.591 1
  24009300.039    -3542071.767 5  -2430336.568 1
 90 10 24 10 55 45.0000000  0  6 02 11 06 18 15 13
  20838600.023      -36354.532 7     25414.372 3
  24829929.453     3808608.564 5   2902120.155 1
  21715641.945    -2514024.532 7  -1911281.531 2
  23220661.703     4238027.862 6   3227234.798 1
  24210366.984    -2437210.659 5  -1850121.770 1
  23997999.531    -3601441.873 5  -2476598.953 1
 90 10 24 10 56  0.0000000  0  6 02 11 06 18 15 13
  20838968.352      -34414.779 7     26925.867 3
  24839116.969     3856890.792 5   2939742.634 1
  21710121.148    -2543027.986 7  -1933881.617 2
  23230632.180     4290426.029 6   3268064.515 1
  24205407.500    -2463262.455 5  -1870421.846 1
  23986707.500    -3660783.670 5  -2522839.309 1
 90 10 24 10 56 15.0000000  0  6 02 11 06 18 15 13
  20839348.445      -32413.812 7     28485.066 3
  24848319.367     3905239.866 5   2977417.243 1
  21704611.734    -2571996.251 7  -1956454.282 2
  23240611.672     4342868.212 6   3308928.540 1
  24200469.188    -2489226.052 5  -1890653.199 1
  23975421.555    -3720087.343 5  -2569049.947 1
 90 10 24 10 56 30.0000000  0  6 02 11 06 18 15 13
  20839739.367      -30364.886 7     30081.632 3
  24857531.508     3953642.007 5   3015133.162 1
  21699102.688    -2600942.215 7  -1979009.570 2
  23250597.570     4395340.414 6   3349815.958 1
  24195543.578    -2515114.345 5  -1910825.874 1
  23964141.648    -3779365.997 5  -2615241.067 1
 90 10 24 10 56 45.0000000  0  6 02 11 06 18 15 13
  20840140.938      -28256.405 7     31724.606 3
  24866752.594     4002108.786 5   3052899.505 1
  21693603.242    -2629854.057 7  -2001538.278 2
  23260589.633     4447854.399 6   3390735.937 1
  24190632.977    -2540915.686 5  -1930930.789 1
  23952869.641    -3838607.328 5  -2661403.119 1
 90 10 24 10 57  0.0000000  0  6 02 11 06 18 15 13
  20840551.125      -26095.647 7     33408.316 3
  24875987.414     4050632.327 5   3090710.027 1
  21688105.102    -2658739.067 7  -2024046.067 2
  23270589.109     4500402.555 6   3431682.539 1
  24185740.063    -2566637.076 5  -1950973.404 1
  23941600.969    -3897818.331 5  -2707541.532 1
 90 10 24 10 57 15.0000000  0  6 02 11 06 18 15 13
  20840971.297      -23886.314 7     35129.877 3
  24885228.766     4099208.781 5   3128561.840 1
  21682611.938    -2687600.337 7  -2046535.357 2
  23280595.406     4552980.814 6   3472652.602 1
  24180859.016    -2592281.431 5  -1970955.998 1
  23930339.828    -3957002.155 6  -2753658.779 1
 90 10 24 10 57 30.0000000  0  6 02 11 06 18 15 13
  20841403.086      -21617.357 7     36897.898 3
  24894486.859     4147849.019 5   3166463.292 1
  21677123.406    -2716426.674 7  -2068997.426 2
  23290608.500     4605600.027 6   3513654.576 1
  24175995.750    -2617837.229 5  -1990869.583 1
  23919084.109    -4016147.391 6  -2799745.958 1
 90 10 24 10 57 45.0000000  0  6 02 11 06 18 15 13
  20841845.992      -19295.646 7     38707.025 3
  24903751.930     4196545.569 5   3204408.670 1
  21671645.586    -2745224.663 7  -2091437.409 2
  23300628.648     4658252.899 6   3554682.769 1
  24171151.680    -2643311.516 5  -2010719.644 1
  23907831.445    -4075260.477 6  -2845808.096 1
 90 10 24 10 58  0.0000000  0  6 02 11 06 18 15 13
  20842297.867      -16920.445 7     40557.833 3
  24913029.484     4245299.132 5   3242398.430 1
  21666174.188    -2773993.165 7  -2113854.415 2
  23310654.242     4710940.062 6   3595737.690 1
  24166318.383    -2668702.569 5  -2030504.861 1
  23896592.859    -4134340.003 6  -2891844.075 1
 90 10 24 10 58 15.0000000  0  6 02 11 06 18 15 13
  20842760.313      -14488.766 7     42452.652 3
  24922318.930     4294112.477 5   3280434.803 1
  21660706.016    -2802728.910 7  -2136245.895 2
  23320688.031     4763664.310 6   3636821.517 1
  24161500.359    -2694006.952 5  -2050222.543 1
  23885357.578    -4193382.590 5  -2937851.269 1
 90 10 24 10 58 30.0000000  0  6 02 11 06 18 15 13
  20843234.398      -11998.707 7     44392.961 3
  24931618.078     4342987.136 5   3318518.944 1
  21655242.039    -2831429.685 7  -2158610.124 2
  23330727.469     4816427.200 6   3677935.443 1
  24156701.805    -2719222.503 5  -2069870.996 1
  23874128.594    -4252385.924 5  -2983827.879 1
 90 10 24 10 58 45.0000000  0  6 02 11 06 18 15 13
  20843719.781       -9452.295 7     46377.183 3
  24940931.016     4391921.018 5   3356649.228 1
  21649787.430    -2860097.102 7  -2180948.359 2
  23340775.305     4869226.705 6   3719077.926 1
  24151921.414    -2744350.712 5  -2089451.392 1
  23862906.063    -4311351.231 5  -3029774.829 1
 90 10 24 10 59  0.0000000  0  6 02 11 06 18 15 13
  20844213.266       -6853.407 7     48402.290 3
  24950254.141     4440909.637 5   3394822.217 1
  21644336.922    -2888735.082 7  -2203263.659 2
  23350828.906     4922058.174 6   3760245.298 1
  24147156.391    -2769395.245 5  -2108966.593 1
  23851692.430    -4370282.371 5  -3075695.185 1
 90 10 24 10 59 15.0000000  0  6 02 11 06 18 15 13
  20844719.977       -4195.912 7     50473.070 3
  24959586.539     4489959.009 5   3433042.449 1
  21638895.172    -2917337.062 7  -2225550.906 2
  23360889.281     4974927.564 6   3801442.214 1
  24142406.266    -2794349.434 5  -2128411.397 1
  23840489.109    -4429172.692 5  -3121583.723 1
 90 10 24 10 59 30.0000000  0  6 02 11 06 18 15 13
  20845235.586       -1480.490 7     52588.987 3
  24968932.039     4539068.234 4   3471309.438 1
  21633456.867    -2945903.341 7  -2247810.337 2
  23370956.156     5027834.178 6   3842668.133 1
  24137675.555    -2819213.469 5  -2147785.939 1
  23829287.273    -4488022.289 5  -3167440.541 1
 90 10 24 10 59 45.0000000  0  6 02 11 06 18 15 13
  20845762.898        1291.617 7     54749.071 3
  24978289.234     4588235.671 5   3509621.706 1
  21628030.492    -2974434.795 7  -2270042.636 2
  23381032.750     5080776.411 6   3883921.809 1
  24132960.891    -2843988.368 5  -2167091.042 1
  23818095.766    -4546832.212 5  -3213266.433 1
 90 10 24 11  0  0.0000000  0  6 02 11 06 18 15 13
  20846300.672        4117.568 7     56951.112 3
  24987653.297     4637458.145 4   3547976.855 1
  21622604.195    -3002934.230 7  -2292249.975 2
  23391112.008     5133751.040 6   3925200.738 1
  24128264.195    -2868676.317 5  -2186328.384 1
  23806913.164    -4605604.475 5  -3259062.972 1
 90 10 24 11  0 15.0000000  0  6 02 11 06 18 15 13
  20846849.156        6999.417 7     59196.712 3
  24997032.242     4686737.357 4   3586376.180 1
  21617190.406    -3031399.105 7  -2314430.390 2
  23401198.836     5186759.902 6   3966506.344 1
  24123583.258    -2893274.901 5  -2205496.082 1
  23795735.719    -4664336.679 5  -3304828.293 1
 90 10 24 11  0 30.0000000  0  6 02 11 06 18 15 13
  20847408.719        9936.877 7     61485.642 3
  25006420.961     4736072.868 4   3624819.444 1
  21611777.352    -3059829.513 7  -2336583.953 2
  23411292.688     5239802.746 6   4007838.435 1
  24118920.016    -2917784.099 5  -2224594.141 1
  23784568.266    -4723028.568 5  -3350562.219 1
 90 10 24 11  0 45.0000000  0  6 02 11 06 18 15 13
  20847977.383       12924.302 7     63813.506 3
  25015817.164     4785458.820 5   3663302.011 1
  21606374.258    -3088230.777 7  -2358714.797 2
  23421393.859     5292873.545 6   4049192.290 1
  24114270.102    -2942209.032 5  -2243626.535 1
  23773407.508    -4781685.654 5  -3396269.019 1
 90 10 24 11  1  0.0000000  0  6 02 11 06 18 15 13
  20848557.078       15971.776 7     66188.161 3
  25025227.320     4834904.931 5   3701831.494 1
  21600978.492    -3116592.485 7  -2380814.820 2
  23431499.148     5345982.122 6   4090575.583 1
  24109641.273    -2966539.220 5  -2262585.099 1
  23762252.219    -4840297.267 5  -3441940.389 1
 90 10 24 11  1 15.0000000  0  6 02 11 06 18 15 13
  20849144.883       19068.484 7     68601.186 3
  25034646.391     4884400.133 5   3740399.181 1
  21595584.719    -3144925.135 7  -2402892.204 2
  23441611.320     5399117.232 6   4131979.541 1
  24105027.617    -2990785.237 5  -2281478.092 1
  23751106.063    -4898873.832 5  -3487584.422 1
 90 10 24 11  1 30.0000000  0  6 02 11 06 18 15 13
  20849745.938       22218.410 7     71055.673 3
  25044074.766     4933947.926 5   3779007.866 1
  21590201.055    -3173224.644 7  -2424943.763 2
  23451726.094     5452282.527 5   4173407.045 1
  24100427.266    -3014942.621 5  -2300302.004 1
  23739967.109    -4957410.788 5  -3533197.617 1
 90 10 24 11  1 45.0000000  0  6 02 11 06 18 15 13
  20850353.734       25417.290 7     73548.307 3
  25053513.469     4983544.070 5   3817654.218 1
  21584822.117    -3201494.707 7  -2446972.372 2
  23461846.711     5505473.482 5   4214854.536 1
  24095849.508    -3039015.047 5  -2319059.717 1
  23728834.516    -5015911.850 5  -3578782.822 1
 90 10 24 11  2  0.0000000  0  6 02 11 06 18 15 13
  20850971.672       28664.123 7     76078.308 3
  25062960.227     5033187.271 5   3856337.237 1
  21579448.633    -3229736.019 7  -2468978.580 2
  23471972.445     5558688.963 5   4256321.131 1
  24091288.188    -3063003.131 5  -2337751.717 1
  23717708.906    -5074377.550 5  -3624340.509 1
 90 10 24 11  2 15.0000000  0  6 02 11 06 18 15 13
  20851598.695       31959.744 7     78646.326 3
  25072416.500     5082878.005 5   3895057.336 1
  21574078.133    -3257947.612 7  -2490961.633 2
  23482105.188     5611929.704 5   4297807.403 1
  24086734.859    -3086905.790 5  -2356377.138 1
  23706589.195    -5132806.706 5  -3669869.722 1
 90 10 24 11  2 30.0000000  0  6 02 11 06 18 15 13
  20852235.203       35302.634 7     81251.179 3
  25081880.563     5132614.451 5   3933812.977 1
  21568715.297    -3286130.649 7  -2512922.431 2
  23492241.445     5665193.637 5   4339311.754 1
  24082203.453    -3110723.721 5  -2374936.558 1
  23695478.164    -5191200.195 5  -3715371.103 1
 90 10 24 11  2 45.0000000  0  6 02 11 06 18 15 13
  20852881.258       38702.455 7     83900.390 3
  25091353.672     5182405.739 5   3972611.366 1
  21563360.977    -3314275.303 7  -2534853.324 2
  23502384.094     5718490.302 5   4380841.598 1
  24077690.680    -3134447.496 5  -2393422.588 1
  23684375.156    -5249548.178 5  -3760837.065 1
 90 10 24 11  3  0.0000000  0  6 02 11 06 18 15 13
  20853538.461       42151.901 7     86588.273 3
  25100837.969     5232244.553 5   4011446.833 1
  21558011.156    -3342388.404 7  -2556759.627 2
  23512532.281     5771811.954 5   4422390.925 1
  24073191.211    -3158083.598 5  -2411840.305 1
  23673279.016    -5307857.405 5  -3806272.786 1
 90 10 24 11  3 15.0000000  0  6 02 11 06 18 15 13
  20854204.000       45650.446 7     89314.414 3
  25110331.906     5282129.935 5   4050318.592 1
  21552666.148    -3370470.188 7  -2578641.535 2
  23522683.625     5825157.915 5   4463959.193 1
  24068710.016    -3181632.401 5  -2430190.012 1
  23662191.375    -5366127.952 5  -3851678.406 1
 90 10 24 11  3 30.0000000  0  6 02 11 06 18 15 13
  20854879.820       49198.859 7     92079.413 3
  25119833.164     5332062.615 5   4089227.181 1
  21547327.492    -3398519.527 7  -2600498.157 2
  23532838.008     5878528.982 5   4505547.026 1
  24064245.758    -3205092.546 5  -2448470.629 1
  23651108.891    -5424358.506 5  -3897052.846 1
 90 10 24 11  3 45.0000000  0  6 02 11 06 18 15 13
  20855563.250       52795.088 7     94881.677 3
  25129346.711     5382040.035 5   4128170.643 1
  21541995.703    -3426538.376 7  -2622331.020 2
  23542997.320     5931922.486 5   4547152.325 1
  24059795.914    -3228465.807 5  -2466683.547 1
  23640036.320    -5482550.926 5  -3942397.560 1
 90 10 24 11  4  0.0000000  0  7 02 11 06 18 15 13 09
  20856259.727       56447.127 7     97727.421 3
  25138864.047     5432070.158 5   4167155.191 1
  21536670.891    -3454518.181 7  -2644133.456 2
  23553165.633     5985346.348 5   4588781.290 1
  24055367.406    -3251743.328 5  -2484821.848 1
  23628970.805    -5540696.301 5  -3987705.629 1
  24563852.227      -44410.203 4
 90 10 24 11  4 15.0000000  0  6 02 06 18 15 13 09
  20856962.922       60151.578 7    100614.011 3
  21531354.648    -3482461.999 7  -2665907.855 2
  23563335.664     6038797.016 5   4630431.151 1
  24050955.922    -3274928.351 5  -2502888.083 1
  23617914.758    -5598797.853 6  -4032979.568 1
  24555396.828      -88834.115 4
 90 10 24 11  4 30.0000000  0  6 02 06 18 15 13 09
  20857677.719       63904.412 7    103538.300 3
  21526044.109    -3510373.775 7  -2687657.284 2
  23573513.328     6092269.863 5   4672098.291 1
  24046559.906    -3298024.734 5  -2520885.241 1
  23606865.766    -5656859.220 6  -4078222.178 1
  24546937.188     -133275.724 4
 90 10 24 11  4 45.0000000  0  6 02 06 18 15 13 09
  20858401.180       67709.206 7    106503.079 3
  21520736.250    -3538249.463 7  -2709378.591 2
  23583692.680     6145768.472 6   4713785.517 1
  24042186.023    -3321028.194 5  -2538810.002 1
  23595826.859    -5714876.106 6  -4123430.122 1
  24538480.094     -177731.155 4
 90 10 24 11  5  0.0000000  0  6 02 06 18 15 13 09
  20859136.328       71564.960 7    109507.563 3
  21515440.813    -3566089.982 7  -2731072.495 2
  23593877.070     6199291.309 5   4755491.606 1
  24037825.688    -3343939.297 5  -2556662.784 1
  23584794.070    -5772849.301 6  -4168604.005 1
  24530018.133     -222201.421 4
 90 10 24 11  5 15.0000000  0  6 02 06 18 15 13 09
  20859879.086       75472.893 7    112552.712 3
  21510149.227    -3593893.757 7  -2752737.763 2
  23604067.125     6252839.434 5   4797217.411 1
  24033480.914    -3366756.730 5  -2574442.584 1
  23573771.617    -5830777.215 6  -4213742.640 1
  24521554.492     -266685.192 4
 90 10 24 11  5 30.0000000  0  6 02 06 18 15 13 09
  20860633.617       79435.297 7    115640.303 3
  21504866.563    -3621658.357 7  -2774372.509 2
  23614262.438     6306414.713 6   4838964.364 1
  24029156.141    -3389477.866 5  -2592147.349 1
  23562757.227    -5888657.269 6  -4258843.941 1
  24513083.297     -311179.987 4
 90 10 24 11  5 45.0000000  0  6 02 06 18 15 13 09
  20861396.258       83445.399 7    118765.059 3
  21499589.141    -3649389.861 7  -2795981.470 2
  23624460.336     6360010.450 6   4880727.273 1
  24024848.148    -3412108.702 5  -2609781.739 1
  23551749.484    -5946495.313 6  -4303912.543 1
  24504613.336     -355692.163 4
 90 10 24 11  6  0.0000000  0  6 02 06 18 15 13 09
  20862169.945       87510.575 7    121932.728 3
  21494321.914    -3677080.382 7  -2817558.490 2
  23634664.844     6413633.930 6   4922511.782 1
  24020563.195    -3434641.488 5  -2627339.729 1
  23540754.758    -6004283.476 6  -4348942.254 1
  24496143.695     -400214.029 4        -0.36711
 90 10 24 11  6 15.0000000  0  6 02 06 18 15 13 09
  20862953.641       91628.357 7    125141.393 3
  21489059.336    -3704732.489 7  -2839105.578 2
  23644875.813     6467281.974 6   4964315.451 1
  24016292.930    -3457078.396 5  -2644823.003 1
  23529765.648    -6062023.927 5  -4393934.802 1
  24487668.109     -444747.899 4    -34702.083 1
 90 10 24 11  6 30.0000000  0  6 02 06 18 15 13 09
  20863746.578       95796.198 7    128389.064 3
  21483803.055    -3732348.368 7  -2860624.435 2
  23655087.258     6520951.699 6   5006136.013 1
  24012043.773    -3479421.655 5  -2662233.324 1
  23518786.469    -6119718.868 5  -4438891.867 1
  24479190.313     -489296.277 4    -69415.097 1
 90 10 24 11  6 45.0000000  0  6 02 06 18 15 13 09
  20864548.547      100009.221 7    131671.936 3
  21478554.242    -3759932.625 7  -2882118.660 2
  23665304.422     6574638.323 6   5047969.738 1
  24007806.594    -3501675.842 5  -2679574.231 1
  23507818.531    -6177372.821 6  -4483817.008 1
  24470706.836     -533864.019 5   -104143.148 1
 90 10 24 11  7  0.0000000  0  6 02 06 18 15 13 09
  20865360.461      104273.733 7    134994.932 3
  21473311.039    -3787478.843 7  -2903583.237 2
  23675523.977     6628347.633 6   5089821.136 1
  24003592.836    -3523834.104 5  -2696840.390 1
  23496853.633    -6234978.811 5  -4528704.769 1
  24462228.625     -578444.575 5   -138881.203 1
 90 10 24 11  7 15.0000000  0  6 02 06 18 15 13 09
  20866181.578      108592.665 7    138360.332 3
  21468077.898    -3814983.598 7  -2925015.513 2
  23685749.305     6682082.455 6   5131692.429 1
  23999388.852    -3545893.193 5  -2714029.280 1
  23485900.664    -6292533.765 5  -4573552.761 1
  24453738.000     -623034.770 4   -173626.793 1
 90 10 24 11  7 30.0000000  0  6 02 06 18 15 13 09
  20867013.555      112962.658 7    141765.523 3
  21462852.570    -3842449.894 7  -2946417.811 2
  23695979.906     6735839.005 6   5173580.632 1
  23995215.352    -3567856.161 5  -2731143.259 1
  23474960.430    -6350040.524 5  -4618363.210 1
  24445254.297     -667637.719 4   -208382.348 1
 90 10 24 11  7 45.0000000  0  6 02 06 18 15 13 09
  20867855.375      117383.449 7    145210.297 3
  21457632.430    -3869877.563 7  -2967790.013 2
  23706215.227     6789616.807 6   5215485.416 1
  23991051.813    -3589722.740 5  -2748182.129 1
  23464026.313    -6407498.529 5  -4663135.664 1
  24436761.867     -712253.471 3   -243147.813 1
 90 10 24 11  8  0.0000000  0  6 02 06 18 15 13 09
  20868704.859      121852.453 7    148692.638 3
  21452418.219    -3897269.155 7  -2989134.112 2
  23716451.914     6843412.913 6   5257404.457 1
  23986906.297    -3611495.204 5  -2765147.663 1
  23453098.289    -6464910.138 5  -4707871.959 1
  24428272.680     -756884.548 3   -277925.249 1
 90 10 24 11  8 15.0000000  0  6 02 06 18 15 13 09
  20869564.906      126370.624 7    152213.292 3
  21447215.656    -3924623.071 7  -3010448.842 2
  23726690.578     6897228.309 5   5299338.528 1
  23982785.305    -3633171.985 5  -2782038.647 1
  23442183.328    -6522273.598 6  -4752570.745 1
  24419772.148     -801529.503 3   -312713.517 1
 90 10 24 11  8 30.0000000  0  6 02 06 18 15 13 09
  20870434.148      130938.873 7    155772.965 3
  21442016.906    -3951938.290 7  -3031733.423 2
  23736932.734     6951063.444 5   5341287.966 1
  23978676.352    -3654752.180 5  -2798854.357 1
  23431274.680    -6579588.126 6  -4797231.385 1
  24411277.352     -846187.559 3   -347511.987 1
 90 10 24 11  8 45.0000000  0  6 02 06 18 15 13 09
  20871312.852      135553.645 7    159368.888 3
  21436824.891    -3979218.196 7  -3052990.490 2
  23747182.828     7004914.389 5   5383249.749 1
  23974587.227    -3676238.679 5  -2815597.071 1
  23420378.258    -6636856.525 6  -4841856.100 1
  24402774.703     -890861.959 2   -382323.164 1
 90 10 24 11  9  0.0000000  0  6 02 06 18 15 13 09
  20872200.797      140219.886 7    163004.929 3
  21431642.953    -4006457.321 7  -3074215.772 2
  23757435.688     7058785.949 5   5425227.564 1
  23970516.313    -3697626.018 5  -2832262.509 1
  23409490.328    -6694073.479 6  -4886440.725 1
  24394264.938     -935547.678 2   -417143.167 1
 90 10 24 11  9 15.0000000  0  6 02 06 18 15 13 09
  20873097.281      144934.271 7    166678.479 3
  21426466.555    -4033658.818 7  -3095411.740 2
  23767689.609     7112674.635 5   5467218.743 1
  23966469.281    -3718917.476 5  -2848853.242 1
  23398612.688    -6751241.781 6  -4930987.427 1
  24385768.359     -980247.642 2   -451974.333 1
 90 10 24 11  9 30.0000000  0  6 02 06 18 15 13 09
  20874004.398      149698.027 7    170390.499 3
  21421295.625    -4060821.231 7  -3116577.249 2
  23777945.242     7166581.088 5   5509223.761 1
  23962436.273    -3740111.459 5  -2865368.011 1
  23387743.836    -6808360.165 6  -4975495.255 1
  24377257.828    -1024960.687 3   -486815.589 1
 90 10 24 11  9 45.0000000  0  6 02 06 18 15 13 09
  20874919.672      154510.955 7    174140.837 3
  21416134.227    -4087944.350 7  -3137712.141 2
  23788207.813     7220505.174 5   5551242.526 1
  23958421.672    -3761207.593 5  -2881806.547 1
  23376884.711    -6865428.156 6  -5019963.798 1
  24368741.539    -1069686.503 2   -521666.860 1
 90 10 24 11 10  0.0000000  0  6 02 06 18 15 13 09
  20875845.594      159376.645 7    177932.285 3
  21410981.922    -4115024.012 7  -3158813.172 2
  23798475.898     7274450.290 5   5593277.665 1
  23954425.578    -3782201.808 5  -2898165.656 1
  23366034.836    -6922441.580 6  -5064389.829 1
  24360230.844    -1114421.475 2   -556525.290 1
 90 10 24 11 10 15.0000000  0  6 02 06 18 15 13 09
  20876780.984      164293.648 7    181763.716 3
  21405836.570    -4142061.523 7  -3179881.357 2
  23808743.445     7328414.510 5   5635327.698 1
  23950446.672    -3803095.269 5  -2914446.268 1
  23355194.164    -6979401.374 6  -5108774.069 1
  24351714.266    -1159166.717 3   -591391.686 1
 90 10 24 11 10 30.0000000  0  6 02 06 18 15 13 09
  20877725.680      169255.654 7    185630.217 3
  21400699.719    -4169063.060 7  -3200921.511 2
  23819016.133     7382391.213 5   5677387.452 1
  23946491.805    -3823893.876 5  -2930652.951 1
  23344365.156    -7036313.433 6  -5153121.109 1
  24343201.742    -1203928.491 3   -626271.001 1
 90 10 24 11 10 45.0000000  0  6 02 06 18 15 13 09
  20878680.352      174272.676 7    189539.582 3
  21395569.445    -4196018.080 7  -3221925.410 2
  23829289.813     7436390.236 5   5719464.608 1
  23942552.047    -3844587.009 5  -2946777.451 1
  23333546.680    -7093167.218 6  -5197422.734 1
  24334678.102    -1248696.407 3   -661155.074 1
 90 10 24 11 11  0.0000000  0  6 02 06 18 15 13 09
  20879645.000      179342.327 7    193489.963 3
  21390447.758    -4222928.608 7  -3242894.650 2
  23839568.063     7490408.778 5   5761556.971 1
  23938634.367    -3865177.086 5  -2962821.652 1
  23322738.555    -7149964.904 6  -5241680.677 1
  24326161.188    -1293472.790 3   -696045.761 1
 90 10 24 11 11 15.0000000  0  6 02 06 18 15 13 09
  20880618.000      184458.093 7    197476.273 3
  21385335.930    -4249801.120 7  -3263834.263 2
  23849853.031     7544440.109 5   5803659.301 1
  23934736.961    -3885670.339 5  -2978790.404 1
  23311938.531    -7206712.905 6  -5285899.879 1
  24317640.227    -1338263.940 3   -730947.968 1
 90 10 24 11 11 30.0000000  0  6 02 06 18 15 13 09
  20881600.594      189623.678 7    201501.403 3
  21380228.602    -4276631.553 7  -3284741.085 2
  23860136.688     7598487.594 5   5845774.212 1
  23930853.031    -3906062.315 5  -2994680.243 1
  23301150.094    -7263406.829 6  -5330076.945 1
  24309106.383    -1383066.047 3   -765858.680 1
 90 10 24 11 11 45.0000000  0  6 02 06 18 15 13 09
  20882592.969      194837.562 7    205564.164 3
  21375131.727    -4303421.061 7  -3305616.023 2
  23870423.773     7652549.525 5   5887900.376 1
  23926990.227    -3926354.272 5  -3010492.137 1
  23290371.273    -7320047.592 6  -5374212.596 1
  24300585.953    -1427880.389 4   -800778.926 1
 90 10 24 11 12  0.0000000  0  6 02 06 18 15 13 09
  20883595.273      200099.652 7    209664.497 3
  21370040.344    -4330169.247 7  -3326458.760 2
  23880714.539     7706625.718 5   5930037.655 1
  23923149.820    -3946546.042 5  -3026225.959 1
  23279604.914    -7376634.910 6  -5418306.583 1
  24292053.023    -1472706.564 4   -835708.410 1
 90 10 24 11 12 15.0000000  0  6 02 06 18 15 13 09
  20884606.820      205415.608 7    213806.796 3
  21364959.859    -4356870.304 7  -3347264.772 2
  23891009.969     7760721.696 5   5972190.357 1
  23919327.820    -3966631.699 5  -3041877.110 1
  23268845.523    -7433162.553 6  -5462354.078 1
  24283522.219    -1517539.099 4   -870642.834 1
 90 10 24 11 12 30.0000000  0  6 02 06 18 15 13 09
  20885626.234      210775.707 7    217983.496 3
  21359888.242    -4383533.472 7  -3368041.257 2
  23901305.234     7814827.307 5   6014350.558 1
  23915523.563    -3986620.236 5  -3057452.574 1
  23258099.477    -7489639.618 6  -5506362.168 1
  24274986.844    -1562387.105 5   -905589.318 1
 90 10 24 11 12 45.0000000  0  6 02 06 18 15 13 09
  20886657.070      216186.170 7    222199.445 3
  21354819.555    -4410152.314 7  -3388783.212 2
  23911602.484     7868948.432 5   6056522.864 1
  23911740.859    -4006505.195 5  -3072947.324 1
  23247363.906    -7546059.543 6  -5550325.721 1
  24266450.633    -1607244.384 5   -940543.043 1
 90 10 24 11 13  0.0000000  0  6 02 06 18 15 13 09
  20887696.453      221652.327 7    226458.786 3
  21349764.773    -4436721.185 7  -3409486.222 2
  23921905.367     7923090.153 5   6098711.209 1
  23907978.195    -4026280.793 5  -3088356.871 1
  23236639.547    -7602416.696 6  -5594240.372 1
  24257914.063    -1652105.368 5   -975499.658 1
 90 10 24 11 13 15.0000000  0  6 02 06 18 15 13 09
  20888746.664      227167.672 7    230756.459 3
  21344718.242    -4463246.562 7  -3430155.338 2
  23932210.508     7977245.446 5   6140910.130 1
  23904234.180    -4045953.500 5  -3103686.226 1
  23225925.789    -7658717.327 6  -5638110.961 1
  24249378.891    -1696976.738 5  -1010464.344 1
 90 10 24 11 13 30.0000000  0  6 02 06 18 15 13 09
  20889804.125      232723.965 7    235086.043 3
  21339678.078    -4489735.864 7  -3450796.355 2
  23942517.594     8031406.172 5   6183113.285 1
  23900508.203    -4065530.791 5  -3118941.239 1
  23215219.672    -7714968.961 6  -5681943.393 1
  24240836.922    -1741865.982 5  -1045442.968 1
 90 10 24 11 13 45.0000000  0  6 02 06 18 15 13 09
  20890868.234      238320.344 7    239446.858 3
  21334642.750    -4516189.841 7  -3471409.837 2
  23952825.734     8085571.000 5   6225319.632 1
  23896802.945    -4085013.389 5  -3134122.470 1
  23204524.852    -7771171.969 6  -5725737.908 1
  24232290.219    -1786774.009 5  -1080436.252 1
 90 10 24 11 14  0.0000000  0  6 02 06 18 15 13 09
  20891943.758      243971.616 7    243850.448 3
  21329618.797    -4542593.541 7  -3491984.144 2
  23963137.375     8139754.338 5   6267540.419 1
  23893115.227    -4104386.201 5  -3149218.153 1
  23193841.461    -7827311.467 6  -5769482.966 1
  24223741.563    -1831685.766 5  -1115432.418 1
 90 10 24 11 14 15.0000000  0  6 02 06 18 15 13 09
  20893029.383      249675.852 7    248295.310 3
  21324602.125    -4568948.545 7  -3512520.507 2
  23973451.422     8193954.052 5   6309773.933 1
  23889449.781    -4123650.781 5  -3164229.485 1
  23183171.406    -7883388.859 6  -5813179.609 1
  24215195.367    -1876603.123 5  -1150432.970 1
 90 10 24 11 14 30.0000000  0  6 02 06 18 15 13 09
  20894124.500      255429.689 7    252778.816 3
  21319595.719    -4595257.679 7  -3533021.124 2
  23983767.859     8248167.027 5   6352017.793 1
  23885801.328    -4142810.034 5  -3179158.759 1
  23172513.984    -7939406.752 6  -5856829.895 1
  24206642.641    -1921528.960 4  -1185440.080 1
 90 10 24 11 14 45.0000000  0  6 02 06 18 15 13 09
  20895227.125      261228.683 7    257297.517 3
  21314598.750    -4621525.153 7  -3553489.285 2
  23994085.813     8302388.306 5   6394268.142 1
  23882174.563    -4161868.038 5  -3194009.137 1
  23161862.156    -7995369.366 6  -5900437.115 1
  24198095.070    -1966467.485 5  -1220457.076 1
 90 10 24 11 15  0.0000000  0  6 02 06 18 15 13 09
  20896340.148      267076.820 7    261854.505 3
  21309608.586    -4647746.606 7  -3573921.579 2
  24004408.070     8356621.374 5   6436527.661 1
  23878571.641    -4180820.513 5  -3208777.282 1
  23151224.883    -8051272.022 6  -5943997.601 1
  24189536.586    -2011414.696 4  -1255480.885 1
 90 10 24 11 15 15.0000000  0  6 02 06 18 15 13 09
  20897463.227      272977.069 7    266452.101 3
  21304626.961    -4673918.898 7  -3594315.566 2
  24014727.391     8410869.029 5   6478798.569 1
  23874983.695    -4199663.902 5  -3223460.430 1
  23140599.141    -8107111.691 6  -5987509.031 1
  24180985.625    -2056367.396 5  -1290508.916 1
 90 10 24 11 15 30.0000000  0  6 02 06 18 15 13 09
  20898595.227      278926.698 7    271088.173 3
  21299655.945    -4700044.616 7  -3614673.263 2
  24025053.906     8465128.024 5   6521078.266 1
  23871418.680    -4218400.912 5  -3238060.683 1
  23129984.516    -8162890.836 6  -6030973.283 1
  24172433.188    -2101328.259 5  -1325543.335 1
 90 10 24 11 15 45.0000000  0  6 02 06 18 15 13 09
  20899735.133      284917.550 7    275756.367 3
  21294690.836    -4726131.418 7  -3635000.631 2
  24035377.078     8519390.125 5   6563360.430 1
  23867870.289    -4237039.351 5  -3252584.115 1
  23119380.344    -8218616.992 6  -6074396.242 1
  24163872.609    -2146304.974 5  -1360590.089 1
 90 10 24 11 16  0.0000000  0  6 02 06 18 15 13 09
  20900884.000      290956.974 7    280462.412 3
  21289735.281    -4752171.548 7  -3655291.639 2
  24045703.305     8573662.688 5   6605650.724 1
  23864345.031    -4255571.317 5  -3267024.598 1
  23108787.461    -8274282.126 6  -6117771.645 1
  24155309.055    -2191290.133 5  -1395643.446 1
 90 10 24 11 16 15.0000000  0  6 02 06 18 15 13 09
  20902043.922      297048.959 7    285209.411 3
  21284791.305    -4778160.810 7  -3675543.006 2
  24056034.383     8627949.006 5   6647951.745 1
  23860840.813    -4273992.584 5  -3281378.816 1
  23098204.602    -8329882.036 6  -6161096.251 1
  24146750.133    -2236279.583 5  -1430700.135 1
 90 10 24 11 16 30.0000000  0  6 02 06 18 15 13 09
  20903212.633      303196.686 7    289999.847 3
  21279855.398    -4804095.593 7  -3695751.923 2
  24066370.422     8682252.341 5   6690266.012 1
  23857359.406    -4292299.315 6  -3295643.785 1
  23087639.352    -8385412.986 6  -6204367.103 1
  24138187.328    -2281269.584 5  -1465757.254 1
 90 10 24 11 16 45.0000000  0  6 02 06 18 15 13 09
  20904392.133      309389.509 7    294825.422 3
  21274928.313    -4829986.019 7  -3715926.278 2
  24076705.438     8736561.769 5   6732585.060 1
  23853893.688    -4310501.885 5  -3309827.587 1
  23077083.141    -8440885.032 6  -6247592.050 1
  24129625.813    -2326270.694 5  -1500823.051 1
 90 10 24 11 17  0.0000000  0  6 02 06 18 15 13 09
  20905579.492      315631.667 7    299689.440 3
  21270011.609    -4855827.827 7  -3736062.746 2
  24087042.156     8790881.455 5   6774912.074 1
  23850450.398    -4328595.940 5  -3323926.832 1
  23066540.484    -8496293.897 6  -6290767.789 1
  24121058.992    -2371278.502 5  -1535894.050 1
 90 10 24 11 17 15.0000000  0  6 02 06 18 15 13 09
  20906778.531      321926.310 7    304594.354 3
  21265103.133    -4881617.495 7  -3756158.587 2
  24097381.539     8845213.887 5   6817249.018 1
  23847030.234    -4346577.814 6  -3337938.666 1
  23056008.320    -8551635.716 6  -6333891.258 1
  24112494.234    -2416289.785 5  -1570967.762 1
 90 10 24 11 17 30.0000000  0  6 02 06 18 15 13 09
  20907987.430      328275.037 7    309541.417 3
  21260207.000    -4907353.189 7  -3776212.370 2
  24107724.336     8899560.143 5   6859596.723 1
  23843626.203    -4364445.683 5  -3351861.667 1
  23045491.023    -8606908.640 6  -6376961.076 1
  24103928.734    -2461302.769 5  -1606042.788 1
 90 10 24 11 17 45.0000000  0  6 02 06 18 15 13 09
  20909203.898      334677.177 7    314530.097 3
  21255320.852    -4933035.264 7  -3796224.368 2
  24118067.477     8953919.437 5   6901954.628 1
  23840248.117    -4382199.865 6  -3365696.079 1
  23034985.844    -8662112.952 6  -6419977.401 1
  24095361.750    -2506317.848 4
 90 10 24 11 18  0.0000000  0  6 02 06 18 15 13 09
  20910430.461      341123.317 7    319553.063 3
  21250442.625    -4958672.751 7  -3816201.626 2
  24128411.438     9008282.397 5   6944315.345 1
  23836888.047    -4399849.523 5  -3379449.041 1
  23024491.625    -8717257.702 6  -6462947.313 1
  24086792.273    -2551344.179 4
 90 10 24 11 18 15.0000000  0  6 02 06 18 15 13 09
  20911666.750      347617.922 7    324613.793 3
  21245571.609    -4984260.840 7  -3836140.387 2
  24138756.703     9062653.076 5   6986682.104 1
  23833552.836    -4417389.851 5  -3393116.816 1
  23014010.242    -8772337.716 6  -6505866.793 1
  24078224.281    -2596377.029 4
 90 10 24 11 18 30.0000000  0  6 02 06 18 15 13 09
  20912911.672      354158.509 7    329710.355 3
  21240712.766    -5009801.661 7  -3856042.324 2
  24149103.141     9117028.715 5   7029052.720 1
  23830235.156    -4434822.835 5  -3406700.951 1
  23003540.508    -8827355.188 6  -6548737.533 1
  24069648.820    -2641418.829 4        -0.44811
 90 10 24 11 18 45.0000000  0  6 02 06 18 15 13 09
  20914164.945      360740.402 7    334839.101 3
  21235859.914    -5035299.895 7  -3875911.072 2
  24159451.625     9171404.120 5   7071423.157 1
  23826935.023    -4452152.947 5  -3420204.926 1
  22993082.078    -8882314.519 6  -6591562.961 1
  24061074.102    -2686474.173 4    -35108.506 1
 90 10 24 11 19  0.0000000  0  6 02 06 18 15 13 09
  20915425.203      367372.031 7    340006.607 3
  21231015.711    -5060746.455 7  -3895739.558 2
  24169799.523     9225787.642 5   7113799.930 1
  23823660.656    -4469371.200 6  -3433621.727 1
  22982636.828    -8937206.673 6  -6634336.057 1
  24052504.602    -2731534.068 5    -70220.080 1
 90 10 24 11 19 15.0000000  0  6 02 06 18 15 13 09
  20916694.695      374045.910 7    345207.023 3
  21226183.789    -5086148.478 7  -3915533.335 2
  24180148.281     9280171.559 5   7156176.985 1
  23820404.078    -4486484.857 6  -3446957.032 1
  22972201.328    -8992038.596 6  -6677062.217 1
  24043928.219    -2776605.698 5   -105340.823 1
 90 10 24 11 19 30.0000000  0  6 02 06 18 15 13 09
  20917975.508      380773.373 7    350449.203 3
  21221361.391    -5111494.489 7  -3935283.469 2
  24190499.391     9334567.235 5   7198563.212 1
  23817168.906    -4503482.280 6  -3460201.764 1
  22961784.172    -9046798.790 6  -6719732.480 1
  24035350.461    -2821677.725 5   -140461.845 1
 90 10 24 11 19 45.0000000  0  6 02 06 18 15 13 09
  20919263.633      387539.141 7    355721.229 3
  21216545.539    -5136799.454 7  -3955001.616 2
  24200850.859     9388958.886 5   7240946.316 1
  23813954.344    -4520378.338 6  -3473367.511 1
  22951372.359    -9101501.967 6  -6762358.318 1
  24026770.508    -2866765.272 4   -175594.973 1
 90 10 24 11 20  0.0000000  0  6 02 06 18 15 13 09
  20920560.594      394354.270 7    361031.719 3
  21211741.531    -5162051.949 7  -3974678.883 2
  24211202.164     9443357.073 5   7283334.502 1
  23810757.977    -4537162.105 5  -3486445.754 1
  22940976.336    -9156136.631 6  -6804930.769 1
  24018188.656    -2911857.110 4   -210731.422 1
 90 10 24 11 20 15.0000000  0  6 02 06 18 15 13 09
  20921866.898      401218.943 7    366380.815 3
  21206944.422    -5187251.334 7  -3994314.764 2
  24221556.516     9497761.898 5   7325727.852 1
  23807586.922    -4553832.766 5  -3499435.857 1
  22930592.133    -9210702.000 6  -6847449.219 1
  24009611.461    -2956952.717 4   -245870.819 1
 90 10 24 11 20 30.0000000  0  6 02 06 18 15 13 09
  20923182.195      408135.419 7    371770.278 3
  21202157.781    -5212395.109 7  -4013907.305 2
  24231911.727     9552175.599 5   7368128.138 1
  23804435.859    -4570387.490 5  -3512335.636 1
  22920222.609    -9265195.462 6  -6889911.642 1
  24001032.906    -3002049.528 5   -281011.159 1
 90 10 24 11 20 45.0000000  0  6 02 06 18 15 13 09
  20924506.984      415093.903 7    377192.471 3
  21197383.859    -5237492.774 7  -4033463.926 2
  24242267.305     9606587.744 5   7410527.212 1
  23801306.563    -4586835.798 6  -3525152.483 1
  22909864.594    -9319626.593 6  -6932325.488 1
  23992445.875    -3047157.173 4   -316159.949 1
 90 10 24 11 21  0.0000000  0  6 02 06 18 15 13 09
  20925840.758      422099.523 7    382651.397 3
  21192617.500    -5262538.781 7  -4052980.291 3
  24252621.516     9661003.319 5   7452928.919 1
  23798198.852    -4603172.437 5  -3537882.326 1
  22899520.703    -9373989.754 6  -6974686.379 1
  23983861.688    -3092270.230 4   -351312.929 1
 90 10 24 11 21 15.0000000  0  6 02 06 18 15 13 09
  20927182.695      429153.356 7    388147.893 3
  21187861.094    -5287531.706 7  -4072455.292 3
  24262975.930     9715423.249 5   7495334.053 1
  23795108.203    -4619395.686 5  -3550523.801 1
  22889189.367    -9428283.342 6  -7016993.054 1
  23975271.359    -3137387.341 4   -386469.097 1
 90 10 24 11 21 30.0000000  0  6 02 06 18 15 13 09
  20928532.758      436248.956 7    393676.933 3
  21183112.938    -5312477.764 7  -4091893.774 2
  24273331.742     9769840.739 5   7537737.305 1
  23792044.320    -4635511.874 6  -3563081.862 1
  22878868.805    -9482513.430 6  -7059250.251 1
  23966685.500    -3182514.889 4   -421633.380 1
 90 10 24 11 21 45.0000000  0  6 02 06 18 15 13 09
  20929891.266      443389.667 7    399241.125 3
  21178376.633    -5337373.277 7  -4111292.873 2
  24283686.992     9824258.809 5   7580140.980 1
  23788997.547    -4651517.200 5  -3575553.528 1
  22868561.250    -9536676.283 6  -7101455.054 1
  23958099.438    -3227649.222 5   -456802.950 1
 90 10 24 11 22  0.0000000  0  6 02 06 18 15 13 09
  20931259.156      450575.034 7    404840.114 3
  21173648.570    -5362218.351 7  -4130652.667 3
  24294043.898     9878676.580 5   7622544.431 1
  23785974.953    -4667412.202 5  -3587939.231 1
  22858266.883    -9590772.104 6  -7143607.639 1
  23949506.086    -3272790.649 4   -491978.075 1
 90 10 24 11 22 15.0000000  0  6 02 06 18 15 13 09
  20932635.344      457808.808 7    410476.821 3
  21168932.227    -5387009.012 7  -4149970.060 2
  24304399.961     9933097.855 5   7664950.584 1
  23782973.164    -4683192.264 5  -3600235.375 1
  22847986.867    -9644796.591 6  -7185704.605 1
  23940915.164    -3317935.236 5   -527155.673 1
 90 10 24 11 22 30.0000000  0  6 02 06 18 15 13 09
  20934022.172      465088.089 7    416148.989 3
  21164223.242    -5411747.883 7  -4169247.098 3
  24314754.172     9987519.301 5   7707356.926 1
  23779990.453    -4698860.314 5  -3612444.226 1
  22837719.016    -9698752.220 6  -7227747.956 1
  23932324.367    -3363085.741 5   -562337.852 1
 90 10 24 11 22 45.0000000  0  6 02 06 18 15 13 09
  20935414.977      472409.226 7    421853.771 3
  21159523.703    -5436438.233 7  -4188486.330 3
  24325112.297    10041936.852 5   7749760.178 1
  23777029.438    -4714419.661 5  -3624568.381 1
  22827465.469    -9752642.411 6  -7269740.285 1
  23923735.680    -3408245.568 5   -597527.302 1
 90 10 24 11 23  0.0000000  0  6 02 06 18 15 13 09
  20936815.414      479778.232 7    427595.852 3
  21154836.352    -5461074.014 7  -4207683.039 2
  24335466.391    10096356.272 5   7792164.918 1
  23774087.320    -4729864.087 5  -3636602.979 1
  22817221.836    -9806460.528 6  -7311676.464 1
  23915137.844    -3453408.578 4   -632719.236 1
 90 10 24 11 23 15.0000000  0  6 02 06 18 15 13 09
  20938226.609      487193.720 7    433374.154 3
  21150159.391    -5485655.885 7  -4226837.739 3
  24345822.633    10150776.040 5   7834569.909 1
  23771171.164    -4745194.465 5  -3648548.720 1
  22806994.773    -9860207.512 6  -7353557.222 1
  23906540.078    -3498575.786 4   -667914.422 1
 90 10 24 11 23 30.0000000  0  6 02 06 18 15 13 09
  20939647.781      494662.664 7    439194.109 3
  21145494.508    -5510176.501 7  -4245944.710 2
  24356178.914    10205203.082 5   7876980.579 1
  23768278.336    -4760403.362 5  -3660399.797 1
  22796781.188    -9913875.959 6  -7395376.783 1
  23897944.688    -3543739.822 4   -703107.188 1
 90 10 24 11 23 45.0000000  0  6 02 06 18 15 13 09
  20941079.141      502176.659 7    445049.168 3
  21140837.250    -5534643.964 7  -4265010.259 3
  24366536.125    10259628.646 5   7919390.117 1
  23765405.828    -4775498.923 5  -3672162.564 1
  22786583.203    -9967473.654 6  -7437141.201 1
  23889352.070    -3588908.738 4   -738303.721 1
 90 10 24 11 24  0.0000000  0  6 02 06 18 15 13 09
  20942517.164      509737.448 7    450940.693 3
  21136191.820    -5559056.304 7  -4284032.866 2
  24376893.320    10314054.002 5   7961799.451 1
  23762559.094    -4790479.466 6  -3683835.696 1
  22776397.039   -10020998.773 6  -7478849.059 1
  23880757.773    -3634080.962 4   -773502.842 1
 90 10 24 11 24 15.0000000  0  6 02 06 18 15 13 09
  20943962.758      517342.376 7    456866.609 3
  21131556.625    -5583416.068 7  -4303014.494 2
  24387251.414    10368475.993 5   8004206.181 1
  23759728.953    -4805346.982 6  -3695420.773 1
  22766225.133   -10074453.666 6  -7520502.221 1
  23872158.633    -3679258.774 5   -808706.319 1
 90 10 24 11 24 30.0000000  0  6 02 06 18 15 13 09
  20945420.430      524996.292 7    462830.699 3
  21126931.711    -5607717.997 7  -4321951.057 2
  24397607.555    10422899.450 5   8046614.043 1
  23756918.891    -4820096.749 5  -3706914.095 1
  22756067.422   -10127833.085 6  -7562096.556 1
  23863561.820    -3724437.178 4   -843910.234 1
 90 10 24 11 24 45.0000000  0  6 02 06 18 15 13 09
  20946885.320      532694.385 7    468829.212 3
  21122316.938    -5631966.394 7  -4340845.908 2
  24407959.461    10477319.239 5   8089019.052 1
  23754135.594    -4834733.127 5  -3718319.044 1
  22745923.977   -10181141.291 6  -7603635.393 1
  23854966.063    -3769620.729 5   -879118.198 1
 90 10 24 11 25  0.0000000  0  6 02 06 18 15 13 09
  20948360.430      540444.066 7    474867.923 3
  21117715.617    -5656153.580 7  -4359693.059 2
  24418315.195    10531742.626 5   8131426.866 1
  23751372.656    -4849248.173 5  -3729629.452 1
  22735792.844   -10234370.266 6  -7645112.504 1
  23846366.375    -3814801.635 4   -914324.067 1
 90 10 24 11 25 15.0000000  0  6 02 06 18 15 13 09
  20949843.305      548240.827 7    480943.324 3
  21113122.586    -5680283.869 7  -4378495.875 2
  24428671.984    10586164.761 5   8173833.712 1
  23748631.039    -4863646.256 5  -3740848.737 1
  22725677.555   -10287524.413 6  -7686531.314 1
  23837763.875    -3859984.367 5   -949531.371 1
 90 10 24 11 25 30.0000000  0  6 02 06 18 15 13 09
  20951336.906      556081.270 7    487052.760 3
  21108541.664    -5704360.275 7  -4397256.708 3
  24439027.023    10640582.219 5   8216236.927 1
  23745914.164    -4877930.193 5  -3751979.063 1
  22715577.422   -10340606.495 6  -7727893.962 1
  23829171.891    -3905172.084 5   -984742.565 1
 90 10 24 11 25 45.0000000  0  6 02 06 18 15 13 09
  20952836.977      563966.211 7    493196.868 3
  21103971.422    -5728381.568 7  -4415974.589 2
  24449382.227    10694995.316 5   8258636.697 1
  23743219.086    -4892099.125 5  -3763019.783 1
  22705489.320   -10393615.361 6  -7769199.558 1
  23820573.273    -3950363.612 5  -1019956.722 1
 90 10 24 11 26  0.0000000  0  6 02 06 18 15 13 09
  20954346.938      571901.757 7    499380.408 3
  21099411.141    -5752341.385 7  -4434644.574 2
  24459736.016    10749410.086 5   8301037.786 1
  23740545.234    -4906146.431 5  -3773965.724 1
  22695419.125   -10446544.624 6  -7810443.123 1
  23811970.875    -3995552.783 5  -1055169.048 1
 90 10 24 11 26 15.0000000  0  6 02 06 18 15 13 09
  20955864.016      579881.364 7    505598.283 3
  21094862.844    -5776245.923 7  -4453271.476 2
  24470091.938    10803819.668 5   8343434.853 1
  23737894.141    -4920078.663 6  -3784822.009 1
  22685360.320   -10499400.339 6  -7851629.388 1
  23803372.961    -4040745.692 5  -1090384.272 1
 90 10 24 11 26 30.0000000  0  6 02 06 18 15 13 09
  20957391.563      587902.841 7    511848.789 3
  21090323.906    -5800097.185 7  -4471856.869 2
  24480443.617    10858221.160 5   8385825.619 1
  23735264.641    -4933897.742 6  -3795590.107 1
  22675315.516   -10552184.307 6  -7892759.733 1
  23794773.750    -4085944.634 5  -1125604.188 1
 90 10 24 11 26 45.0000000  0  6 02 06 18 15 13 09
  20958926.219      595968.751 7    518133.916 3
  21085795.344    -5823892.130 7  -4490398.375 2
  24490794.180    10912617.008 5   8428211.969 1
  23732654.984    -4947600.485 5  -3806267.559 1
  22665285.758   -10604893.589 6  -7933831.883 1
  23786169.047    -4131146.492 5  -1160826.396 1
 90 10 24 11 27  0.0000000  0  6 02 06 18 15 13 09
  20960469.203      604081.449 7    524455.497 3
  21081278.375    -5847627.967 7  -4508893.825 2
  24501146.320    10967009.638 5   8470595.813 1
  23730072.078    -4961184.228 6  -3816852.279 1
  22655270.469   -10657525.181 6  -7974843.499 1
  23777565.547    -4176348.664 5  -1196048.836 1
 90 10 24 11 27 15.0000000  0  6 02 06 18 15 13 09
  20962024.203      612248.753 7    530819.632 3
  21076774.445    -5871296.695 7  -4527336.984 2
  24511498.898    11021406.612 5   8512983.029 1
  23727509.570    -4974641.040 5  -3827338.094 1
  22645270.164   -10710071.072 6  -8015788.340 1
  23768968.078    -4221543.391 5  -1231265.479 1
 90 10 24 11 27 30.0000000  0  6 02 06 18 15 13 09
  20963588.016      620463.243 7    537220.531 3
  21072282.227    -5894905.548 7  -4545733.486 2
  24521847.813    11075799.820 5   8555367.343 1
  23724972.555    -4987977.918 5  -3837730.451 1
  22635285.492   -10762538.483 6  -8056672.023 1
  23760368.961    -4266737.577 5  -1266481.694 1
 90 10 24 11 27 45.0000000  0  6 02 06 18 15 13 09
  20965158.750      628721.249 7    543655.341 3
  21067801.273    -5918457.771 7  -4564085.863 2
  24532196.102    11130185.573 5   8597745.844 1
  23722455.453    -5001198.288 5  -3848032.038 1
  22625318.000   -10814930.273 6  -8097496.782 1
  23751764.461    -4311934.871 5  -1301700.341 1
 90 10 24 11 28  0.0000000  0  6 02 06 18 15 13 09
  20966738.586      637020.167 7    550122.030 3
  21063328.516    -5941955.475 7  -4582395.755 2
  24542543.492    11184561.047 5   8640116.307 1
  23719962.188    -5014304.619 6  -3858244.744 1
  22615362.234   -10867248.675 6  -8138264.350 1
  23743163.922    -4357137.357 5  -1336923.065 1
 90 10 24 11 28 15.0000000  0  6 02 06 18 15 13 09
  20968327.844      645371.972 7    556629.929 3
  21058870.586    -5965386.540 7  -4600653.723 2
  24552888.977    11238938.058 4   8682487.951 1
  23717490.727    -5027284.301 6  -3868358.777 1
  22605420.430   -10919481.488 6  -8178965.232 1
  23734563.469    -4402333.119 5  -1372140.515 1
 90 10 24 11 28 30.0000000  0  6 02 06 18 15 13 09
  20969925.086      653770.651 7    563174.355 3
  21054423.148    -5988756.677 7  -4618864.214 3
  24563236.586    11293310.209 4   8724855.847 1
  23715043.383    -5040143.461 6  -3878378.898 1
  22595496.445   -10971634.316 6  -8219603.783 1
  23725963.023    -4447527.773 5  -1407357.137 1
 90 10 24 11 28 45.0000000  0  6 02 06 18 15 13 09
  20971532.305      662213.082 7    569752.869 3
  21049986.414    -6012068.518 7  -4637029.282 3
  24573584.555    11347673.916 5   8767217.169 1
  23712618.172    -5052884.965 5  -3888307.325 1
  22585586.633   -11023709.940 6  -8260182.178 1
  23717361.336    -4492724.225 5  -1442575.129 1
 90 10 24 11 29  0.0000000  0  6 02 06 18 15 13 09
  20973146.719      670697.207 7    576363.874 3
  21045561.023    -6035323.976 7  -4655150.419 3
  24583927.883    11402026.935 5   8809570.148 1
  23710214.625    -5065510.582 5  -3898145.454 1
  22575691.734   -11075710.005 6  -8300701.699 1
  23708764.539    -4537924.478 5  -1477796.085 1
 90 10 24 11 29 15.0000000  0  6 02 06 18 15 13 09
  20974774.773      679245.871 7    583025.171 3
  21041151.141    -6058499.944 7  -4673209.610 3
  24594277.297    11456391.737 4   8851932.304 1
  23707841.672    -5077996.897 6  -3907875.049 1
  22565815.383   -11127611.131 6  -8341144.123 1
  23700162.609    -4583105.193 5  -1513001.822 1
 90 10 24 11 29 30.0000000  0  6 02 06 18 15 13 09
  20976410.758      687849.149 7    589729.020 3
  21036753.797    -6081605.766 7  -4691214.143 3
  24604617.805    11510758.167 4   8894295.715 1
  23705492.172    -5090353.816 6  -3917503.806 1
  22555955.695   -11179423.174 6  -8381517.132 1
  23691563.711    -4628276.336 5  -1548200.088 1
 90 10 24 11 29 45.0000000  0  6 02 06 18 15 13 09
  20978055.391      696496.139 7    596466.932 3
  21032367.523    -6104652.099 7  -4709172.323 3
  24614960.969    11565115.313 5   8936651.942 1
  23703162.508    -5102591.750 6  -3927039.849 1
  22546111.773   -11231156.206 6  -8421828.570 1
  23682969.297    -4673448.222 5  -1583398.955 1
 90 10 24 11 30  0.0000000  0  6 02 06 18 15 13 09
  20979710.141      705187.363 7    603239.316 3
  21027992.922    -6127638.254 7  -4727083.609 3
  24625305.695    11619463.380 5   8979001.057 1
  23700853.828    -5114710.174 5  -3936482.761 1
  22536283.547   -11282809.413 6  -8462077.808 1
  23674374.719    -4718620.353 5  -1618597.998 1
 90 10 24 11 30 15.0000000  0  6 02 06 18 15 13 09
  20981371.719      713920.681 7    610044.500 3
  21023631.250    -6150565.835 7  -4744949.257 3
  24635646.313    11673800.020 5   9021341.253 1
  23698569.938    -5126710.503 6  -3945833.665 1
  22526467.945   -11334384.519 6  -8502266.194 1
  23665780.258    -4763794.274 5  -1653798.446 1
 90 10 24 11 30 30.0000000  0  6 02 06 18 15 13 09
  20983044.508      722707.815 7    616891.616 3
  21019281.391    -6173422.871 7  -4762759.935 3
  24645984.695    11728136.540 5   9063681.407 1
  23696312.164    -5138581.155 6  -3955083.517 1
  22516670.383   -11385869.525 6  -8542384.374 1
  23657183.828    -4808958.459 5  -1688991.284 1
 90 10 24 11 30 45.0000000  0  6 02 06 18 15 13 09
  20984723.680      731539.013 7    623773.071 3
  21014944.141    -6196218.741 7  -4780522.942 3
  24656322.141    11782462.716 5   9106013.455 1
  23694078.945    -5150331.302 6  -3964239.457 1
  22506887.836   -11437273.916 6  -8582439.722 1
  23648584.719    -4854122.228 5  -1724183.834 1
 90 10 24 11 31  0.0000000  0  6 02 06 18 15 13 09
  20986414.953      740416.300 7    630690.434 3
  21010617.570    -6218951.133 7  -4798236.493 3
  24666654.352    11836780.362 4   9148338.849 1
  23691865.523    -5161958.880 6  -3973299.897 1
  22497123.398   -11488595.119 6  -8622430.257 1
  23639998.313    -4899283.323 5  -1759374.292 1
 90 10 24 11 31 15.0000000  0  6 02 06 18 15 13 09
  20988112.500      749338.427 7    637642.740 3
  21006304.883    -6241621.153 7  -4815901.433 3
  24676992.055    11891088.179 4   9190656.599 1
  23689674.555    -5173464.960 6  -3982265.664 1
  22487372.641   -11539833.907 6  -8662356.580 1
  23631401.359    -4944442.714 5  -1794563.395 1
 90 10 24 11 31 30.0000000  0  6 02 06 18 15 13 09
  20989819.750      758308.644 7    644632.520 3
  21002002.836    -6264225.161 7  -4833514.947 3
  24687321.727    11945389.148 4   9232969.006 1
  23687510.648    -5184845.804 6  -3991133.845 1
  22477638.719   -11590986.870 6  -8702216.021 1
  23622811.766    -4989597.107 5  -1829748.617 1
 90 10 24 11 31 45.0000000  0  6 02 06 18 15 13 09
  20991533.906      767322.390 7    651656.221 3
  20997713.234    -6286767.451 7  -4851080.361 3
  24697654.422    11999678.261 4   9275272.201 1
  23685365.938    -5196105.915 6  -3999907.943 1
  22467920.508   -11642058.245 6  -8742011.884 1
  23614214.555    -5034750.876 5  -1864933.365 1
 90 10 24 11 32  0.0000000  0  6 02 06 18 15 13 09
  20993255.617      776363.037 7    658700.876 3
  20993432.258    -6309264.091 7  -4868610.208 3
  24707982.789    12053938.711 4   9317553.061 1
  23683243.133    -5207261.692 6  -4008600.744 1
  22458214.727   -11693064.121 6  -8781756.705 1
  23605620.516    -5079920.258 5  -1900130.281 1
 90 10 24 11 32 15.0000000  0  6 02 06 18 15 13 09
  20994988.961      785473.206 7    665799.710 3
  20989168.117    -6331672.432 7  -4886071.249 3
  24718309.891    12108212.631 4   9359844.396 1
  23681149.063    -5218270.017 6  -4017178.650 1
  22448527.563   -11743961.596 6  -8821417.065 1
  23597033.781    -5125062.287 5  -1935305.868 1
 90 10 24 11 32 30.0000000  0  6 02 06 18 15 13 09
  20996731.156      794632.343 7    672936.700 3
  20984917.234    -6354012.396 7  -4903479.006 3
  24728633.156    12162479.635 4   9402130.310 1
  23679078.719    -5229151.387 6  -4025657.628 1
  22438859.859   -11794770.715 6  -8861008.581 1
  23588441.281    -5170197.356 5  -1970476.032 1
 90 10 24 11 32 45.0000000  0  6 02 06 18 15 13 09
  20998484.375      803846.414 7    680116.497 3
  20980680.203    -6376277.795 7  -4920828.660 3
  24738961.648    12216745.136 4   9444415.131 1
  23677032.070    -5239899.380 6  -4034032.680 1
  22429209.477   -11845485.177 6  -8900526.332 1
  23579857.078    -5215319.286 5  -2005635.964 1
 90 10 24 11 33  0.0000000  0  6 02 06 18 15 13 09
  21000246.586      813104.860 7    687330.865 3
  20976454.242    -6398479.030 7  -4938128.322 3
  24749282.531    12270998.274 4   9486690.274 1
  23675010.773    -5250524.393 6  -4042311.893 1
  22419575.977   -11896115.125 6  -8939978.221 1
  23571272.594    -5260438.461 5  -2040793.752 1
 90 10 24 11 33 15.0000000  0  6 02 06 18 15 13 09
  21002013.539      822394.813 7    694569.788 3
  20972239.719    -6420628.493 7  -4955387.637 3
  24759601.016    12325226.240 4   9528945.783 1
  23673013.242    -5261038.919 6  -4050505.017 1
  22409954.117   -11946673.081 6  -8979374.018 1
  23562683.391    -5305567.245 5  -2075959.010 1
 90 10 24 11 33 30.0000000  0  6 02 06 18 15 13 09
  21003788.336      831721.855 7    701837.610 3
  20968035.453    -6442720.241 7  -4972601.985 3
  24769918.609    12379434.065 4   9571185.620 1
  23671031.945    -5271437.136 6  -4058607.518 1
  22400348.766   -11997152.906 6  -9018708.941 1
  23554095.680    -5350699.936 5  -2111127.342 1
 90 10 24 11 33 45.0000000  0  6 02 06 18 15 13 09
  21005572.539      841091.728 7    709138.809 3
  20963843.820    -6464748.409 7  -4989766.781 2
  24780230.820    12433627.114 3   9613413.952 1
  23669078.727    -5281713.135 6  -4066614.779 1
  22390757.820   -12047548.560 6  -9057978.274 1
  23545510.234    -5395830.680 5  -2146294.136 1
 90 10 24 11 34  0.0000000  0  6 02 06 18 15 13 09
  21007363.945      850504.972 7    716473.801 3
  20959665.516    -6486711.724 7  -5006881.055 2
  24790541.055    12487806.029 3   9655631.232 1
  23667142.938    -5291866.179 6  -4074526.228 1
  22381184.117   -12097858.936 6  -9097181.149 1
  23536919.102    -5440958.514 5  -2181458.634 1
 90 10 24 11 34 15.0000000  0  6 02 06 18 15 13 09
  21009163.172      859963.304 7    723843.928 3
  20955498.086    -6508608.479 7  -5023943.458 3
  24800850.703    12541972.001 2   9697838.411 1
  23665236.656    -5301894.171 6  -4082340.234 1
  22371626.977   -12148082.195 6  -9136316.146 1
  23528328.844    -5486081.571 5  -2216619.444 1
 90 10 24 11 34 30.0000000  0  6 02 06 18 15 13 09
  21010970.883      869461.271 7    731244.939 3
  20951342.719    -6530443.722 7  -5040957.929 3
  24811157.086    12596119.448 3   9740031.177 1
  23663351.477    -5311802.477 6  -4090060.988 1
  22362086.555   -12198223.589 6  -9175387.349 1
  23519747.172    -5531205.002 5  -2251780.557 1
 90 10 24 11 34 45.0000000  0  6 02 06 18 15 13 09
  21012786.563      879002.121 7    738679.367 3
  20947200.711    -6552214.050 7  -5057921.820 3
  24821455.375    12650251.167 3   9782211.676 1
  23661486.203    -5321587.784 6  -4097685.893 1
  22352559.805   -12248279.516 6  -9214391.964 1
  23511159.188    -5576325.344 5  -2286939.235 1
 90 10 24 11 35  0.0000000  0  6 02 06 18 15 13 09
  21014611.773      888590.175 7    746150.578 3
  20943070.797    -6573914.682 7  -5074831.401 3
  24831756.234    12704370.994 3   9824382.938 1
  23659651.672    -5331245.510 6  -4105211.388 1
  22343051.719   -12298245.348 6  -9253326.369 1
  23502574.648    -5621438.406 5  -2322092.271 1
 90 10 24 11 35 15.0000000  0  6 02 06 18 15 13 09
  21016442.875      898218.141 7    753652.887 3
  20938952.492    -6595552.517 7  -5091692.050 3
  24842051.188    12758471.695 3   9866539.328 1
  23657836.375    -5340782.247 6  -4112642.603 1
  22333559.727   -12348127.697 6  -9292195.719 1
  23493988.180    -5666550.553 5  -2357244.566 1
 90 10 24 11 35 30.0000000  0  6 02 06 18 15 13 09
  21018283.313      907892.119 7    761191.052 3
  20934849.422    -6617121.353 7  -5108498.933 3
  24852350.688    12812559.000 3   9908685.204 1
  23656044.117    -5350191.885 6  -4119974.777 1
  22324083.773   -12397920.197 6  -9330995.057 1
  23485405.219    -5711655.978 5  -2392391.651 1
 90 10 24 11 35 45.0000000  0  6 02 06 18 15 13 09
  21020132.930      917613.832 7    768766.411 3
  20930757.406    -6638619.074 7  -5125250.401 2
  24862633.188    12866634.277 2   9950821.756 1
  23654278.852    -5359472.634 6  -4127206.534 1
  22314626.313   -12447620.692 6  -9369722.702 1
  23476826.633    -5756752.411 5  -2427531.697 1
 90 10 24 11 36  0.0000000  0  6 02 06 18 15 13 09
  21021992.555      927382.241 7    776378.161 3
  20926679.695    -6660046.297 7  -5141946.938 2
  24872915.703    12920696.499 2   9992948.111 1
  23652536.586    -5368625.182 6  -4134338.374 1
  22305184.586   -12497229.927 6  -9408379.249 1
  23468243.852    -5801840.796 5  -2462665.488 1
 90 10 24 11 36 15.0000000  0  5 02 06 15 13 09
  21023860.906      937196.130 7    784025.344 3
  20922616.148    -6681403.929 7  -5158589.243 3
  23650820.211    -5377650.464 6  -4141371.063 1
  22295763.063   -12546748.645 6  -9446965.251 1
  23459662.773    -5846922.076 5  -2497793.738 1
 90 10 24 11 36 30.0000000  0  6 02 06 18 15 13 09
  21025737.039      947058.472 7    791710.283 3
  20918565.484    -6702688.664 7  -5175174.747 2
  24893482.031          -0.24612
  23649127.492    -5386545.258 6  -4148302.059 1
  22286359.156   -12596173.346 6  -9485477.998 1
  23451088.719    -5891992.849 5  -2532913.811 1
 90 10 24 11 36 45.0000000  0  6 02 06 18 15 13 09
  21027620.242      956958.685 7    799424.731 3
  20914526.953    -6723910.517 7  -5191711.254 2
  24903766.156       54012.789 2
  23647459.477    -5395319.821 6  -4155139.380 1
  22276969.688   -12645514.228 6  -9523925.423 1
  23442515.758    -5937063.459 5  -2568033.726 1
 90 10 24 11 37  0.0000000  0  6 02 06 18 15 13 09
  21029512.273      966900.207 7    807171.368 3
  20910502.477    -6745066.046 7  -5208196.079 3
  24914041.203      108006.190 2
  23645812.805    -5403970.350 6  -4161880.031 1
  22267596.164   -12694767.828 6  -9562304.839 1
  23433936.766    -5982130.247 5  -2603150.681 1
 90 10 24 11 37 15.0000000  0  6 02 06 18 15 13 09
  21031413.492      976889.406 7    814955.159 3
  20906490.555    -6766148.551 7  -5224624.003 3
  24924314.719      161986.085 3
  23644192.367    -5412490.747 6  -4168519.299 1
  22258241.000   -12743927.088 6  -9600610.742 1
  23425365.578    -6027186.725 5  -2638259.619 1
 90 10 24 11 37 30.0000000  0  6 02 06 18 15 13 09
  21033322.688      986921.942 7    822772.717 3
  20902490.852    -6787162.039 7  -5240998.143 3
  24934585.414      215947.758 3
  23642595.844    -5420885.133 6  -4175060.375 1
  22248901.727   -12792996.310 6  -9638846.492 1
  23416790.461    -6072237.031 5  -2673363.710 1
 90 10 24 11 37 45.0000000  0  5 02 06 15 13 09
  21035240.328      996997.815 7    830624.039 3
  20898506.266    -6808106.339 7  -5257318.377 3
  23641020.742    -5429152.941 6  -4181502.816 1
  22239583.297   -12841975.084 7  -9677011.757 1
  23408215.438    -6117280.909 5  -2708462.816 1
 90 10 24 11 38  0.0000000  0  5 02 06 15 13 09
  21037164.234     1007113.333 7    838506.263 3
  20894533.195    -6828984.507 7  -5273587.072 2
  23639469.672    -5437297.473 6  -4187849.198 1
  22230279.672   -12890866.441 6  -9715108.910 1
  23399648.695    -6162321.677 5  -2743559.511 1
 90 10 24 11 38 15.0000000  0  5 02 06 15 13 09
  21039098.070     1017275.325 7    846424.701 3
  20890574.813    -6849789.521 7  -5289798.767 3
  23637942.758    -5445312.065 6  -4194094.326 1
  22220993.555   -12939663.370 7  -9753132.486 1
  23391078.680    -6207352.221 5  -2778648.225 1
 90 10 24 11 38 30.0000000  0  5 02 06 15 13 09
  21041040.992     1027480.630 7    854376.886 3
  20886627.297    -6870524.300 7  -5305955.732 3
  23636442.695    -5453199.852 6  -4200240.653 1
  22211724.195   -12988368.829 6  -9791084.777 1
  23382516.000    -6252375.665 5  -2813731.413 1
 90 10 24 11 38 45.0000000  0  5 02 06 15 13 09
  21042988.922     1037726.034 7    862360.313 3
  20882694.727    -6891191.741 7  -5322060.229 2
  23634965.820    -5460963.366 6  -4206290.143 1
  22202473.094   -13036985.527 6  -9828967.911 1
  23373943.250    -6297394.569 5  -2848811.053 1
 90 10 24 11 39  0.0000000  0  5 02 06 15 13 09
  21044947.469     1048011.025 7    870374.592 3
  20878774.875    -6911791.799 7  -5338112.213 3
  23633512.789    -5468602.858 6  -4212242.982 1
  22193240.234   -13085513.692 7  -9866782.053 1
  23365372.852    -6342409.402 5  -2883887.532 1
 90 10 24 11 39 15.0000000  0  5 02 06 15 13 09
  21046913.656     1058339.534 7    878422.779 3
  20874866.648    -6932320.291 7  -5354108.441 3
  23632082.563    -5476114.599 6  -4218096.283 1
  22184022.023   -13133948.879 7  -9904523.750 1
  23356815.852    -6387415.971 5  -2918957.564 1
 90 10 24 11 39 30.0000000  0  5 02 06 15 13 09
  21048885.375     1068709.444 7    886503.227 3
  20870974.836    -6952779.127 7  -5370050.384 3
  23630678.617    -5483500.177 6  -4223851.271 1
  22174823.305   -13182292.672 7  -9942194.224 1
  23348251.688    -6432416.212 5  -2954022.651 1
 90 10 24 11 39 45.0000000  0  5 02 06 15 13 09
  21050867.156     1079121.710 7    894616.680 3
  20867095.445    -6973167.307 7  -5385937.273 3
  23629295.617    -5490758.492 6  -4229507.090 1
  22165640.680   -13230544.202 7  -9979792.810 1
  23339687.914    -6477409.147 5  -2989082.078 1
 90 10 24 11 40  0.0000000  0  5 02 06 15 13 09
  21052858.055     1089581.086 7    902766.840 3
  20863230.531    -6993479.505 7  -5401764.953 3
  23627939.969    -5497884.781 6  -4235060.051 1
  22156477.203   -13278698.271 7 -10017315.448 1
  23331132.383    -6522389.504 5  -3024131.700 1
 90 10 24 11 40 15.0000000  0  5 02 06 15 13 09
  21054856.453     1100087.317 7    910953.511 3
  20859378.891    -7013715.488 7  -5417533.250 3
  23626607.969    -5504879.152 6  -4240510.201 1
  22147332.633   -13326754.686 7 -10054761.999 1
  23322574.273    -6567357.219 5  -3059171.461 1
 90 10 24 11 40 30.0000000  0  5 02 06 15 13 09
  21056865.172     1110637.579 7    919174.488 3
  20855542.859    -7033877.918 7  -5433244.235 3
  23625302.359    -5511743.669 6  -4245859.167 1
  22138206.305   -13374715.812 7 -10092134.305 1
  23314017.695    -6612314.895 5  -3094203.401 1
 90 10 24 11 40 45.0000000  0  5 02 06 15 13 09
  21058879.859     1121231.513 7    927429.498 3
  20851719.945    -7053966.991 7  -5448898.057 2
  23624022.992    -5518478.738 6  -4251107.266 1
  22129096.203   -13422581.842 7 -10129432.494 1
  23305467.000    -6657262.810 5  -3129227.728 1
 90 10 24 11 41  0.0000000  0  5 02 06 15 13 09
  21060904.883     1131873.413 7    935721.883 3
  20847912.555    -7073977.799 7  -5464490.890 3
  23622764.703    -5525079.938 6  -4256251.054 1
  22120007.719   -13470348.020 7 -10166652.888 1
  23296907.055    -6702196.111 5  -3164240.674 1
 90 10 24 11 41 15.0000000  0  5 02 06 15 13 09
  21062938.727     1142561.115 7    944049.963 3
  20844118.617    -7093912.436 7  -5480024.372 3
  23621532.164    -5531549.499 6  -4261292.255 1
  22110936.594   -13518016.328 7 -10203797.006 1
  23288365.219    -6747116.908 5  -3199243.868 1
 90 10 24 11 41 30.0000000  0  5 02 06 15 13 09
  21064981.266     1153288.939 7    952409.302 3
  20840338.875    -7113776.092 7  -5495502.541 3
  23620328.539    -5537892.831 6  -4266235.099 1
  22101884.641   -13565591.763 7 -10240868.762 1
  23279817.813    -6792030.694 5  -3234241.592 1
 90 10 24 11 41 45.0000000  0  5 02 06 15 13 09
  21067031.484     1164064.220 7    960805.621 3
  20836573.797    -7133561.127 7  -5510919.449 2
  23619145.531    -5544102.098 6  -4271073.498 1
  22092849.141   -13613066.994 7 -10277862.438 1
  23271276.344    -6836929.657 5  -3269227.781 1
 90 10 24 11 42  0.0000000  0  5 02 06 15 13 09
  21069089.617     1174883.202 7    969235.992 3
  20832823.219    -7153271.068 7  -5526277.841 3
  23617989.609    -5550181.049 6  -4275810.332 1
  22083832.820   -13660445.247 7 -10314780.549 1
  23262730.148    -6881817.516 5  -3304205.318 1
 90 10 24 11 42 15.0000000  0  5 02 06 15 13 09
  21071159.211     1185750.764 7    977704.222 3
  20829087.430    -7172900.844 7  -5541573.770 3
  23616857.508    -5556124.707 6  -4280441.760 1
  22074836.898   -13707721.629 7 -10351619.277 1
  23254194.820    -6926689.088 5  -3339170.146 1
 90 10 24 11 42 30.0000000  0  5 02 06 15 13 09
  21073237.906     1196678.185 7    986219.094 3
  20825369.133    -7192438.679 7  -5556798.053 3
  23615754.922    -5561921.190 6  -4284958.486 1
  22065863.148   -13754884.122 7 -10388369.261 1
  23245660.867    -6971532.699 5  -3374113.201 1
 90 10 24 11 42 45.0000000  0  5 02 06 15 13 09
  21075326.031     1207648.131 7    994767.104 3
  20821665.336    -7211901.387 7  -5571963.797 3
  23614674.938    -5567587.966 6  -4289374.151 1
  22056905.234   -13801949.636 7 -10425043.672 1
  23237129.141    -7016365.400 5  -3409047.750 1
 90 10 24 11 43  0.0000000  0  5 02 06 15 13 09
  21077423.078     1218672.207 7   1003357.289 3
  20817978.789    -7231277.384 7  -5587061.972 3
  23613623.813    -5573113.377 6  -4293679.661 1
  22047970.672   -13848906.518 7 -10461633.448 1
  23228602.844    -7061175.395 5  -3443964.606 1
 90 10 24 11 43 15.0000000  0  5 02 06 15 13 09
  21079528.609     1229739.162 7   1011980.889 3
  20814305.867    -7250577.426 7  -5602100.961 3
  23612600.891    -5578508.296 6  -4297883.497 1
  22039054.852   -13895765.650 7 -10498147.041 1
  23220075.820    -7105973.701 5  -3478872.362 1
 90 10 24 11 43 30.0000000  0  5 02 06 15 13 09
  21081644.523     1240847.837 7   1020636.994 3
  20810647.813    -7269802.546 7  -5617081.570 3
  23611594.906    -5583773.612 6  -4301986.325 1
  22030154.273   -13942527.828 7 -10534585.092 1
  23211557.148    -7150761.183 5  -3513771.675 1
 90 10 24 11 43 45.0000000  0  5 02 06 15 13 09
  21083763.898     1251996.340 7   1029324.140 3
  20807003.938    -7288954.362 7  -5632005.065 3
  23610620.133    -5588911.269 6  -4305989.696 1
  22021275.305   -13989194.757 7 -10570948.923 1
  23203029.266    -7195539.704 5  -3548664.012 1
 90 10 24 11 44  0.0000000  0  5 02 06 15 13 09
  21085895.453     1263186.864 7   1038044.020 3
  20803372.938    -7308029.999 7  -5646869.193 3
  23609664.461    -5593918.475 6  -4309891.420 1
  22012413.289   -14035763.611 7 -10607236.330 1
  23194511.172    -7240306.544 5  -3583547.241 1
 90 10 24 11 44 15.0000000  0  5 02 06 15 13 09
  21088031.227     1274419.292 7   1046796.559 3
  20799757.555    -7327029.619 7  -5661674.090 3
  23608737.055    -5598795.625 6  -4313691.785 1
  22003569.953   -14082234.191 7 -10643447.158 1
  23185993.031    -7285061.587 5  -3618421.301 1
 90 10 24 11 44 30.0000000  0  5 02 06 15 13 09
  21090176.367     1285687.358 7   1055576.864 3
  20796154.563    -7345959.082 7  -5676424.318 3
  23607832.867    -5603548.722 6  -4317395.494 1
  21994743.523   -14128612.559 7 -10679586.137 1
  23177479.336    -7329811.025 5  -3653290.974 1
 90 10 24 11 44 45.0000000  0  5 02 06 15 13 09
  21092327.227     1296997.424 7   1064389.897 3
  20792568.633    -7364811.359 7  -5691114.402 3
  23606953.703    -5608171.054 6  -4320997.305 1
  21985937.555   -14174891.818 7 -10715647.893 1
  23168966.070    -7374547.818 5  -3688150.801 1
 90 10 24 11 45  0.0000000  0  5 02 06 15 13 09
  21094488.828     1308352.694 7   1073238.154 3
  20788995.500    -7383583.209 7  -5705741.814 3
  23606098.672    -5612658.980 6  -4324494.387 1
  21977150.609   -14221068.379 7 -10751629.614 1
  23160455.172    -7419268.569 5  -3722998.120 1
 90 10 24 11 45 15.0000000  0  5 02 06 15 13 09
  21096659.234     1319757.430 7   1082124.955 3
  20785440.602    -7402269.987 7  -5720302.941 3
  23605268.508    -5617008.536 6  -4327883.649 1
  21968383.188   -14267137.909 7 -10787527.945 1
  23151947.109    -7463969.031 5  -3757829.635 1
 90 10 24 11 45 30.0000000  0  5 02 06 15 13 09
  21098837.242     1331209.785 7   1091048.868 3
  20781899.742    -7420873.285 7  -5734799.018 3
  23604470.328    -5621221.415 6  -4331166.405 1
  21959637.242   -14313101.939 7 -10823344.063 1
  23143450.555    -7508650.574 5  -3792646.413 1
 90 10 24 11 45 45.0000000  0  5 02 06 15 13 09
  21101023.680     1342703.402 7   1100004.932 3
  20778374.313    -7439399.266 7  -5749234.846 3
  23603694.086    -5625303.640 6  -4334347.368 1
  21950909.875   -14358966.505 7 -10859082.674 1
  23134950.148    -7553319.522 5  -3827453.361 1
 90 10 24 11 46  0.0000000  0  5 02 06 15 13 09
  21103220.602     1354238.553 7   1108993.354 3
  20774864.609    -7457847.288 7  -5763609.924 3
  23602941.453    -5629254.681 6  -4337426.090 1
  21942200.234   -14404730.788 7 -10894743.149 1
  23126449.586    -7597975.104 5  -3862249.900 1
 90 10 24 11 46 15.0000000  0  5 02 06 15 13 09
  21105423.266     1365812.894 7   1118012.321 3
  20771368.156    -7476219.346 7  -5777925.811 3
  23602214.180    -5633076.961 6  -4340404.494 1
  21933511.070   -14450397.043 7 -10930327.229 1
  23117952.508    -7642619.498 5  -3897037.721 1
 90 10 24 11 46 30.0000000  0  5 02 06 15 13 09
  21107632.758     1377425.105 7   1127060.792 3
  20767885.602    -7494516.448 7  -5792183.290 3
  23601509.453    -5636771.569 6  -4343283.410 1
  21924839.008   -14495966.347 7 -10965835.767 1
  23109462.141    -7687253.857 5  -3931817.728 1
 90 10 24 11 46 45.0000000  0  5 02 06 15 13 09
  21109851.836     1389088.880 7   1136149.446 3
  20764421.039    -7512724.726 7  -5806371.555 3
  23600838.102    -5640324.635 6  -4346052.028 1
  21916189.734   -14541424.757 7 -11001257.895 1
  23100972.859    -7731864.219 5  -3966579.012 1
 90 10 24 11 47  0.0000000  0  5 02 06 15 13 09
  21112078.867     1400796.515 7   1145272.275 3
  20760973.180    -7530851.590 7  -5820496.384 2
  23600180.898    -5643743.871 5  -4348716.367 1
  21907557.359   -14586779.530 7 -11036599.275 1
  23092489.312    -7776458.079 6  -4001327.456 1
 90 10 24 11 47 15.0000000  0  5 02 06 15 13 09
  21114317.484     1412546.582 7   1154428.167 3
  20757536.773    -7548898.244 7  -5834558.710 2
  23599559.711    -5647030.592 6  -4351277.448 1
  21898947.289   -14632031.784 7 -11071860.754 1
  23084001.766    -7821036.526 5  -4036063.893 1
 90 10 24 11 47 30.0000000  0  5 02 06 15 13 09
  21116560.992     1424346.974 7   1163623.272 3
  20754119.445    -7566856.047 7  -5848551.798 3
  23598960.617    -5650176.167 6  -4353728.543 1
  21890357.250   -14677172.916 7 -11107035.652 1
  23075528.102    -7865591.308 5  -4070781.874 1
 90 10 24 11 47 45.0000000  0  5 02 06 15 13 09
  21118816.391     1436193.511 7   1172854.334 3
  20750719.242    -7584728.933 7  -5862478.720 3
  23598386.367    -5653185.137 6  -4356073.188 1
  21881787.148   -14722206.958 7 -11142127.104 1
  23067052.766    -7910126.113 6  -4105484.299 1
 90 10 24 11 48  0.0000000  0  5 02 06 15 13 09
  21121079.430     1448083.529 7   1182119.280 3
  20747333.320    -7602519.447 7  -5876341.456 2
  23597841.523    -5656059.767 6  -4358313.160 1
  21873238.000   -14767136.285 7 -11177136.956 1
  23058582.414    -7954643.710 6  -4140173.311 1
 90 10 24 11 48 15.0000000  0  5 02 06 15 13 09
  21123349.875     1460020.054 7   1191420.462 3
  20743964.711    -7620224.229 7  -5890137.389 2
  23597320.656    -5658797.041 6  -4360446.101 1
  21864708.500   -14811957.577 7 -11212062.633 1
  23050114.992    -7999140.634 6  -4174846.215 1
 90 10 24 11 48 30.0000000  0  5 02 06 15 13 09
  21125628.023     1471996.313 7   1200752.607 3
  20740610.555    -7637849.629 7  -5903871.463 3
  23596821.164    -5661403.739 5  -4362477.288 1
  21856197.898   -14856677.359 7 -11246909.210 1
  23041647.969    -8043623.414 5  -4209508.095 1
 90 10 24 11 48 45.0000000  0  5 02 06 15 13 09
  21127916.617     1484013.427 7   1210116.584 3
  20737271.672    -7655394.434 7  -5917542.736 2
  23596352.453    -5663878.308 5  -4364405.525 1
  21847707.313   -14901294.246 7 -11281675.603 1
  23033188.703    -8088090.618 6  -4244157.849 1
 90 10 24 11 49  0.0000000  0  5 02 06 15 13 09
  21130211.078     1496072.773 7   1219513.471 3
  20733949.219    -7672856.965 7  -5931149.902 3
  23595907.789    -5666219.295 6  -4366229.676 1
  21839236.508   -14945806.672 7
  23024727.031    -8132540.780 5
 90 10 24 11 49 15.0000000  0  5 02 06 15 13 09
  21132516.367     1508173.335 7   1228942.475 3
  20730640.742    -7690237.911 7  -5944693.495 2
  23595486.820    -5668427.724 6  -4367950.522 1
  21830786.602   -14990215.178 7
  23016275.117    -8176974.556 5
 90 10 24 11 49 30.0000000  0  5 02 06 15 13 09
  21134822.031     1520310.458 7   1238399.970 3
  20727348.898    -7707541.455 7  -5958176.770 3
  23595091.711    -5670507.864 6  -4369571.411 1
  21822354.617   -15034524.158 7 -11385491.088 1
  23007825.547    -8221396.277 5  -4348032.350 1
 90 10 24 11 49 45.0000000  0  5 02 06 15 13 09
  21137141.664     1532491.859 7   1247891.965 3
  20724071.813    -7724759.582 7  -5971593.492 2
  23594718.836    -5672451.597 6  -4371086.003 1
  21813943.406   -15078725.282 7 -11419933.510 1
  22999368.641    -8265798.045 5  -4382631.114 1
 90 10 24 11 50  0.0000000  0  5 02 06 15 13 09
  21139465.023     1544713.464 7   1257415.292 3
  20720810.945    -7741896.130 7  -5984946.639 2
  23594378.992    -5674263.090 6  -4372497.552 1
  21805552.867   -15122822.540 7 -11454295.000 1
  22990919.422    -8310183.473 5  -4417217.148 1
 90 10 24 11 50 15.0000000  0  5 02 06 15 13 09
  21141800.266     1556977.836 7   1266971.944 3
  20717565.898    -7758948.218 7  -5998233.981 2
  23594058.844    -5675939.737 5  -4373804.020 1
  21797181.938   -15166812.914 7 -11488573.209 1
  22982476.984    -8354549.843 5  -4451788.334 1
 90 10 24 11 50 30.0000000  0  5 02 06 15 13 09
  21144143.086     1569288.411 7   1276564.596 3
  20714338.211    -7775912.055 7  -6011452.552 2
  23593764.195    -5677477.970 6  -4375002.649 1
  21788830.461   -15210692.801 7 -11522765.316 1
  22974042.883    -8398893.415 5  -4486341.755 1
 90 10 24 11 50 45.0000000  0  5 02 06 15 13 09
  21146492.172     1581638.635 7   1286188.144 3
  20711126.023    -7792793.899 7  -6024607.231 2
  23593498.602    -5678884.465 6  -4376098.622 1
  21780500.289   -15254468.514 7 -11556876.259 1
  22965608.531    -8443220.292 5  -4520882.168 1
 90 10 24 11 51  0.0000000  0  5 02 06 15 13 09
  21148852.805     1594036.520 7   1295848.829 3
  20707929.742    -7809585.461 7  -6037691.562 2
  23593253.773    -5680150.652 6  -4377085.262 1
  21772192.148   -15298131.566 7 -11590899.410 1
  22957173.828    -8487522.276 5  -4555403.180 1
 90 10 24 11 51 15.0000000  0  5 02 06 15 13 09
  21151219.570     1606476.187 7   1305542.070 3
  20704751.625    -7826292.093 7  -6050709.714 3
  23593041.148    -5681282.412 6  -4377967.142 1
  21763902.648   -15341687.579 7 -11624839.154 1
  22948751.766    -8531804.924 5  -4589909.125 1
 90 10 24 11 51 30.0000000  0  5 02 06 15 13 09
  21153595.367     1618958.464 7   1315268.520 3
  20701588.383    -7842912.919 7  -6063661.005 2
  23592853.008    -5682278.923 6  -4378743.644 1
  21755637.438   -15385135.612 7 -11658694.754 1
  22940320.406    -8576067.477 5  -4624399.412 1
 90 10 24 11 51 45.0000000  0  5 02 06 15 13 09
  21155975.773     1631475.866 7   1325022.336 3
  20698440.422    -7859455.350 7  -6076551.209 3
  23592685.602    -5683147.729 6  -4379420.643 1
  21747387.586   -15428482.706 7 -11692471.704 1
  22931903.477    -8620317.038 5  -4658879.575 1
 90 10 24 11 52  0.0000000  0  5 02 06 15 13 09
  21158366.867     1644042.482 7   1334814.499 3
  20695310.313    -7875904.893 7  -6089369.031 3
  23592546.563    -5683874.374 5  -4379986.852 1
  21739160.195   -15471714.717 7 -11726158.975 1
  22923496.547    -8664539.534 6  -4693338.635 1
 90 10 24 11 52 15.0000000  0  5 02 06 15 13 09
  21160764.484     1656641.160 7   1344631.648 3
  20692194.805    -7892278.242 7  -6102127.486 3
  23592434.063    -5684475.852 6  -4380455.542 1
  21730952.211   -15514848.301 7 -11759769.551 1
  22915072.789    -8708751.311 5  -4727789.363 1
 90 10 24 11 52 30.0000000  0  5 02 06 15 13 09
  21163172.031     1669285.874 7   1354484.666 3
  20689095.398    -7908561.150 7  -6114815.460 3
  23592347.781    -5684938.138 6  -4380815.767 1
  21722765.008   -15557869.002 7 -11793292.172 1
  22906669.414    -8752938.374 6  -4762220.819 1
 90 10 24 11 52 45.0000000  0  5 02 06 15 13 09
  21165585.422     1681971.079 7   1364369.238 3
  20686013.672    -7924758.707 7  -6127436.928 3
  23592282.711    -5685266.472 6  -4381071.605 1
  21714599.164   -15600782.167 7 -11826730.990 1
  22898268.953    -8797105.609 6  -4796636.836 1
 90 10 24 11 53  0.0000000  0  5 02 06 15 13 09
  21168008.297     1694693.654 7   1374282.927 3
  20682946.047    -7940873.883 7  -6139994.206 3
  23592247.133    -5685464.188 6
  21706453.211   -15643590.782 7 -11860088.349 1
  22889866.250    -8841256.171 6  -4831039.856 1
 90 10 24 11 53 15.0000000  0  5 02 06 15 13 09
  21170436.344     1707457.385 7   1384228.684 3
  20679896.227    -7956902.760 7  -6152484.240 3
  23592232.344    -5685527.444 5
  21698327.047   -15686290.677 7 -11893360.980 1
  22881468.766    -8885386.066 6  -4865426.772 1
 90 10 24 11 53 30.0000000  0  5 02 06 15 13 09
  21172872.961     1720259.493 7   1394204.351 3
  20676863.063    -7972847.708 7  -6164908.876 3
  23592247.445    -5685458.680 6
  21690222.063   -15728884.487 7 -11926550.954 1
  22873075.859    -8929497.726 6  -4899799.484 1
 90 10 24 11 53 45.0000000  0  5 02 06 15 13 09
  21175317.984     1733104.001 7   1404213.056 3
  20673845.086    -7988704.252 7  -6177264.626 3
  23592284.609    -5685253.876 6
  21682138.563   -15771367.911 7 -11959654.913 1
  22864686.023    -8973587.090 6  -4934154.810 1
 90 10 24 11 54  0.0000000  0  5 02 06 15 13 09
  21177768.906     1745992.815 7   1414256.284 3
  20670844.781    -8004470.435 7  -6189549.959 3
  23592351.523    -5684910.920 6
  21674074.258   -15813738.414 7 -11992670.876 1
  22856298.047    -9017651.659 6  -4968490.823 1
 90 10 24 11 54 15.0000000  0  5 02 06 15 13 09
  21180230.695     1758924.396 7   1424332.836 3
  20667861.367    -8020147.305 7  -6201765.698 3
  23592439.500    -5684431.052 6        -0.11211
  21666033.328   -15855997.494 7 -12025600.027 1
  22847914.188    -9061692.647 6  -5002808.460 1
 90 10 24 11 54 30.0000000  0  5 02 06 15 13 09
  21182698.211     1771896.016 7   1434440.588 3
  20664895.523    -8035737.234 7  -6213913.694 3
  23592557.344    -5683816.941 6       478.412 1
  21658013.438   -15898147.559 7 -12058444.221 1
  22839535.930    -9105712.595 6  -5037109.697 1
 90 10 24 11 54 45.0000000  0  5 02 06 15 13 09
  21185177.703     1784923.860 7   1444592.152 3
  20661947.648    -8051223.848 7  -6225981.184 3
  23592704.891    -5683052.509 6      1074.086 1
  21650015.813   -15940172.114 7 -12091190.617 1
  22831169.922    -9149695.150 6  -5071381.814 1
 90 10 24 11 55  0.0000000  0  5 02 06 15 13 09
  21187664.398     1797996.444 7   1454778.578 3
  20659018.531    -8066618.397 7  -6237976.936 3
  23592874.984    -5682149.201 6      1777.951 1
  21642040.266   -15982082.404 7 -12123847.984 1
  22822805.500    -9193651.227 5  -5105633.285 1
 90 10 24 11 55 15.0000000  0  5 02 06 15 13 09
  21190161.148     1811105.838 7   1464993.686 3
  20656105.430    -8081928.516 7  -6249906.896 3
  23593070.859    -5681114.692 6      2584.063 1
  21634086.430   -16023886.321 7 -12156422.453 1
  22814442.063    -9237588.746 5  -5139870.301 1
 90 10 24 11 55 30.0000000  0  5 02 06 15 13 09
  21192662.164     1824250.743 7   1475236.467 3
  20653208.148    -8097154.853 7  -6261771.572 2
  23593291.844    -5679949.944 6      3491.660 1
  21626150.609   -16065584.527 7 -12188914.554 1
  22806087.383    -9281508.563 5  -5174093.516 1
 90 10 24 11 55 45.0000000  0  5 02 06 15 13 09
  21195168.859     1837432.878 7   1485508.255 3
  20650326.156    -8112295.871 7  -6273569.765 3
  23593541.219    -5678653.718 6      4501.700 1
  21618235.773   -16107175.157 7 -12221322.827 1
  22797728.203    -9325408.701 5  -5208301.416 1
 90 10 24 11 56  0.0000000  0  5 02 06 15 13 09
  21197688.828     1850665.893 7   1495819.696 3
  20647464.320    -8127337.535 7  -6285290.536 2
  23593815.563    -5677212.088 6      5625.056 1
  21610344.258   -16148644.368 7 -12253636.487 1
  22789384.844    -9369275.412 5  -5242483.260 1
 90 10 24 11 56 15.0000000  0  5 02 06 15 13 09
  21200212.109     1863927.597 7   1506153.485 3
  20644616.727    -8142301.559 7  -6296950.817 2
  23594114.258    -5675646.995 6      6844.611 1
  21602473.297   -16190014.090 7 -12285872.627 1
  22781035.898    -9413130.443 5  -5276655.994 1
 90 10 24 11 56 30.0000000  0  5 02 06 15 13 09
  21202741.523     1877225.054 7   1516515.137 3
  20641784.406    -8157180.555 7  -6308544.836 3
  23594436.977    -5673951.063 6      8166.120 1
  21594619.320   -16231276.665 7 -12318025.275 1
  22772698.031    -9456966.313 5  -5310813.812 1
 90 10 24 11 56 45.0000000  0  5 02 06 15 13 09
  21205278.953     1890561.929 7   1526907.499 3
  20638970.242    -8171970.751 7  -6320069.665 2
  23594784.164    -5672121.034 6      9592.113 1
  21586788.383   -16272428.477 7 -12350091.610 1
  22764361.016    -9500779.222 5  -5344953.738 1
 90 10 24 11 57  0.0000000  0  5 02 06 15 13 09
  21207825.781     1903945.447 7   1537336.216 3
  20636174.805    -8186664.572 7  -6331519.392 2
  23595158.766    -5670149.364 6     11128.477 1
  21578981.898   -16313461.798 7 -12382065.615 1
  22756027.695    -9544561.770 5  -5379070.005 1
 90 10 24 11 57 15.0000000  0  5 02 06 15 13 09
  21210385.172     1917382.804 7   1547806.879 3
  20633397.820    -8201254.395 7  -6342888.086 3
  23595563.367    -5668028.938 6     12780.757 1
  21571197.602   -16354369.262 7 -12413941.553 1
  22747701.414    -9588306.272 5  -5413156.624 1
 90 10 24 11 57 30.0000000  0  5 02 06 15 13 09
  21212950.289     1930866.188 7   1558313.414 3
  20630639.703    -8215747.974 7  -6354181.783 3
  23595994.586    -5665766.978 6     14543.325 1
  21563435.453   -16395158.413 7 -12445725.302 1
  22739383.609    -9632020.412 5  -5447219.577 1
 90 10 24 11 57 45.0000000  0  5 02 06 15 13 09
  21215522.523     1944390.437 7   1568851.780 3
  20627899.945    -8230150.117 7  -6365404.232 2
  23596453.008    -5663368.933 6     16411.930 1
  21555694.703   -16435834.379 7 -12477420.846 1
  22731068.344    -9675709.035 6  -5481262.652 1
 90 10 24 11 58  0.0000000  0  5 02 06 15 13 09
  21218104.766     1957953.663 7   1579420.523 3
  20625175.766    -8244462.256 7  -6376556.545 2
  23596931.555    -5660836.846 6     18384.985 1
  21547974.969   -16476398.557 7 -12509029.285 1
  22722759.781    -9719373.668 6  -5515287.026 1
 90 10 24 11 58 15.0000000  0  5 02 06 15 13 09
  21220692.359     1971563.328 7   1590025.455 3
  20622470.297    -8258676.786 7  -6387632.798 3
  23597439.656    -5658162.750 6     20468.697 1
  21540278.656   -16516843.061 7 -12540544.476 1
  22714455.547    -9763006.550 6  -5549286.666 1
 90 10 24 11 58 30.0000000  0  5 02 06 15 13 09
  21223291.727     1985213.736 7   1600662.134 3
  20619783.070    -8272799.034 7  -6398637.150 2
  23597978.539    -5655352.542 6     22658.475 1
  21532604.438   -16557173.405 7 -12571970.715 1
  22706160.266    -9806613.071 6  -5583265.762 1
 90 10 24 11 58 45.0000000  0  5 02 06 15 13 09
  21225896.969     1998909.305 7   1611334.000 3
  20617113.828    -8286824.276 7  -6409565.909 2
  23598537.055    -5652401.630 6     24957.888 1
  21524951.555   -16597384.947 7 -12603304.372 1
  22697867.758    -9850188.630 6  -5617220.733 1
 90 10 24 11 59  0.0000000  0  5 02 06 15 13 09
  21228511.313     2012650.250 7   1622041.230 3
  20614463.359    -8300752.302 7  -6420418.916 2
  23599128.148    -5649309.809 6     27367.102 1
  21517322.789   -16637477.304 7 -12634545.162 1
  22689584.922    -9893732.750 6  -5651151.209 1
 90 10 24 11 59 15.0000000  0  5 02 06 15 13 09
  21231134.453     2026431.963 7   1632780.222 3
  20611831.000    -8314587.170 7  -6431199.329 2
  23599739.016    -5646081.618 6     29882.573 1
  21509715.531   -16677454.758 7 -12665696.414 1
  22681301.586    -9937249.803 6  -5685060.583 1
 90 10 24 11 59 30.0000000  0  5 02 06 15 13 09
  21233766.930     2040257.446 7   1643553.319 3
  20609217.539    -8328325.591 7  -6441904.590 2
  23600380.195    -5642713.947 6     32506.726 1
  21502129.992   -16717313.895 7 -12696755.477 1
  22673028.539    -9980736.168 6  -5718946.054 1
 90 10 24 11 59 45.0000000  0  5 02 06 15 13 09
  21236404.211     2054125.090 7   1654359.275 3
  20606620.695    -8341969.035 7  -6452535.846 3
  23601049.320    -5639208.323 6     35238.373 1
  21494567.273   -16757056.548 7 -12727723.767 1
  22664757.680   -10024193.677 6  -5752809.037 1
 90 10 24 12  0  0.0000000  0  5 02 06 15 13 09
  21239051.250     2068032.399 7   1665196.136 3
  20604042.477    -8355519.636 7  -6463094.754 2
  23601737.039    -5635567.124 6     38075.672 1
  21487026.461   -16796684.675 7 -12758602.818 1
  22656490.570   -10067624.247 6  -5786651.024 1
 90 10 24 12  0 15.0000000  0  5 02 06 15 13 09
  21241707.055     2081986.812 7   1676069.703 3
  20601484.070    -8368969.584 7  -6473575.232 3
  23602458.531    -5631783.009 6     41024.330 1
  21479508.250   -16836190.719 7 -12789386.736 1
  22648236.164   -10111020.205 6  -5820466.046 1
 90 10 24 12  0 30.0000000  0  5 02 06 15 13 09
  21244370.086     2095981.978 7   1686975.023 3
  20598942.023    -8382325.133 7  -6483982.152 2
  23603208.031    -5627862.155 6     44079.533 1
  21472013.414   -16875580.698 7 -12820080.222 1
  22639984.164   -10154387.643 6  -5854258.844 1
 90 10 24 12  0 45.0000000  0  5 02 06 15 13 09
  21247040.539     2110017.547 7   1697911.831 3
  20596418.102    -8395586.331 7  -6494315.553 2
  23603977.273    -5623804.788 6     47241.119 1
  21464540.828   -16914854.701 7 -12850683.332 1
  22631733.445   -10197726.488 6  -5888029.354 1
 90 10 24 12  1  0.0000000  0  5 02 06 15 13 09
  21249722.523     2124103.483 7   1708887.877 3
  20593915.008    -8408742.649 7  -6504567.228 2
  23604780.750    -5619601.009 6     50516.785 1
  21457090.320   -16954002.299 7 -12881187.941 1
  22623495.813   -10241026.526 6  -5921769.629 1
 90 10 24 12  1 15.0000000  0  5 02 06 15 13 09
  21252410.461     2138236.181 7   1719900.369 3
  20591430.359    -8421797.639 7  -6514739.946 2
  23605605.609    -5615254.334 6     53903.796 1
  21449663.484   -16993027.147 7 -12911596.905 1
  22615261.586   -10284291.237 6  -5955482.382 1
 90 10 24 12  1 30.0000000  0  5 02 06 15 13 09
  21255107.414     2152407.251 7   1730942.757 3
  20588964.109    -8434759.466 7  -6524840.069 2
  23606458.844    -5610773.060 6     57395.699 1
  21442259.945   -17031937.401 7 -12941916.575 1
  22607032.727   -10327528.449 6  -5989173.701 1
 90 10 24 12  1 45.0000000  0  5 02 06 15 13 09
  21257810.891     2166619.569 7   1742017.286 3
  20586515.227    -8447624.797 7  -6534865.002 2
  23607336.281    -5606154.266 6     60994.751 1
  21434878.438   -17070729.585 7 -12972144.244 1
  22598810.227   -10370735.054 6  -6022841.171 1
 90 10 24 12  2  0.0000000  0  5 02 06 15 13 09
  21260524.797     2180875.569 7   1753125.855 3
  20584086.430    -8460391.033 7  -6544812.717 2
  23608242.125    -5601395.902 6     64702.573 1
  21427518.883   -17109401.400 7 -13002278.119 1
  22590591.461   -10413908.518 6  -6056482.816 1
 90 10 24 12  2 15.0000000  0  5 02 06 15 13 09
  21263244.508     2195180.391 7   1764272.466 3
  20581676.875    -8473052.787 7  -6554679.016 2
  23609174.570    -5596492.233 6     68523.603 1
  21420183.219   -17147947.371 7 -13032313.928 1
  22582385.484   -10457043.315 6  -6090094.339 1
 90 10 24 12  2 30.0000000  0  5 02 06 15 13 09
  21265976.516     2209527.435 7   1775451.980 3
  20579285.563    -8485616.052 7  -6564468.570 2
  23610134.828    -5591449.856 6     72452.727 1
  21412871.906   -17186373.833 7 -13062256.620 1
  22574182.680   -10500145.517 6  -6123680.471 1
 90 10 24 12  2 45.0000000  0  5 02 06 15 13 09
  21268713.227     2223919.966 7   1786666.937 3
  20576914.477    -8498077.575 7  -6574178.845 2
  23611124.703    -5586265.732 6     76492.298 1
  21405582.977   -17224677.197 7 -13092103.387 1
  22565987.570   -10543211.895 6  -6157238.668 1
 90 10 24 12  3  0.0000000  0  5 02 06 15 13 09
  21271462.117     2238354.588 7   1797914.692 3
  20574562.680    -8510440.679 7  -6583812.432 2
  23612136.664    -5580943.012 6     80639.861 1
  21398316.352   -17262860.785 7 -13121856.821 1
  22557802.125   -10586245.496 6  -6190771.340 1
 90 10 24 12  3 15.0000000  0  5 02 06 15 13 09
  21274216.977     2252827.730 7   1809192.463 3
  20572227.742    -8522708.382 7  -6593371.677 2
  23613172.523    -5575485.326 6     84892.607 1
  21391071.773   -17300927.906 7 -13151519.508 1
  22549618.609   -10629249.611 6  -6224281.027 1
 90 10 24 12  3 30.0000000  0  5 02 06 15 13 09
  21276978.891     2267346.515 7   1820505.801 3
  20569912.797    -8534873.313 7  -6602850.844 2
  23614239.352    -5569885.283 6     89256.265 1
  21383851.875   -17338871.216 7 -13181085.713 1
  22541446.063   -10672216.827 6  -6257761.960 1
 90 10 24 12  3 45.0000000  0  5 02 06 15 13 09
  21279750.813     2281904.789 7   1831849.910 3
  20567616.086    -8546941.481 7  -6612254.607 2
  23615329.406    -5564149.505 6     93725.701 1
  21376654.211   -17376696.533 7 -13210559.973 1
  22533268.805   -10715152.707 6  -6291218.483 1
 90 10 24 12  4  0.0000000  0  5 02 06 15 13 09
  21282529.055     2296513.619 7   1843233.416 3
  20565340.195    -8558901.383 7  -6621574.013 2
  23616449.813    -5558266.492 6     98309.859 1
  21369479.703   -17414392.421 7 -13239933.388 2
  22525109.852   -10758046.161 6  -6324641.946 1
 90 10 24 12  4 15.0000000  0  5 02 06 15 13 09
  21285317.406     2311163.109 7   1854648.592 3
  20563083.734    -8570762.523 7  -6630816.458 2
  23617594.344    -5552246.074 6    103001.086 1
  21362330.109   -17451968.942 7 -13269213.785 1
  22516952.914   -10800906.796 6  -6358039.831 1
 90 10 24 12  4 30.0000000  0  5 02 06 15 13 09
  21288112.586     2325849.690 7   1866092.682 3
  20560843.813    -8582528.491 7  -6639984.742 2
  23618767.586    -5546092.255 6    107796.264 1
  21355200.977   -17489429.195 7 -13298403.581 1
  22508801.492   -10843737.758 6  -6391414.602 1
 90 10 24 12  4 45.0000000  0  5 02 06 15 13 09
  21290916.445     2340583.911 7   1877573.889 3
  20558626.117    -8594188.439 7  -6649070.417 2
  23619962.703    -5539794.268 6    112703.777 1
  21348097.344   -17526762.665 7 -13327494.590 1
  22500658.305   -10886528.461 6  -6424757.990 1
 90 10 24 12  5  0.0000000  0  5 02 06 15 13 09
  21293726.445     2355359.298 7   1889087.177 3
  20556425.656    -8605748.753 7  -6658078.452 3
  23621191.656    -5533358.516 6    117718.644 1
  21341015.398   -17563975.313 7 -13356491.449 1
  22492525.313   -10929285.161 6  -6458074.878 1
 90 10 24 12  5 15.0000000  0  5 02 06 15 13 09
  21296547.688     2370174.966 7   1900631.851 3
  20554244.594    -8617209.568 7  -6667008.953 2
  23622438.672    -5526785.737 6    122840.292 1
  21333958.672   -17601067.646 7 -13385394.558 1
  22484389.086   -10972007.971 6  -6491365.367 1
 90 10 24 12  5 30.0000000  0  5 02 06 15 13 09
  21299372.773     2385024.868 7   1912203.197 3
  20552080.875    -8628576.671 7  -6675866.430 3
  23623717.000    -5520081.871 6    128064.075 1
  21326920.922   -17638045.622 7 -13414208.555 1
  22476268.305   -11014702.631 6  -6524633.926 1
 90 10 24 12  5 45.0000000  0  5 02 06 15 13 09
  21302205.344     2399909.267 7   1923801.429 3
  20549935.344    -8639849.755 7  -6684650.654 2
  23625017.773    -5513246.957 6    133389.981 1
  21319906.398   -17674908.841 7 -13442933.135 1
  22468151.047   -11057368.878 6  -6557880.330 1
 90 10 24 12  6  0.0000000  0  5 02 06 15 13 09
  21305043.805     2414827.856 7   1935426.301 3
  20547808.641    -8651029.002 7  -6693361.753 3
  23626343.320    -5506281.074 6    138817.923 1
  21312914.063   -17711657.571 7 -13471568.499 1
  22460038.227   -11100006.920 6  -6591104.773 1
 90 10 24 12  6 15.0000000  0  5 02 06 15 13 09
  21307893.047     2429793.637 7   1947087.943 3
  20545701.813    -8662101.142 7  -6701989.395 2
  23627696.609    -5499171.299 6    144358.009 1
  21305944.250   -17748278.332 7 -13500104.146 1
  22451930.633   -11142603.305 6  -6624296.752 1
 90 10 24 12  6 30.0000000  0  5 02 06 15 13 09
  21310748.711     2444805.525 7   1958785.519 3
  20543615.289    -8673066.655 7  -6710533.948 2
  23629074.234    -5491918.421 6    150009.585 1
  21299000.359   -17784771.814 7 -13528540.615 1
  22443834.945   -11185158.526 6  -6657456.659 1
 90 10 24 12  6 45.0000000  0  5 02 06 15 13 09
  21313614.031     2459859.664 7   1970516.011 3
  20541547.367    -8683929.271 7  -6718998.322 2
  23630480.797    -5484526.425 6    155769.575 1
  21292078.023   -17821142.131 7 -13556881.115 1
  22435742.586   -11227676.270 6  -6690587.358 1
 90 10 24 12  7  0.0000000  0  5 02 06 15 13 09
  21316484.492     2474953.243 7   1982277.238 3
  20539499.836    -8694691.502 7  -6727384.476 2
  23631915.727    -5476998.226 6    161635.703 1
  21285181.219   -17857391.802 7 -13585127.606 1
  22427657.008   -11270159.046 6  -6723690.804 1
 90 10 24 12  7 15.0000000  0  5 02 06 15 13 09
  21319368.594     2490098.910 7   1994079.055 3
  20537474.016    -8705340.692 7  -6735682.545 2
  23633376.531    -5469320.939 6    167617.987 1
  21278307.922   -17893507.763 7 -13613269.903 1
  22419584.563   -11312594.026 6  -6756757.007 1
 90 10 24 12  7 30.0000000  0  5 02 06 15 13 09
  21322257.914     2505284.160 7   2005911.718 3
  20535466.805    -8715888.747 7  -6743901.808 3
  23634864.117    -5461507.263 6    173706.564 1
  21271457.602   -17929502.397 7 -13641317.661 1
  22411517.680   -11354993.303 6  -6789795.397 1
 90 10 24 12  7 45.0000000  0  5 02 06 15 13 09
  21325155.172     2520514.205 7   2017779.285 3
  20533478.438    -8726330.628 7  -6752038.338 3
  23636373.438    -5453552.226 6    179905.284 1
  21264631.867   -17965370.304 7 -13669266.672 1
  22403456.227   -11397351.565 6  -6822801.810 1
 90 10 24 12  8  0.0000000  0  5 02 06 15 13 09
  21328062.102     2535783.276 7   2029677.259 3
  20531511.031    -8736671.472 7  -6760096.138 3
  23637917.445    -5445461.465 6    186209.767 1
  21257830.813   -18001117.058 7 -13697121.272 1
  22395399.219   -11439674.160 6  -6855780.450 1
 90 10 24 12  8 15.0000000  0  5 02 06 15 13 09
  21330973.117     2551092.394 7   2041606.439 3
  20529563.648    -8746909.906 7  -6768074.138 3
  23639481.453    -5437233.636 6    192621.054 1
  21251051.391   -18036741.332 7 -13724880.438 1
  22387353.047   -11481959.767 6  -6888730.253 1
 90 10 24 12  8 30.0000000  0  5 02 06 15 13 09
  21333894.828     2566439.617 7   2053565.313 3
  20527633.875    -8757047.910 7  -6775973.882 3
  23641074.242    -5428870.841 6    199137.518 1
  21244294.359   -18072244.698 7 -13752545.394 1
  22379315.984   -11524210.020 6  -6921652.514 1
 90 10 24 12  8 45.0000000  0  5 02 06 15 13 09
  21336825.305     2581830.636 7   2065558.310 3
  20525725.383    -8767079.553 7  -6783790.742 2
  23642689.141    -5420367.635 6    205763.396 1
  21237563.961   -18107621.642 7 -13780111.835 1
  22371279.445   -11566419.117 6  -6954542.707 1
 90 10 24 12  9  0.0000000  0  5 02 06 15 13 09
  21339760.789     2597263.280 7   2077583.744 3
  20523836.195    -8777006.624 7  -6791526.122 3
  23644333.211    -5411726.016 5    212497.117 1
  21230855.383   -18142874.274 7 -13807581.411 2
  22363255.648   -11608588.576 6  -6987402.018 1
 90 10 24 12  9 15.0000000  0  5 02 06 15 13 09
  21342706.484     2612740.735 7   2089644.095 3
  20521968.102    -8786825.660 7  -6799177.320 2
  23646004.000    -5402942.696 6    219341.252 1
  21224171.938   -18177998.967 7 -13834951.294 2
  22355239.555   -11650715.148 6  -7020227.916 1
 90 10 24 12  9 30.0000000  0  5 02 06 15 13 09
  21345655.992     2628253.165 7   2101731.700 3
  20520117.273    -8796546.345 7  -6806751.876 3
  23647704.031    -5394027.584 6    226288.078 1
  21217510.188   -18213005.400 7 -13862229.025 1
  22347228.195   -11692808.319 6  -7053027.778 1
 90 10 24 12  9 45.0000000  0  5 02 06 15 13 09
  21348618.656     2643812.867 7   2113856.137 3
  20518289.352    -8806155.927 7  -6814239.862 3
  23649426.383    -5384968.357 6    233347.210 1
  21210872.313   -18247880.956 7 -13889404.781 2
  22339229.297   -11734855.367 6  -7085791.701 1
 90 10 24 12 10  0.0000000  0  5 02 06 15 13 09
  21351587.102     2659416.109 7   2126014.501 3
  20516480.914    -8815657.907 7  -6821644.000 3
  23651178.867    -5375768.968 6    240515.555 1
  21204261.094   -18282629.049 7 -13916481.209 1
  22331235.922   -11776859.764 6  -7118522.393 1
 90 10 24 12 10 15.0000000  0  5 02 06 15 13 09
  21354563.844     2675058.693 7   2138203.526 3
  20514692.742    -8825056.305 7  -6828967.421 3
  23652954.367    -5366433.443 6    247789.979 1
  21197672.289   -18317254.003 7 -13943461.681 1
  22323249.125   -11818825.552 6  -7151222.991 1
 90 10 24 12 10 30.0000000  0  5 02 06 15 13 09
  21357549.000     2690742.654 7   2150424.787 3
  20512923.828    -8834349.009 7  -6836208.489 3
  23654756.242    -5356959.949 6    255171.921 1
  21191106.641   -18351753.717 7 -13970344.568 1
  22315271.563   -11860750.361 6  -7183891.664 1
 90 10 24 12 10 45.0000000  0  5 02 06 15 13 09
  21360544.063     2706469.691 7   2162679.620 3
  20511176.328    -8843533.719 7  -6843365.405 2
  23656587.250    -5347346.612 6    262662.838 1
  21184566.133   -18386125.915 7 -13997128.092 1
  22307303.422   -11902631.977 6  -7216526.678 1
 90 10 24 12 11  0.0000000  0  5 02 06 15 13 09
  21363542.914     2722245.373 7   2174972.354 3
  20509450.484    -8852604.811 7  -6850433.788 2
  23658442.719    -5337587.863 6    270267.047 1
  21178050.438   -18420365.021 7 -14023807.909 1
  22299343.750   -11944464.730 6  -7249123.615 1
 90 10 24 12 11 15.0000000  0  5 02 06 15 13 09
  21366553.844     2738063.218 7   2187297.940 3
  20507744.094    -8861568.668 7  -6857418.608 3
  23660331.672    -5327690.096 6    277979.584 1
  21171558.813   -18454477.437 7 -14050389.004 2
  22291390.352   -11986254.586 6  -7281687.125 1
 90 10 24 12 11 30.0000000  0  5 02 06 15 13 09
  21369573.633     2753926.822 7   2199659.188 3
  20506060.109    -8870421.180 7  -6864316.667 2
  23662240.234    -5317650.200 6    285802.877 1
  21165092.961   -18488459.175 7 -14076868.274 2
  22283446.742   -12027997.983 6  -7314214.439 1
 90 10 24 12 11 45.0000000  0  5 02 06 15 13 09
  21372601.219     2769826.984 7   2212048.920 3
  20504394.289    -8879171.145 7  -6871134.820 2
  23664173.258    -5307477.016 6    293730.025 1
  21158648.844   -18522318.985 7 -14103252.532 2
  22275510.086   -12069703.444 6  -7346712.190 1
 90 10 24 12 12  0.0000000  0  5 02 06 15 13 09
  21375633.000     2785770.660 7   2224472.560 3
  20502750.570    -8887811.620 7  -6877867.654 2
  23666135.016    -5297163.537 6    301766.497 1
  21152230.633   -18556050.278 7 -14129536.655 2
  22267583.375   -12111363.976 6  -7379174.934 1
 90 10 24 12 12 15.0000000  0  5 02 06 15 13 09
  21378674.117     2801753.647 7   2236926.832 3
  20501126.078    -8896346.716 7  -6884518.377 2
  23668126.094    -5286714.271 6    309908.763 1
  21145836.188   -18589656.768 7 -14155723.522 2
  22259660.656   -12152983.528 6  -7411605.735 1
 90 10 24 12 12 30.0000000  0  5 02 06 15 13 09
  21381724.172     2817776.372 7   2249412.071 3
  20499521.875    -8904775.546 7  -6891086.297 2
  23670137.656    -5276128.621 6    318157.324 1
  21139464.273   -18623137.882 7 -14181812.684 2
  22251749.438   -12194561.105 6  -7444003.842 1
 90 10 24 12 12 45.0000000  0  5 02 06 15 13 09
  21384778.688     2833837.954 7   2261927.584 3
  20497938.117    -8913098.954 7  -6897572.067 3
  23672181.641    -5265407.735 6    326511.267 1
  21133115.555   -18656494.745 7 -14207805.039 2
  22243851.609   -12236097.687 6  -7476370.002 1
 90 10 24 12 13  0.0000000  0  5 02 06 15 13 09
  21387842.898     2849937.756 7   2274472.884 3
  20496374.492    -8921317.132 7  -6903975.842 3
  23674248.227    -5254552.321 6    334970.023 1
  21126792.742   -18689727.493 7 -14233700.678 2
  22235948.836   -12277593.210 6  -7508704.162 1
 90 10 24 12 13 15.0000000  0  5 02 06 15 13 09
  21390915.023     2866084.443 7   2287054.713 3
  20494832.828    -8929421.186 7  -6910290.688 2
  23676336.625    -5243553.501 6    343540.533 1
  21120493.320   -18722827.198 7 -14259492.649 2
  22228060.563   -12319038.971 6  -7540999.546 1
 90 10 24 12 13 30.0000000  0  5 02 06 15 13 09
  21393994.375     2882270.958 7   2299667.581 3
  20493310.773    -8937417.937 7  -6916521.923 2
  23678459.641    -5232418.348 6    352217.258 1
  21114218.992   -18755800.556 7 -14285186.167 2
  22220185.055   -12360441.425 6  -7573261.190 1
 90 10 24 12 13 45.0000000  0  5 02 06 15 13 09
  21397080.086     2898496.715 7   2312311.021 2
  20491809.523    -8945307.837 7  -6922669.895 2
  23680603.680    -5221147.919 6    360999.388 1
  21107968.227   -18788648.196 7 -14310781.721 2
  22212315.109   -12401801.016 6  -7605489.430 1
 90 10 24 12 14  0.0000000  0  5 02 06 15 13 09
  21400177.750     2914763.986 7   2324986.816 3
  20490328.438    -8953088.438 7  -6928732.701 2
  23682773.500    -5209739.715 6    369888.896 1
  21101743.227   -18821367.973 7 -14336277.645 2
  22204451.672   -12443115.472 6  -7637682.503 1
 90 10 24 12 14 15.0000000  0  5 02 06 15 13 09
  21403282.172     2931077.526 7   2337698.660 3
  20488870.031    -8960754.572 7  -6934706.308 2
  23684968.469    -5198188.908 6    378889.519 1
  21095540.750   -18853954.684 7 -14361669.879 2
  22196600.664   -12484379.427 6  -7669836.231 1
 90 10 24 12 14 30.0000000  0  5 02 06 15 13 09
  21406393.695     2947433.375 7   2350443.473 3
  20487432.695    -8968310.038 7  -6940593.690 2
  23687193.875    -5186499.387 5    387998.243 1
  21089365.266   -18886412.017 7 -14386961.300 2
  22188757.133   -12525596.408 6  -7701953.349 1
 90 10 24 12 14 45.0000000  0  5 02 06 15 13 09
  21409514.422     2963838.918 7   2363227.013 3
  20486016.898    -8975747.066 7  -6946388.769 2
  23689444.977    -5174663.819 6    397220.744 1
  21083213.641   -18918732.614 7 -14412146.166 2
  22180919.375   -12566758.893 6  -7734028.006 1
 90 10 24 12 15  0.0000000  0  5 02 06 15 13 09
  21412645.914     2980282.261 7   2376040.001 3
  20484621.594    -8983077.295 7  -6952100.637 2
  23691726.789    -5162694.393 6    406547.573 1
  21077088.039   -18950928.255 7 -14437233.675 2
  22173096.711   -12607878.404 6  -7766069.171 1
 90 10 24 12 15 15.0000000  0  5 02 06 15 13 09
  21415782.617     2996766.413 7   2388884.795 3
  20483248.844    -8990297.708 7  -6957726.931 2
  23694029.594    -5150588.210 6    415980.957 1
  21070984.938   -18982995.661 7 -14462221.251 2
  22165280.070   -12648951.635 6  -7798074.279 1
 90 10 24 12 15 30.0000000  0  5 02 06 15 13 09
  21418927.453     3013297.659 7   2401766.281 3
  20481896.648    -8997401.624 7  -6963262.446 2
  23696359.531    -5138339.042 5    425525.752 1
  21064907.516   -19014928.467 7 -14487103.951 2
  22157476.078   -12689971.950 6  -7830038.152 1
 90 10 24 12 15 45.0000000  0  5 02 06 15 13 09
  21422084.445     3029868.835 7   2414678.881 3
  20480564.711    -9004395.987 7  -6968712.600 2
  23698715.867    -5125954.023 6    435176.407 1
  21058856.438   -19046733.631 7 -14511887.188 2
  22149680.016   -12730946.325 6  -7861966.229 1
 90 10 24 12 16  0.0000000  0  5 02 06 15 13 09
  21425243.539     3046478.503 7   2427621.476 2
  20479255.359    -9011282.173 7  -6974078.458 2
  23701099.867    -5113434.348 6    444931.989 1
  21052827.563   -19078412.450 7 -14536571.970 2
  22141890.906   -12771875.952 6  -7893859.436 1
 90 10 24 12 16 15.0000000  0  5 02 06 15 13 09
  21428413.539     3063136.079 7   2440601.399 3
  20477967.523    -9018050.217 7  -6979352.257 2
  23703508.609    -5100771.008 5    454799.534 1
  21046825.242   -19109955.302 7 -14561150.811 2
  22134113.477   -12812750.728 6  -7925709.902 1
 90 10 24 12 16 30.0000000  0  5 02 06 15 13 09
  21431591.859     3079837.173 7   2453615.235 3
  20476700.375    -9024704.377 7  -6984537.315 2
  23705945.094    -5087968.441 6    464775.541 1
  21040848.516   -19141366.386 7 -14585626.973 2
  22126345.383   -12853574.830 6  -7957520.881 1
 90 10 24 12 16 45.0000000  0  5 02 06 15 13 09
  21434777.445     3096587.222 7   2466667.217 3
  20475457.344    -9031239.306 7  -6989629.464 2
  23708412.430    -5075021.512 6    474864.061 1
  21034897.227   -19172640.333 7 -14609996.273 2
  22118585.523   -12894342.979 6  -7989288.253 1
 90 10 24 12 17  0.0000000  0  5 02 06 15 13 09
  21437971.477     3113372.743 7   2479746.836 3
  20474233.992    -9037667.898 7  -6994638.756 2
  23710897.336    -5061943.215 5    485054.935 1
  21028969.398   -19203790.335 7 -14634268.991 2
  22110833.477   -12935068.114 6  -8021022.116 1
 90 10 24 12 17 15.0000000  0  5 02 06 15 13 09
  21441177.438     3130199.185 7   2492858.349 3
  20473031.344    -9043984.598 7  -6999560.858 2
  23713408.992    -5048728.410 5    495352.164 1
  21023066.375   -19234810.813 7 -14658440.783 2
  22103096.570   -12975744.247 6  -8052717.794 1
 90 10 24 12 17 30.0000000  0  5 02 06 15 13 09
  21444384.648     3147073.728 7   2506007.337 3
  20471852.516    -9050182.066 7  -7004390.057 2
  23715953.133    -5035370.008 5    505761.304 1
  21017188.391   -19265694.412 7 -14682505.912 2
  22095366.859   -13016364.052 6  -8084369.579 1
 90 10 24 12 17 45.0000000  0  5 02 06 15 13 09
  21447603.797     3163981.491 7   2519182.213 3
  20470692.398    -9056274.983 7  -7009137.781 2
  23718521.320    -5021882.809 5    516270.793 1
  21011335.836   -19296455.908 7 -14706475.906 2
  22087640.828   -13056942.140 6  -8115988.856 1
 90 10 24 12 18  0.0000000  0  5 02 06 15 13 09
  21450829.539     3180937.583 7   2532394.748 3
  20469556.258    -9062248.087 7  -7013792.146 2
  23721112.961    -5008252.113 5    526892.113 1
  21005508.734   -19327080.181 7 -14730338.968 2
  22079932.500   -13097463.237 6  -8147563.723 1
 90 10 24 12 18 15.0000000  0  5 02 06 15 13 09
  21454063.031     3197937.302 7   2545641.284 3
  20468441.906    -9068105.576 7  -7018356.423 2
  23723730.766    -4994482.638 5    537621.569 1
  20999705.289   -19357571.613 7 -14754098.516 2
  22072232.664   -13137931.478 6  -8179097.398 1
 90 10 24 12 18 30.0000000  0  5 02 06 15 13 09
  21457306.883     3214974.640 7   2558917.120 3
  20467348.352    -9073853.221 7  -7022835.105 2
  23726381.633    -4980580.275 6    548454.569 1
  20993927.164   -19387936.089 7 -14777759.143 2
  22064540.258   -13178352.574 6  -8210594.351 1
 90 10 24 12 18 45.0000000  0  5 02 06 15 13 09
  21460557.852     3232054.164 7   2572225.840 3
  20466275.781    -9079486.447 7  -7027224.629 2
  23729050.719    -4966540.480 5    559394.668 1
  20988174.539   -19418168.932 7 -14801317.191 2
  22056858.078   -13218721.546 6  -8242050.682 1
 90 10 24 12 19  0.0000000  0  5 02 06 15 13 09
  21463815.211     3249178.430 7   2585569.419 3
  20465225.867    -9085002.433 7  -7031522.801 2
  23731749.969    -4952360.609 5    570443.903 1
  20982445.875   -19448267.523 7 -14824770.625 2
  22049189.281   -13259035.758 6  -8273464.348 1
 90 10 24 12 19 15.0000000  0  5 02 06 15 13 09
  21467081.609     3266342.300 7   2598943.859 3
  20464198.063    -9090406.002 7  -7035733.371 2
  23734475.172    -4938046.208 5    581597.980 1
  20976742.563   -19478236.926 7 -14848123.398 2
  22041524.656   -13299300.060 6  -8304839.117 1
 90 10 24 12 19 30.0000000  0  5 02 06 15 13 09
  21470354.430     3283546.694 7   2612349.878 3
  20463191.250    -9095696.122 7  -7039855.543 2
  23737223.914    -4923596.408 5    592857.561 1
  20971065.672   -19508075.887 7 -14871374.525 2
  22033869.898   -13339513.120 6  -8336173.956 1
 90 10 24 12 19 45.0000000  0  5 02 06 15 13 09
  21473639.672     3300796.409 7   2625791.211 3
  20462207.094    -9100867.758 7  -7043885.386 2
  23739997.883    -4909006.496 6    604226.310 1
  20965413.203   -19537779.449 7 -14894520.151 2
  22026229.547   -13379669.574 6  -8367464.694 1
 90 10 24 12 20  0.0000000  0  5 02 06 15 13 09
  21476929.875     3318091.913 7   2639268.222 3
  20461245.523    -9105920.103 7  -7047822.280 2
  23742802.734    -4894276.068 5    615704.562 1
  20959786.609   -19567347.122 7 -14917559.886 2
  22018600.773   -13419769.029 6  -8398711.011 1
 90 10 24 12 20 15.0000000  0  5 02 06 15 13 09
  21480230.805     3335427.072 7   2652776.131 3
  20460305.969    -9110859.112 7  -7051670.857 2
  23745637.789    -4879411.196 6    627287.557 1
  20954184.336   -19596784.715 7 -14940498.263 2
  22010981.063   -13459817.174 6  -8429917.351 1
 90 10 24 12 20 30.0000000  0  5 02 06 15 13 09
  21483536.180     3352806.023 7   2666318.168 3
  20459388.234    -9115680.355 7  -7055427.667 2
  23748485.375    -4864407.685 5    638978.614 1
  20948607.648   -19626087.973 7 -14963331.961 2
  22003368.492   -13499809.370 6  -8461080.080 1
 90 10 24 12 20 45.0000000  0  5 02 06 15 13 09
  21486851.359     3370229.246 7   2679894.697 3
  20458493.336    -9120383.406 7  -7059092.385 2
  23751368.617    -4849265.608 6    650777.614 1
  20943057.891   -19655256.727 7 -14986060.850 2
  21995769.867   -13539745.199 6  -8492198.901 1
 90 10 24 12 21  0.0000000  0  5 02 06 15 13 09
  21490174.688     3387689.779 7   2693500.302 3
  20457619.719    -9124975.037 7  -7062670.278 2
  23754268.844    -4833992.129 5    662679.030 1
  20937530.672   -19684297.755 7 -15008690.215 2
  21988179.625   -13579631.242 6  -8523278.928 1
 90 10 24 12 21 15.0000000  0  5 02 06 15 13 09
  21493505.328     3405194.442 7   2707140.297 3
  20456768.602    -9129448.144 7  -7066155.816 2
  23757208.070    -4818580.520 6    674688.063 1
  20932031.063   -19713204.016 7 -15031214.562 2
  21980599.461   -13619460.140 6  -8554314.426 1
 90 10 24 12 21 30.0000000  0  5 02 06 15 13 09
  21496845.859     3422750.472 7   2720820.315 3
  20455941.359    -9133795.069 7  -7069543.032 2
  23760170.531    -4803022.936 6    686810.844 1
  20926558.133   -19741968.191 7 -15053628.198 2
  21973033.734   -13659224.540 6  -8585299.659 1
 90 10 24 12 21 45.0000000  0  5 02 06 15 13 09
  21500194.180     3440339.791 7   2734526.274 3
  20455134.594    -9138033.779 7  -7072845.923 2
  23763154.344    -4787337.767 6    699033.055 1
  20921107.664   -19770608.011 7 -15075944.938 2
  21965473.977   -13698941.922 6  -8616248.263 1
 90 10 24 12 22  0.0000000  0  5 02 06 15 13 09
  21503548.758     3457971.516 7   2748265.277 3
  20454351.133    -9142154.790 7  -7076057.096 2
  23766162.172    -4771516.274 6    711361.476 1
  20915682.852   -19799114.088 7 -15098157.452 2
  21957925.078   -13738602.925 6  -8647152.931 1
 90 10 24 12 22 15.0000000  0  5 02 06 15 13 09
  21506912.180     3475649.616 7   2762040.404 3
  20453590.555    -9146154.100 7  -7079173.444 2
  23769195.977    -4755554.440 5    723799.255 1
  20910283.813   -19827482.442 7 -15120262.657 2
  21950393.820   -13778203.447 6  -8678010.473 1
 90 10 24 12 22 30.0000000  0  5 02 06 15 13 09
  21510284.703     3493374.251 7   2775851.815 3
  20452851.859    -9150031.566 7  -7082194.846 2
  23772262.789    -4739452.348 6    736346.334 1
  20904912.148   -19855713.211 7 -15142260.653 2
  21942867.461   -13817743.217 6  -8708820.672 1
 90 10 24 12 22 45.0000000  0  5 02 06 15 13 09
  21513665.211     3511138.906 7   2789694.404 3
  20452135.414    -9153793.280 7  -7085126.050 2
  23775352.844    -4723216.694 6    748997.479 1
  20899565.617   -19883812.468 7 -15164156.167 2
  21935354.000   -13857228.073 6  -8739588.078 1
 90 10 24 12 23  0.0000000  0  5 02 06 15 13 09
  21517051.422     3528944.308 7   2803568.735 3
  20451441.414    -9157438.402 7  -7087966.403 2
  23778466.930    -4706846.824 6    761753.228 1
  20894243.156   -19911779.784 7 -15185948.873 2
  21927848.906   -13896657.177 6  -8770312.047 1
 90 10 24 12 23 15.0000000  0  5 02 06 15 13 09
  21520452.898     3546798.110 7   2817480.781 2
  20450773.234    -9160959.049 7  -7090709.765 2
  23781612.172    -4690334.844 6    774619.686 1
  20888946.992   -19939607.314 7 -15207632.655 2
  21920359.758   -13936022.436 6  -8800986.267 1
 90 10 24 12 23 30.0000000  0  5 02 06 15 13 09
  21523854.188     3564690.867 7   2831423.186 2
  20450124.859    -9164364.356 7  -7093363.253 2
  23784777.828    -4673690.262 5    787589.485 1
  20883677.594   -19967304.158 7 -15229214.600 2
  21912882.039   -13975333.027 6  -8831617.886 1
 90 10 24 12 23 45.0000000  0  5 02 06 15 13 09
  21527266.789     3582626.484 7   2845398.986 2
  20449498.297    -9167650.369 7  -7095923.781 2
  23787975.063    -4656909.758 6    800665.181 1
  20878432.688   -19994866.266 7 -15250691.562 2
  21905409.969   -14014584.706 6  -8862203.598 1
 90 10 24 12 24  0.0000000  0  5 02 06 15 13 09
  21530689.273     3600605.933 7   2859408.942 2
  20448896.813    -9170815.727 7  -7098390.293 2
  23791190.648    -4639992.136 6    813847.737 1
  20873213.617   -20022292.614 7 -15272062.733 2
  21897952.422   -14053776.005 6  -8892742.259 1
 90 10 24 12 24 15.0000000  0  5 02 06 15 13 09
  21534120.414     3618622.538 7   2873447.845 2
  20448317.367    -9173867.023 7  -7100767.928 2
  23794434.656    -4622944.495 6    827131.604 1
  20868018.297   -20049589.871 7 -15293333.314 2
  21890505.539   -14092913.806 6  -8923239.234 1
 90 10 24 12 24 30.0000000  0  5 02 06 15 13 09
  21537556.016     3636685.571 7   2887522.932 2
  20447758.609    -9176794.893 7  -7103049.385 2
  23797710.016    -4605757.646 6    840523.944 1
  20862849.805   -20076748.798 7 -15314496.112 2
  21883069.797   -14131988.026 6  -8953686.667 1
 90 10 24 12 24 45.0000000  0  5 02 06 15 13 09
  21541001.594     3654795.582 7   2901634.622 2
  20447225.484    -9179598.400 7  -7105233.933 2
  23801000.938    -4588431.016 6    854025.207 1
  20857708.898   -20103768.359 7 -15335550.300 2
  21875645.461   -14170997.959 6  -8984084.005 1
 90 10 24 12 25  0.0000000  0  5 02 06 15 13 09
  21544455.953     3672946.889 7   2915778.492 3
  20446714.359    -9182283.147 7  -7107325.945 2
  23804328.820    -4570970.585 6    867630.715 1
  20852591.664   -20130654.410 7 -15356500.465 2
  21868236.039   -14209949.091 6  -9014435.527 1
 90 10 24 12 25 15.0000000  0  5 02 06 15 13 09
  21547916.742     3691137.215 7   2929952.767 2
  20446226.461    -9184851.231 7  -7109327.045 2
  23807677.984    -4553378.387 6    881338.918 1
  20847501.875   -20157409.089 7 -15377348.260 2
  21860831.219   -14248843.299 6  -9044742.688 1
 90 10 24 12 25 30.0000000  0  5 02 06 15 13 09
  21551388.328     3709377.223 7   2944165.752 2
  20445761.727    -9187291.666 7  -7111228.682 2
  23811049.406    -4535644.002 6    895157.911 1
  20842438.453   -20184021.553 7 -15398085.235 2
  21853445.961   -14287669.605 6  -9074996.944 1
 90 10 24 12 25 45.0000000  0  5 02 06 15 13 09
  21554868.039     3727660.388 7   2958412.370 2
  20445320.383    -9189611.054 7  -7113035.998 2
  23814452.797    -4517774.245 6    909082.377 1
  20837398.961   -20210498.490 7 -15418716.605 2
  21846066.102   -14326434.155 6  -9105203.074 1
 90 10 24 12 26  0.0000000  0  5 02 06 15 13 09
  21558356.781     3745995.275 7   2972699.290 2
  20444903.078    -9191800.461 7  -7114742.030 2
  23817877.570    -4499760.728 6    923118.882 1
  20832388.180   -20236831.065 7 -15439235.487 2
  21838705.508   -14365128.194 6  -9135354.260 1
 90 10 24 12 26 15.0000000  0  5 02 06 15 13 09
  21561853.992     3764374.018 7   2987020.387 2
  20444509.266    -9193867.484 7  -7116352.696 2
  23821331.063    -4481611.309 6    937261.269 1
  20827402.977   -20263027.164 7 -15459648.022 2
  21831354.094   -14403759.111 6  -9165456.268 1
 90 10 24 12 26 30.0000000  0  5 02 06 15 13 09
  21565360.727     3782795.994 7
  20444140.750    -9195812.535 7  -7117868.318 2
  23824807.320    -4463326.519 5
  20822443.289   -20289087.160 7 -15479954.500 2
  21824012.039   -14442327.160 6  -9195509.276 1
 90 10 24 12 26 45.0000000  0  5 02 06 15 13 09
  21568873.578     3801258.419 7
  20443792.500    -9197638.297 7  -7119290.988 2
  23828313.336    -4444909.575 5
  20817510.445   -20315013.806 7 -15500157.074 2
  21816685.781   -14480835.000 6  -9225515.371 1
 90 10 24 12 27  0.0000000  0  5 02 06 15 13 09
  21572393.344     3819761.841 7
  20443468.297    -9199344.035 7  -7120620.134 2
  23831845.547    -4426359.949 5
  20812601.656   -20340806.399 7 -15520255.193 2
  21809372.117   -14519281.664 6  -9255473.796 1
 90 10 24 12 27 15.0000000  0  5 02 06 15 13 09
  21575923.883     3838311.121 7   3044633.698 2
  20443166.672    -9200924.628 7  -7121851.768 2
  23835399.078    -4407672.870 5    994875.616 1
  20807720.242   -20366460.139 7 -15540245.114 2
  21802065.484   -14557661.829 6  -9285380.407 1
 90 10 24 12 27 30.0000000  0  5 02 06 15 13 09
  21579462.461     3856910.432 7   3059126.663 2
  20442891.547    -9202375.950 7  -7122982.670 2
  23838988.563    -4388844.388 6   1009547.123 1
  20802865.406   -20391970.793 7 -15560123.534 2
  21794775.805   -14595971.369 6  -9315231.985 1
 90 10 24 12 27 45.0000000  0  5 02 06 15 13 09
  21583012.188     3875554.133 7   3073654.222 2
  20442638.078    -9203703.258 7  -7124016.935 2
  23842590.398    -4369880.266 5   1024324.356 1
  20798036.977   -20417343.776 7 -15579894.685 2
  21787498.180   -14634215.365 6  -9345032.493 1
 90 10 24 12 28  0.0000000  0  5 02 06 15 13 09
  21586566.484     3894240.215 7   3088214.803 2
  20442409.750    -9204908.478 7  -7124956.066 2
  23846224.594    -4350782.683 5   1039205.583 1
  20793234.961   -20442581.350 7 -15599560.313 2
  21780234.500   -14672395.598 6  -9374783.313 1
 90 10 24 12 28 15.0000000  0  5 02 06 15 13 09
  21590131.875     3912968.890 7   3102808.567 2
  20442202.867    -9205991.261 7  -7125799.795 2
  23849884.414    -4331551.634 5   1054190.824 1
  20788458.188   -20467682.964 7 -15619120.008 2
  21772978.828   -14710511.597 6  -9404484.080 1
 90 10 24 12 28 30.0000000  0  5 02 06 15 13 09
  21593705.305     3931743.272 7   3117437.955 2
  20442020.359    -9206948.046 7  -7126545.339 2
  23853573.141    -4312184.123 5   1069282.374 1
  20783707.109   -20492645.432 7 -15638571.272 2
  21765741.359   -14748559.686 6  -9434131.928 2
 90 10 24 12 28 45.0000000  0  5 02 06 15 13 09
  21597283.203     3950559.931 7   3132100.284 2
  20441861.883    -9207782.453 7  -7127195.529 2
  23857283.914    -4292683.718 6   1084477.484 1
  20778983.133   -20517472.132 7 -15657916.743 2
  21758510.914   -14786543.326 6  -9463729.560 2
 90 10 24 12 29  0.0000000  0  5 02 06 15 13 09
  21600872.797     3969421.042 7   3146797.244 2
  20441726.336    -9208492.147 7  -7127748.538 2
  23861021.242    -4273048.245 6   1099777.839 1
  20774285.016   -20542160.979 7 -15677154.799 2
  21751295.039   -14824459.930 6  -9493274.959 2
 90 10 24 12 29 15.0000000  0  5 02 06 15 13 09
  21604470.086     3988322.339 7   3161525.520 2
  20441614.453    -9209080.911 7  -7128207.315 2
  23864778.078    -4253282.331 5   1115179.841 1
  20769612.727   -20566716.093 7 -15696288.646 2
  21744092.336   -14862313.434 6  -9522771.182 2
 90 10 24 12 29 30.0000000  0  5 02 06 15 13 09
  21608075.734     4007266.108 7   3176286.893 2
  20441526.648    -9209546.317 7  -7128569.969 2
  23868565.500    -4233383.755 5   1130685.223 1
  20764966.375   -20591135.077 7 -15715316.416 2
  21736901.883   -14900100.996 6  -9552216.029 2
 90 10 24 12 29 45.0000000  0  5 02 06 15 13 09
  21611688.953     4026251.166 7   3191080.441 2
  20441462.703    -9209889.477 7  -7128837.368 2
  23872380.313    -4213353.913 6   1146292.877 1
  20760345.266   -20615418.996 7 -15734238.943 2
  21729723.367   -14937823.452 6  -9581610.138 2
 90 10 24 12 30  0.0000000  0  5 02 06 15 13 09
  21615308.773     4045281.188 7   3205909.024 2
  20441419.234    -9210106.492 7
  23876214.258    -4193189.024 5   1162005.772 1
  20755749.781   -20639564.187 7 -15753053.367 2
  21722557.375   -14975477.080 6  -9610950.621 2
 90 10 24 12 30 15.0000000  0  5 02 06 15 13 09
  21618936.969     4064355.115 7   3220771.814 2
  20441401.109    -9210198.202 7
  23880074.711    -4172889.983 5   1177823.204 1
  20751181.953   -20663571.416 7 -15771760.291 2
  21715405.922   -15013062.287 6  -9640237.785 2
 90 10 24 12 30 30.0000000  0  5 02 06 15 13 09
  21622576.125     4083470.462 7   3235666.886 2
  20441408.242    -9210167.000 7
  23883970.141    -4152460.151 6   1193742.522 1
  20746638.906   -20687443.238 7 -15790361.707 2
  21708266.984   -15050581.628 6  -9669473.624 2
 90 10 24 12 30 45.0000000  0  5 02 06 15 13 09
  21626222.445     4102633.663 7   3250599.245 2
  20441437.531    -9210006.381 7
  23887880.406    -4131892.938 6   1209768.901 1
  20742122.938   -20711173.353 7 -15808852.692 2
  21701141.500   -15088028.202 6  -9698652.765 2
 90 10 24 12 31  0.0000000  0  5 02 06 15 13 09
  21629879.094     4121848.977 7   3265572.212 2
  20441496.289    -9209711.670 7
  23891819.664    -4111184.317 5   1225905.493 1
  20737634.820   -20734757.425 7 -15827229.885 2
  21694029.500   -15125397.394 6  -9727771.607 2
 90 10 24 12 31 15.0000000  0  5 02 06 15 13 09
  21633545.484     4141108.576 7   3280579.682 2
  20441576.156    -9209290.830 7
  23895784.305    -4090342.363 5   1242145.968 1
  20733173.258   -20758203.082 7 -15845499.217 2
  21686935.211   -15162696.789 6  -9756836.054 2
 90 10 24 12 31 30.0000000  0  5 02 06 15 13 09
  21637215.922     4160406.831 7   3295617.282 2
  20441678.523    -9208749.127 7        -0.27612
  23899775.125    -4069372.662 5   1258485.979 1
  20728736.937   -20781515.820 7 -15863664.983 2
  21679845.406   -15199931.703 6  -9785850.263 2
 90 10 24 12 31 45.0000000  0  5 02 06 15 13 09
  21640899.688     4179743.537 7   3310684.842 2
  20441802.070    -9208086.607 7       515.974 2
  23903788.219    -4048275.721 5   1274925.140 1
  20724325.875   -20804695.945 7 -15881727.412 2
  21672773.867   -15237101.788 6  -9814813.956 2
 90 10 24 12 32  0.0000000  0  5 02 06 15 13 09
  21644581.883     4199121.927 7   3325784.882 2
  20441952.414    -9207299.862 7      1129.022 2
  23907830.008    -4027048.629 5   1291465.708 1
  20719941.102   -20827740.112 7 -15899683.895 2
  21665712.984   -15274203.738 6  -9843724.558 2
 90 10 24 12 32 15.0000000  0  5 02 06 15 13 09
  21648280.680     4218544.472 7   3340919.330 2
  20442126.539    -9206386.353 7      1840.848 2
  23911898.688    -4005688.880 5   1308109.651 1
  20715582.109   -20850645.719 7 -15917532.413 2
  21658666.836   -15311234.720 6  -9872579.858 1
 90 10 24 12 32 30.0000000  0  5 02 06 15 13 09
  21651990.398     4238017.653 7   3356093.232 2
  20442326.742    -9205339.487 7      2656.589 2
  23915984.109    -3984190.210 5   1324861.849 1
  20711250.977   -20873406.326 7 -15935267.945 2
  21651634.922   -15348187.834 6  -9901374.481 2
 90 10 24 12 32 45.0000000  0  5 02 06 15 13 09
  21655700.977     4257535.768 7   3371302.151 2
  20442551.016    -9204164.605 7      3572.080 2
  23920104.328    -3962558.233 5   1341717.906 1
  20706944.945   -20896027.832 7 -15952895.084 2
  21644615.625   -15385068.598 6  -9930112.734 1
 90 10 24 12 33  0.0000000  0  5 02 06 15 13 09
  21659423.844     4277098.156 7   3386545.564 2
  20442797.320    -9202862.526 7      4586.689 2
  23924247.328    -3940794.008 6   1358677.021 1
  20702668.023   -20918510.845 7 -15970414.307 2
  21637610.531   -15421877.151 6  -9958794.713 2
 90 10 24 12 33 15.0000000  0  5 02 06 15 13 09
  21663151.602     4296700.967 7   3401820.479 2
  20443069.828    -9201436.729 7      5697.703 2
  23928411.219    -3918901.835 5   1375735.854 1
  20698414.992   -20940859.107 7 -15987828.533 2
  21630619.820   -15458617.327 6  -9987423.405 2
 90 10 24 12 33 30.0000000  0  5 02 06 15 13 09
  21666892.523     4316343.905 7   3417126.664 2
  20443364.586    -9199887.529 7      6904.868 2
  23932603.219    -3896882.028 5   1392894.136 1
  20694188.094   -20963072.867 7 -16005137.946 2
  21623641.992   -15495289.034 6 -10015998.753 2
 90 10 24 12 33 45.0000000  0  5 02 06 15 13 09
  21670637.336     4336029.185 7   3432465.835 2
  20443682.523    -9198212.275 7      8210.263 2
  23936818.195    -3874732.181 6   1410153.735 1
  20689987.789   -20985149.641 7 -16022340.625 2
  21616677.063   -15531889.657 6 -10044518.706 2
 90 10 24 12 34  0.0000000  0  5 02 06 15 13 09
  21674391.281     4355759.582 7   3447840.163 2
  20444026.305    -9196408.308 7      9615.950 2
  23941058.719    -3852450.191 6   1427516.301 1
  20685811.313   -21007086.822 7 -16039434.520 2
  21609725.398   -15568415.869 6 -10072980.677 1
 90 10 24 12 34 15.0000000  0  5 02 06 15 13 09
  21678153.984     4375537.546 7   3463251.563 2
  20444394.648    -9194472.858 7     11124.098 2
  23945324.727    -3830033.477 5   1444983.860 1
  20681665.008   -21028882.189 7 -16056417.913 2
  21602790.266   -15604865.377 6 -10101382.883 2
 90 10 24 12 34 30.0000000  0  5 02 06 15 13 09
  21681927.250     4395362.196 7   3478699.334 2
  20444787.359    -9192406.765 7     12734.044 2
  23949612.852    -3807483.190 5   1462555.509 1
  20677543.813   -21050536.277 7 -16073291.225 2
  21595869.734   -15641238.539 6 -10129725.591 1
 90 10 24 12 34 45.0000000  0  5 02 06 15 13 09
  21685708.375     4415227.512 7   3494178.799 2
  20445205.711    -9190215.829 7     14441.263 2
  23953927.500    -3784805.454 5   1480226.457 1
  20673450.414   -21072054.886 7 -16090058.964 2
  21588959.867   -15677540.874 6 -10158013.110 1
 90 10 24 12 35  0.0000000  0  5 02 06 15 13 09
  21689497.648     4435136.858 7   3509692.566 2
  20445647.117    -9187896.409 7     16248.602 2
  23958267.141    -3761997.026 5   1497999.244 1
  20669381.797   -21093434.749 7 -16106718.587 2
  21582065.695   -15713768.877 6 -10186242.712 2
 90 10 24 12 35 15.0000000  0  5 02 06 15 13 09
  21693295.750     4455099.739 7   3525248.051 2
  20446112.617    -9185439.114 7     18163.381 2
  23962632.086    -3739048.483 5   1515881.208 1
  20665340.391   -21114666.286 7 -16123262.636 2
  21575188.875   -15749912.625 6 -10214406.663 2
 90 10 24 12 35 30.0000000  0  5 02 06 15 13 09
  21697102.961     4475109.184 7   3540839.820 2
  20446606.609    -9182850.759 7     20180.284 2
  23967028.813    -3715967.223 5   1533866.584 1
  20661328.922   -21135756.715 7 -16139696.731 2
  21568325.156   -15785978.953 6 -10242510.283 2
 90 10 24 12 35 45.0000000  0  5 02 06 15 13 09
  21700917.195     4495153.335 7   3556458.631 2
  20447121.492    -9180142.906 7     22290.298 2
  23971444.711    -3692765.283 5   1551946.004 1
  20657339.016   -21156717.678 7 -16156029.940 2
  21561475.047   -15821979.223 6 -10270562.425 1
 90 10 24 12 36  0.0000000  0  5 02 06 15 13 09
  21704738.117     4515241.935 7   3572112.086 2
  20447662.023    -9177305.861 7     24500.980 2
  23975883.836    -3669433.586 5   1570126.514 1
  20653376.141   -21177539.576 7 -16172254.788 2
  21554636.891   -15857903.473 6 -10298555.340 1
 90 10 24 12 36 15.0000000  0  5 02 06 15 13 09
  21708569.984     4535380.022 7   3587804.094 2
  20448226.883    -9174334.286 7     26816.497 2
  23980353.422    -3645966.586 5   1588412.473 1
  20649442.016   -21198217.403 7 -16188367.377 2
  21547815.492   -15893746.293 6 -10326484.794 1
 90 10 24 12 36 30.0000000  0  5 02 06 15 13 09
  21712414.461     4555565.458 7   3603533.003 2
  20448818.266    -9171229.983 7     29235.432 2
  23984842.750    -3622366.668 5   1606802.008 1
  20645532.805   -21218753.150 7 -16204369.247 2
  21541011.422   -15929509.257 6 -10354352.029 1
 90 10 24 12 36 45.0000000  0  5 02 06 15 13 09
  21716262.883     4575791.845 7   3619293.818 2
  20449432.930    -9167999.394 7     31752.775 2
  23989351.914    -3598640.483 5   1625289.928 1
  20641651.102   -21239153.002 7 -16220265.232 2
  21534223.156   -15965198.669 6 -10382161.949 1
 90 10 24 12 37  0.0000000  0  5 02 06 15 13 09
  21720119.445     4596060.203 7   3635087.338 2
  20450070.758    -9164641.241 7     34369.520 2
  23993888.164    -3574787.239 5   1643876.876 1
  20637795.633   -21259415.946 7 -16236054.529 2
  21527443.672   -16000812.953 7 -10409913.325 2
 90 10 24 12 37 15.0000000  0  5 02 06 15 13 09
  21723986.227     4616371.610 7   3650914.403 2
  20450734.781    -9161154.607 7     37086.376 2
  23998453.477    -3550806.061 5   1662563.497 1
  20633965.164   -21279541.074 7 -16251736.440 2
  21520681.227   -16036351.029 7 -10437605.320 2
 90 10 24 12 37 30.0000000  0  5 02 06 15 13 09
  21727859.961     4636725.056 7   3666774.225 2
  20451422.156    -9157540.493 7     39902.567 2
  24003041.148    -3526698.378 5   1681348.686 1
  20630162.023   -21299529.725 7 -16267312.005 2
  21513932.836   -16071813.809 7 -10465238.645 1
 90 10 24 12 37 45.0000000  0  5 02 06 15 13 09
  21731736.672     4657118.425 7   3682665.153 2
  20452134.273    -9153800.614 7     42816.760 2
  24007656.258    -3502466.077 5   1700230.975 1
  20626384.445   -21319383.796 7 -16282782.700 2
  21507198.313   -16107202.954 6 -10492814.594 2
 90 10 24 12 38  0.0000000  0  5 02 06 15 13 09
  21735628.031     4677559.523 7   3698593.272 2
  20452872.133    -9149926.932 7     45835.211 2
  24012290.883    -3478101.573 5   1719216.297 1
  20622633.109   -21339095.033 7 -16298142.102 2
  21500480.430   -16142510.042 7 -10520326.595 2
 90 10 24 12 38 15.0000000  0  5 02 06 15 13 09
  21739526.141     4698040.485 7   3714552.460 2
  20453632.141    -9145927.328 7     48951.787 2
  24016953.594    -3453613.553 5   1738297.853 1
  20618908.141   -21358671.394 7 -16313396.405 2
  21493774.664   -16177742.690 6 -10547780.594 2
 90 10 24 12 38 30.0000000  0  5 02 06 15 13 09
  21743431.234     4718572.418 7   3730551.362 2
  20454418.680    -9141790.638 7     52175.179 2
  24021640.594    -3428991.014 5   1757484.222 1
  20615210.813   -21378102.168 7 -16328537.254 2
  21487086.383   -16212889.703 6 -10575167.868 2
 90 10 24 12 38 45.0000000  0  5 02 06 15 13 09
  21747347.281     4739151.109 7   3746586.698 2
  20455233.750    -9137520.820 7     55502.310 2
  24026347.602    -3404237.975 5   1776772.294 1
  20611539.531   -21397391.476 7 -16343567.872 2
  21480414.281   -16247954.836 7 -10602491.337 2
 90 10 24 12 39  0.0000000  0  5 02 06 15 13 09
  21751276.781     4759780.025 7   3762661.171 2
  20456070.805    -9133114.353 7     58935.923 2
  24031082.438    -3379351.225 5   1796164.561 1
  20607896.609   -21416535.792 7 -16358485.518 2
  21473756.969   -16282934.104 7 -10629747.900 2
 90 10 24 12 39 15.0000000  0  5 02 06 15 13 09
  21755205.109     4780448.370 7   3778766.366 2
  20456933.234    -9128581.966 7     62467.653 2
  24035847.094    -3354341.684 5   1815652.484 1
  20604279.734   -21435545.728 7 -16373298.450 2
  21467114.523   -16317838.322 7 -10656945.981 2
 90 10 24 12 39 30.0000000  0  5 02 06 15 13 09
  21759148.039     4801159.797 7   3794905.133 2
  20457820.375    -9123919.770 7     66100.531 2
  24040630.625    -3329206.203 5   1835238.540 1
  20600688.172   -21454417.839 7 -16388003.979 2
  21460488.391   -16352663.263 7 -10684082.287 2
 90 10 24 12 39 45.0000000  0  5 02 06 15 13 09
  21763100.344     4821914.350 7   3811077.506 2
  20458732.227    -9119127.456 7     69834.804 2
  24045437.242    -3303944.708 5   1854922.825 1
  20597122.367   -21473151.862 7 -16402601.917 2
  21453877.125   -16387408.619 6 -10711156.581 2
 90 10 24 12 40  0.0000000  0  5 02 06 15 13 09
  21767053.422     4842717.972 7   3827288.115 2
  20459670.773    -9114198.925 7     73675.211 2
  24050268.141    -3278551.193 5   1874709.960 1
  20593585.422   -21491741.884 7 -16417087.636 2
  21447281.133   -16422067.934 7 -10738163.829 2
 90 10 24 12 40 15.0000000  0  5 02 06 15 13 09
  21771023.727     4863568.423 7   3843535.219 2
  20460633.898    -9109136.624 7     77619.865 2
  24055125.258    -3253028.553 5   1894597.696 1
  20590074.289   -21510190.486 7 -16431463.160 2
  21440701.805   -16456643.540 7 -10765105.849 2
 90 10 24 12 40 30.0000000  0  5 02 06 15 13 09
  21775000.797     4884466.303 7   3859819.272 2
  20461622.039    -9103939.596 7     81669.494 2
  24060005.352    -3227376.309 5   1914586.473 1
  20586591.688   -21528496.904 7 -16445727.896 2
  21434137.773   -16491134.110 7 -10791981.610 2
 90 10 24 12 40 45.0000000  0  5 02 06 15 13 09
  21778984.734     4905412.081 7   3876140.651 2
  20462636.867    -9098607.516 7     85824.360 2
  24064909.867    -3201594.299 5   1934676.341 1
  20583134.281   -21546660.676 7 -16459881.475 2
  21427591.695   -16525539.183 7 -10818790.746 2
 90 10 24 12 41  0.0000000  0  5 02 06 15 13 09
  21782980.266     4926395.774 7   3892491.573 2
  20463675.625    -9093150.113 7     90076.881 2
  24069839.805    -3175692.449 5   1954859.581 1
  20579703.758   -21564691.691 7 -16473931.614 2
  21421057.328   -16559868.285 7 -10845540.690 2
 90 10 24 12 41 15.0000000  0  5 02 06 15 13 09
  21786982.313     4947423.695 7   3908876.965 2
  20464739.500    -9087560.869 7     94432.137 2
  24074792.063    -3149664.924 5   1975140.752 1
  20576299.617   -21582583.609 7 -16487873.359 2
  21414541.258   -16594114.781 7 -10872226.261 2
 90 10 24 12 41 30.0000000  0  5 02 06 15 13 09
  21790991.281     4968496.237 7   3925297.125 2
  20465827.891    -9081839.469 7     98890.367 2
  24079772.430    -3123511.379 5   1995520.115 1
  20572919.859   -21600336.287 7 -16501706.606 2
  21408039.492   -16628277.978 7 -10898846.926 2
 90 10 24 12 41 45.0000000  0  5 02 06 15 13 09
  21795010.406     4989617.511 7   3941755.255 2
  20466943.172    -9075981.696 7    103454.865 2
  24084770.078    -3097228.181 5   2016000.503 1
  20569570.273   -21617945.727 7 -16515428.240 2
  21401555.523   -16662353.595 7 -10925399.349 2
 90 10 24 12 42  0.0000000  0  5 02 06 15 13 09
  21799040.133     5010784.894 7   3958249.312 2
  20468083.070    -9069989.928 7    108123.770 2
  24089797.531    -3070818.313 5   2036579.617 1
  20566244.672   -21635414.544 7 -16529040.295 2
  21395087.680   -16696343.807 7 -10951885.219 2
 90 10 24 12 42 15.0000000  0  5 02 06 15 13 09
  21803074.563     5031996.513 7   3974777.840 2
  20469247.117    -9063865.906 7    112895.736 2
  24094847.281    -3044283.661 5   2057255.953 1
  20562947.469   -21652744.407 7 -16542544.077 2
  21388636.055   -16730249.919 7 -10978305.555 2
 90 10 24 12 42 30.0000000  0  5 02 06 15 13 09
  21807121.656     5053256.486 7   3991344.042 2
  20470440.133    -9057605.447 7    117774.021 2
  24099917.344    -3017620.220 5   2078032.644 1
  20559676.586   -21669931.368 7 -16555936.509 2
  21382201.289   -16764067.879 7 -11004657.208 2
 90 10 24 12 42 45.0000000  0  5 02 06 15 13 09
  21811175.297     5074566.932 7   4007949.586 2
  20471657.953    -9051206.444 7    122760.246 2
  24105018.438    -2990825.827 5   2098911.390 1
  20556433.742   -21686973.249 7 -16569215.887 2
  21375783.234   -16797795.108 7 -11030938.152 2
 90 10 24 12 43  0.0000000  0  5 02 06 15 13 09
  21815238.359     5095911.907 7   4024582.026 2
  20472898.813    -9044684.673 7    127842.145 2
  24110141.648    -2963917.193 5   2119879.104 1
  20553216.023   -21703886.086 7 -16582394.719 2
  21369377.945   -16831447.400 7 -11057160.712 2
 90 10 24 12 43 15.0000000  0  5 02 06 15 13 09
  21819306.695     5117302.742 7   4041250.202 2
  20474164.766    -9038028.861 7    133028.488 2
  24115283.336    -2936882.977 5   2140944.713 1
  20550024.336   -21720658.480 7 -16595464.103 2
  21362990.070   -16865012.981 7 -11083315.700 2
 90 10 24 12 43 30.0000000  0  5 02 06 15 13 09
  21823388.703     5138744.332 7   4057957.929 2
  20475457.125    -9031233.757 7    138323.374 2
  24120454.969    -2909718.452 5   2162111.879 1
  20546859.914   -21737285.496 7 -16608420.213 2
  21356621.156   -16898486.533 7 -11109398.981 2
 90 10 24 12 43 45.0000000  0  5 02 06 15 13 09
  21827476.258     5160232.604 7   4074702.030 2
  20476777.883    -9024303.224 7    143723.791 2
  24125647.758    -2882427.726 5   2183377.346 1
  20543722.211   -21753771.331 7 -16621266.310 2
  21350268.992   -16931871.673 7 -11135413.369 2
 90 10 24 12 44  0.0000000  0  6 02 12 06 15 13 09
  21831575.289     5181769.239 7   4091483.817 2
  24854451.742          -0.39214
  20478122.047    -9017235.569 7    149231.051 2
  24130863.414    -2855009.562 5   2204742.126 1
  20540613.266   -21770114.296 7 -16634001.081 2
  21343931.992   -16965166.569 7 -11161357.434 2
 90 10 24 12 44 15.0000000  0  6 02 12 06 15 13 09
  21835681.633     5203347.836 7   4108298.301 2
  24845098.875      -49140.284 4
  20479491.664    -9010037.318 7    154840.078 2
  24136101.594    -2827470.953 4   2226200.743 1
  20537528.977   -21786320.919 7 -16646629.610 2
  21337612.727   -16998377.416 7 -11187236.011 2
 90 10 24 12 44 30.0000000  0  6 02 12 06 15 13 09
  21839797.734     5224971.675 7   4125148.036 2
  24835746.922      -98286.568 4
  20480886.547    -9002705.040 7    160553.538 2
  24141366.781    -2799808.466 4   2247755.930 1
  20534471.633   -21802387.921 7 -16659149.341 2
  21331309.320   -17031500.653 7 -11213046.317 2
 90 10 24 12 44 45.0000000  0  6 02 12 06 15 13 09
  21843920.586     5246645.631 7   4142036.823 2
  24826396.039     -147434.001 4
  20482308.555    -8995233.612 7    166375.431 2
  24146654.828    -2772017.428 5   2269411.265 1
  20531440.938   -21818310.366 7 -16671556.434 2
  21325024.938   -17064530.931 7 -11238784.189 2
 90 10 24 12 45  0.0000000  0  6 02 12 06 15 13 09
  21848054.609     5268362.167 7   4158958.790 2
  24817033.195     -196590.056 3
  20483755.727    -8987630.553 7    172299.891 2
  24151969.422    -2744105.971 5   2291160.413 1
  20528437.789   -21834096.160 7 -16683857.048 2
  21318756.828   -17097475.494 7 -11264455.267 2
 90 10 24 12 45 15.0000000  0  6 02 12 06 15 13 09
  21852197.078     5290127.180 7   4175918.532 2
  24807682.445     -245748.404 3
  20485228.797    -8979889.687 7    178331.730 2
  24157303.031    -2716067.911 5   2313008.250 1
  20525460.234   -21849739.044 7 -16696046.300 2
  21312505.602   -17130327.854 7 -11290054.497 2
 90 10 24 12 45 30.0000000  0  6 02 12 06 15 13 09
  21856346.320     5311936.380 7   4192912.707 2
  24798328.375     -294913.406 2
  20486727.109    -8972015.454 7    184467.497 2
  24162658.898    -2687908.104 5   2334950.944 1
  20522511.047   -21865243.439 7 -16708127.636 2
  21306267.914   -17163092.228 7 -11315585.169 2
 90 10 24 12 45 45.0000000  0  6 02 12 06 15 13 09
  21860505.430     5333791.813 7   4209942.908 2
  24788975.133     -344082.806 2
  20488250.703    -8964005.740 7    190708.829 2
  24168046.984    -2659624.736 5   2356989.885 1
  20519587.328   -21880607.479 7 -16720099.608 2
  21300049.164   -17195766.386 7 -11341045.545 2
 90 10 24 12 46  0.0000000  0  6 02 12 06 15 13 09
  21864671.953     5355695.846 7   4227010.979 2
  24779614.703     -393253.991 2        -0.44011
  20489801.664    -8955858.136 7    197057.612 2
  24173453.063    -2631215.694 5   2379126.768 1
  20516690.648   -21895828.849 7 -16731960.410 2
  21293851.992   -17228347.761 7 -11366433.624 2
 90 10 24 12 46 15.0000000  0  6 02 12 06 15 13 09
  21868849.828     5377643.782 7   4244113.256 2
  24770253.930     -442431.489 2    -38320.545 1
  20491377.438    -8947577.193 7    203510.293 2
  24178880.797    -2602686.076 5   2401357.672 1
  20513820.094   -21910912.357 7 -16743713.782 2
  21287668.008   -17260840.412 7 -11391752.566 2
 90 10 24 12 46 30.0000000  0  6 02 12 06 15 13 09
  21873034.133     5399638.483 7   4261251.976 2
  24760900.477     -491612.268 2    -76643.227 1
  20492979.656    -8939159.942 7    210069.186 2
  24184331.086    -2574033.019 5   2423684.675 1
  20510976.734   -21925855.191 7 -16755357.546 2
  21281502.586   -17293241.299 7 -11417000.001 2
 90 10 24 12 46 45.0000000  0  6 02 12 06 15 13 09
  21877229.508     5421682.027 7   4278428.760 2
  24751541.727     -540794.052 2   -114966.690 1
  20494607.305    -8930604.250 7    216735.958 2
  24189804.563    -2545254.624 5   2446109.401 1
  20508160.000   -21940655.238 7 -16766890.042 2
  21275355.250   -17325548.090 7 -11442174.114 2
 90 10 24 12 47  0.0000000  0  6 02 12 06 15 13 09
  21881436.891     5443784.498 7   4295651.455 2
  24742187.563     -589966.549 2   -153282.874 1
  20496263.320    -8921900.029 7    223518.469 2
  24195309.875    -2516341.373 5   2468639.194 1
  20505373.156   -21955302.633 7 -16778303.591 2
  21269226.781   -17357750.349 7 -11467266.776 2
 90 10 24 12 47 15.0000000  0  6 02 12 06 15 13 09
  21885649.570     5465929.672 7   4312907.430 2
  24732822.969     -639145.672 2   -191604.286 1
  20497944.727    -8913063.190 7    230404.316 2
  24200836.914    -2487309.378 5   2491261.517 1
  20502611.008   -21969813.188 7 -16789610.507 2
  21263114.938   -17389863.841 7 -11492290.270 2
 90 10 24 12 47 30.0000000  0  6 02 12 06 15 13 09
  21889871.484     5488105.863 7   4330187.569 2
  24723463.898     -688342.790 2   -229939.663 1
  20499649.891    -8904105.503 7    237384.328 2
  24206380.289    -2458170.694 5   2513966.964 1
  20499874.180   -21984198.772 7 -16800820.048 2
  21257020.258   -17421899.923 7 -11517253.440 2
 90 10 24 12 47 45.0000000  0  6 02 12 06 15 13 09
  21894096.070     5510322.731 7   4347499.405 2
  24714097.547     -737548.205 2   -268281.504 1
  20501378.938    -8895017.108 7    244466.196 2
  24211945.477    -2428915.877 5   2536762.929 1
  20497162.820   -21998449.989 7 -16811924.884 2
  21250937.977   -17453848.740 7 -11542148.617 2
 90 10 24 12 48  0.0000000  0  6 02 12 06 15 13 09
  21898334.469     5532585.780 7   4364847.230 2
  24704742.195     -786756.259 2   -306625.452 1
  20503133.813    -8885792.717 7    251654.027 2
  24217536.844    -2399539.891 5   2559653.265 1
  20494476.727   -22012561.447 7 -16822920.820 2
  21244878.227   -17485704.603 7 -11566971.360 2
 90 10 24 12 48 15.0000000  0  6 02 12 06 15 13 09
  21902582.688     5554899.818 7   4382234.785 2
  24695373.188     -835961.797 2   -344967.410 1
  20504916.391    -8876427.051 7    258951.946 2
  24223151.672    -2370038.120 5   2582641.648 1
  20491819.047   -22026528.295 7 -16833804.072 2
  21238835.969   -17517462.031 7 -11591717.402 2
 90 10 24 12 48 30.0000000  0  6 02 12 06 15 13 09
  21906836.242     5577264.767 7   4399662.011 2
  24686003.195     -885164.690 2   -383307.295 1
  20506726.258    -8866920.226 7    266359.858 2
  24228790.406    -2340410.757 5   2605727.880 1
  20489188.297   -22040350.686 7 -16844574.760 2
  21232810.406   -17549120.973 7 -11616386.700 2
 90 10 24 12 48 45.0000000  0  6 02 12 06 15 13 09
  21911101.719     5599678.917 7   4417127.576 2
  24676651.211     -934366.504 3   -421646.327 1
  20508562.008    -8857274.015 7    273876.383 2
  24234451.375    -2310659.688 5   2628910.528 1
  20486585.391   -22054030.073 7 -16855234.020 2
  21226803.586   -17580682.817 7 -11640980.337 2
 90 10 24 12 49  0.0000000  0  6 02 12 06 15 13 09
  21915374.984     5622131.766 7   4434623.295 2
  24667282.664     -983577.449 3   -459992.527 1
  20510421.266    -8847498.691 7    281493.517 2
  24240131.633    -2280795.603 5   2652181.239 1
  20484008.438   -22067577.229 7 -16865790.237 2
  21220812.750   -17612157.624 7 -11665506.156 2
 90 10 24 12 49 15.0000000  0  6 02 12 06 15 13 09
  21919656.203     5644635.816 7   4452158.907 2
  24657917.766    -1032784.805 3   -498335.926 1
  20512308.508    -8837581.743 7    289221.008 2
  24245838.078    -2250806.471 5   2675549.395 1
  20481456.750   -22080980.020 7 -16876233.964 2
  21214844.383   -17643532.725 7 -11689954.272 2
 90 10 24 12 49 30.0000000  0  6 02 12 06 15 13 09
  21923947.578     5667185.104 7   4469729.770 2
  24648554.867    -1081994.591 3   -536681.134 1
  20514222.164    -8827529.201 7    297054.158 2
  24251566.570    -2220698.757 5   2699009.914 1
  20478933.406   -22094244.555 7 -16886569.960 2
  21208890.422   -17674813.842 6 -11714329.163 2
 90 10 24 12 49 45.0000000  0  6 02 12 06 15 13 09
  21928248.320     5689788.790 7   4487343.023 2
  24639190.602    -1131197.286 4   -575020.886 1
  20516162.242    -8817331.839 7    305000.149 2
  24257323.461    -2190463.238 5   2722570.023 1
  20476437.180   -22107361.499 7 -16896790.949 2
  21202958.000   -17705991.367 7 -11738623.330 2
 90 10 24 12 50  0.0000000  0  6 02 12 06 15 13 09
  21932557.406     5712431.605 7   4504986.769 2
  24629824.945    -1180407.961 4   -613366.851 1
  20518128.211    -8807004.757 7    313047.226 2
  24263099.750    -2160115.755 5   2746217.419 1
  20473965.836   -22120346.164 7 -16906908.865 2
  21197041.617   -17737080.321 7 -11762848.485 2
 90 10 24 12 50 15.0000000  0  6 02 12 06 15 13 09
  21936875.383     5735118.991 7   4522665.242 2
  24620463.734    -1229620.925 4   -651714.605 1
  20520118.555    -8796542.419 7    321199.693 2
  24268894.258    -2129650.786 5   2769956.311 1
  20471520.922   -22133193.174 7 -16916919.515 2
  21191145.000   -17768075.084 7 -11787000.237 2
 90 10 24 12 50 30.0000000  0  6 02 12 06 15 13 09
  21941201.219     5757853.227 7   4540380.221 2
  24611100.031    -1278833.679 5   -690062.170 1
  20522135.883    -8785942.611 7    329459.281 2
  24274714.164    -2099066.247 5   2793788.409 1
  20469102.547   -22145900.225 7 -16926821.107 2
  21185265.672   -17798972.787 7 -11811076.363 2
 90 10 24 12 50 45.0000000  0  6 02 12 06 15 13 09
  21945536.078     5780628.335 7   4558127.049 2
  24601734.492    -1328052.050 5   -728414.143 1
  20524177.828    -8775211.267 7    337821.367 2
  24280556.125    -2068368.786 5   2817708.495 1
  20466710.258   -22158473.589 7 -16936618.528 2
  21179403.336   -17829779.104 7 -11835081.276 2
 90 10 24 12 51  0.0000000  0  6 02 12 06 15 13 09
  21949877.984     5803444.590 7   4575905.941 2
  24592363.695    -1377275.464 5   -766770.027 1
  20526245.500    -8764347.833 7    346286.375 2
  24286420.500    -2037558.065 5   2841716.806 1
  20464344.281   -22170913.064 7 -16946311.620 2
  21173557.258   -17860493.808 7 -11859014.803 2
 90 10 24 12 51 15.0000000  0  6 02 12 06 15 13 09
  21954228.695     5826310.460 7   4593723.491 2
  24583000.086    -1426494.995 5   -805122.872 1
  20528338.055    -8753343.780 7    354860.958 2
  24292307.563    -2006625.624 5   2865820.020 1
  20462003.641   -22183209.929 7 -16955893.587 2
  21167732.055   -17891107.623 7 -11882869.717 2
 90 10 24 12 51 30.0000000  0  6 02 12 06 15 13 09
  21958588.484     5849225.031 6   4611578.989 2
  24573633.680    -1475711.624 5   -843473.498 1
  20530458.586    -8742200.200 7    363544.264 2
  24298213.648    -1975573.142 5   2890016.723 1
  20459689.883   -22195365.292 7 -16965365.293 2
  21161925.117   -17921621.375 7 -11906646.658 2
 90 10 24 12 51 45.0000000  0  6 02 12 06 15 13 09
  21962957.742     5872183.541 6   4629468.727 2
  24564270.445    -1524929.897 5   -881825.361 1
  20532604.852    -8730921.672 7    372332.727 2
  24304147.086    -1944405.487 5   2914303.167 1
  20457403.750   -22207384.114 7 -16974730.598 2
  21156135.844   -17952039.449 7 -11930349.043 2
 90 10 24 12 52  0.0000000  0  6 02 12 06 15 13 09
  21967338.609     5895195.304 6   4647399.965 2
  24554903.883    -1574140.456 5   -920171.240 1
  20534779.117    -8719499.095 7    381233.434 2
  24310099.617    -1913113.804 5   2938686.323 1
  20455143.617   -22219257.233 7 -16983982.373 2
  21150368.555   -17982352.604 7 -11953969.677 2
 90 10 24 12 52 15.0000000  0  6 02 12 06 15 13 09
  21971725.414     5918256.028 6   4665369.347 2
  24545542.023    -1623347.295 5   -958514.193 1
  20536979.711    -8707936.585 7    390243.179 3
  24316079.438    -1881702.500 5   2963162.593 1
  20452911.508   -22230989.093 7 -16993124.076 2
  21144619.727   -18012564.511 7 -11977511.417 2
 90 10 24 12 52 30.0000000  0  6 02 12 06 15 13 09
  21976120.984     5941356.820 6   4683369.950 2
  24536175.531    -1672559.061 5   -996861.001 1
  20539204.336    -8696242.851 7    399355.177 2
  24322078.398    -1850180.712 5   2987725.065 1
  20450703.906   -22242588.566 7 -17002162.618 2
  21138886.742   -18042683.884 7 -12000981.053 2
 90 10 24 12 52 45.0000000  0  6 02 12 06 15 13 09
  21980524.000     5964500.666 6   4701404.107 2
  24526806.359    -1721772.536 5  -1035209.155 1
  20541454.234    -8684415.035 7    408571.657 2
  24328094.688    -1818546.085 5   3012375.385 1
  20448522.414   -22254052.849 7 -17011095.819 2
  21133173.992   -18072707.347 7 -12024375.949 2
 90 10 24 12 53  0.0000000  0  6 02 12 06 15 13 09
  21984938.359     5987688.061 6   4719472.196 2
  24517443.242    -1770986.938 5  -1073558.034 1
  20543732.211    -8672452.386 7    417893.199 3
  24334138.367    -1786797.902 5   3037114.214 1
  20446367.359   -22265381.513 7 -17019923.343 2
  21127478.625   -18102633.971 7 -12047695.390 2
 90 10 24 12 53 15.0000000  0  6 02 12 06 15 13 09
  21989356.953     6010910.499 6   4737567.587 2
  24508075.078    -1820210.546 5  -1111914.079 1
  20546031.242    -8660363.282 7    427313.274 2
  24340199.500    -1754944.997 5   3061934.670 1
  20444235.320   -22276582.875 7 -17028651.668 2
  21121802.539   -18132471.914 7 -12070945.724 2
 90 10 24 12 53 30.0000000  0  6 02 12 06 15 13 09
  21993784.672     6034184.392 6   4755703.085 2
  24498713.219    -1869426.685 5  -1150264.276 1
  20548360.070    -8648131.514 7    436844.521 3
  24346283.289    -1722971.486 5   3086849.043 1
  20442131.125   -22287640.767 7 -17037268.201 2
  21116144.211   -18162204.490 7 -12094113.954 2
 90 10 24 12 53 45.0000000  0  6 02 12 06 15 13 09
  21998223.477     6057502.355 6   4773872.906 2
  24489348.711    -1918642.502 5  -1188614.273 1
  20550714.070    -8635764.239 7    446481.356 2
  24352390.094    -1690884.659 5   3111851.797 1
  20440052.164   -22298562.566 7 -17045778.687 2
  21110505.188   -18191838.895 7 -12117205.688 2
 90 10 24 12 54  0.0000000  0  6 02 12 06 15 13 09
  22002668.563     6080860.187 6   4792073.803 2
  24479978.656    -1967861.997 5  -1226967.060 1
  20553091.969    -8623265.703 7    456220.473 3
  24358515.570    -1658689.161 5   3136939.125 1
  20437998.641   -22309352.643 7 -17054186.533 2
  21104884.320   -18221378.953 7 -12140223.911 2
 90 10 24 12 54 15.0000000  0  6 02 12 06 15 13 09
  22007121.922     6104263.487 6   4810310.127 2
  24470611.242    -2017079.452 5  -1265318.339 1
  20555496.578    -8610630.322 7    466066.224 2
  24364665.195    -1626379.736 5   3162115.305 1
  20435972.227   -22320005.646 7 -17062487.565 2
  21099281.836   -18250818.727 7 -12163163.985 2
 90 10 24 12 54 30.0000000  0  6 02 12 06 15 13 09
  22011584.688     6127712.410 6   4828582.003 2
  24461249.023    -2066294.351 5  -1303667.566 1
  20557927.375    -8597857.842 7    476018.801 2
  24370836.406    -1593956.559 5   3187380.144 1
  20433971.563   -22330521.547 7 -17070681.769 2
  21093698.266   -18280157.847 7 -12186025.630 2
 90 10 24 12 54 45.0000000  0  6 02 12 06 15 13 09
  22016056.922     6151217.437 6   4846897.597 2
  24451887.297    -2115496.087 5  -1342006.577 1
  20560385.406    -8584937.873 7    486086.307 2
  24377028.602    -1561409.617 5   3212741.336 1
  20431998.664   -22340889.903 7 -17078760.998 2
  21088137.063   -18309385.467 7 -12208800.394 2
 90 10 24 12 55  0.0000000  0  6 02 12 06 15 13 09
  22020540.508     6174771.036 6   4865251.035 2
  24442521.758    -2164691.926 5  -1380340.983 1
  20562870.016    -8571877.885 7    496262.921 2
  24383242.477    -1528746.659 5   3238193.018 1
  20430050.906   -22351118.304 7 -17086731.175 2
  21082595.273   -18338508.944 7 -12231494.001 2
 90 10 24 12 55 15.0000000  0  6 02 12 06 15 13 09
  22025028.719     6198362.602 6   4883634.064 2
  24433161.313    -2213892.238 5  -1418678.865 1
  20565380.484    -8558688.445 7    506540.405 3
  24389478.445    -1495978.282 5   3263726.778 1
  20428129.922   -22361217.452 7 -17094600.634 2
  21077069.305   -18367538.291 7 -12254114.263 2
 90 10 24 12 55 30.0000000  0  6 02 12 06 15 13 09
  22029525.992     6221998.292 6   4902051.468 2
  24423799.188    -2263090.540 5  -1457015.201 1
  20567916.203    -8545363.146 7    516923.753 2
  24395735.242    -1463098.442 5   3289347.417 1
  20426233.313   -22371181.377 7 -17102364.722 2
  21071565.273   -18396467.204 7 -12276656.262 2
 90 10 24 12 55 45.0000000  0  6 02 12 06 15 13 09
  22034029.766     6245677.611 6   4920502.878 2
  24414437.141    -2312287.026 5  -1495350.053 1
  20570477.648    -8531902.644 7    527412.452 2
  24402013.453    -1430108.150 5   3315054.125 1
  20424363.273   -22381010.427 7 -17110023.713 2
  21066080.516   -18425295.877 7 -12299120.156 2
 90 10 24 12 56  0.0000000  0  6 02 12 06 15 13 09
  22038547.008     6269410.612 6   4938996.108 2
  24405081.406    -2361471.618 5  -1533675.736 1
  20573067.430    -8518296.734 7    538014.458 3
  24408314.672    -1396997.587 5   3340854.559 1
  20422519.820   -22390695.044 7 -17117570.157 2
  21060614.227   -18454013.968 7 -12321497.880 2
 90 10 24 12 56 15.0000000  0  6 02 12 06 15 13 09
  22043075.727     6293197.850 6   4957531.605 2
  24395718.797    -2410643.718 5  -1571991.635 1
  20575684.344    -8504545.128 7    548729.991 2
  24414639.070    -1363767.127 5   3366748.418 1
  20420705.297   -22400234.602 7 -17125003.572 2
  21055171.000   -18482620.589 7 -12343788.752 2
 90 10 24 12 56 30.0000000  0  6 02 12 06 15 13 09
  22047606.930     6317023.644 6   4976097.142 2
  24386362.406    -2459818.745 5  -1610309.824 1
  20578325.789    -8490663.499 7    559546.842 2
  24420981.492    -1330432.316 5   3392723.551 1
  20418914.289   -22409644.867 7 -17132336.242 2
  21049745.992   -18511131.192 7 -12366004.799 2
 90 10 24 12 56 45.0000000  0  6 02 12 06 15 13 09
  22052151.492     6340893.431 6   4994696.967 2
  24377002.070    -2508990.659 4  -1648625.573 1
  20580991.844    -8476645.808 7    570469.713 2
  24427346.234    -1296987.269 5   3418784.638 1
  20417150.164   -22418920.240 7 -17139563.798 2
  21044338.727   -18539539.763 7 -12388141.340 2
 90 10 24 12 57  0.0000000  0  6 02 12 06 15 13 09
  22056704.203     6364820.674 7   5013341.558 2
  24367648.922    -2558145.947 4  -1686928.387 1
  20583688.469    -8462478.882 7    581508.879 2
  24433732.125    -1263419.401 5   3444941.396 1
  20415412.414   -22428047.693 7 -17146676.092 2
  21038954.813   -18567832.754 7 -12410187.822 2
 90 10 24 12 57 15.0000000  0  6 02 12 06 15 13 09
  22061265.227     6388793.269 6   5032021.477 2
  24358298.102    -2607296.597 4  -1725227.536 1
  20586410.875    -8448175.043 7    592654.723 3
  24440142.203    -1229741.453 5   3471183.951 1
  20413701.023   -22437039.365 7 -17153682.577 2
  21033590.688   -18596022.133 7 -12432153.564 2
 90 10 24 12 57 30.0000000  0  6 02 12 06 15 13 09
  22065833.094     6412809.825 6   5050735.670 2
  24348950.117    -2656443.650 5  -1763523.994 1
  20589158.180    -8433735.344 7    603906.431 3
  24446572.391    -1195954.779 5   3497511.200 1
  20412015.016   -22445896.683 7 -17160584.378 2
  21028246.992   -18624108.560 7 -12454039.085 2
 90 10 24 12 57 45.0000000  0  6 02 12 06 15 13 09
  22070413.797     6436872.172 6   5069485.536 2
  24339594.984    -2705585.046 4  -1801815.953 1
  20591932.133    -8419158.173 7    615265.266 2
  24453022.828    -1162058.066 5   3523924.201 1
  20410357.039   -22454618.241 7 -17167380.390 2
  21022920.156   -18652090.113 7 -12475842.888 2
 90 10 24 12 58  0.0000000  0  6 02 12 06 15 13 09
  22075000.789     6460979.770 6   5088270.663 2
  24330241.297    -2754721.043 4  -1840103.740 1
  20594731.891    -8404443.913 7    626730.919 2
  24459493.680    -1128051.842 5   3550422.541 1
  20408721.289   -22463204.541 7 -17174071.010 2
  21017617.789   -18679967.057 7 -12497565.177 2
 90 10 24 12 58 15.0000000  0  6 02 12 06 15 13 09
  22079599.820     6485129.667 6   5107088.751 2
  24320888.563    -2803854.347 3  -1878389.441 1
  20597558.813    -8389595.408 7    638301.180 3
  24465984.734    -1093939.382 5   3577003.651 1
  20407113.914   -22471658.591 7 -17180658.575 2
  21012330.203   -18707741.964 7 -12519207.955 2
 90 10 24 12 58 30.0000000  0  6 02 12 06 15 13 09
  22084203.703     6509325.730 7   5125942.810 2
  24311545.703    -2852981.008 3  -1916669.925 1
  20600408.828    -8374608.907 7    649978.970 3
  24472499.898    -1059717.203 5   3603670.292 1
  20405529.719   -22479976.587 7 -17187140.125 2
  21007067.086   -18735410.567 7 -12540767.898 2
 90 10 24 12 58 45.0000000  0  6 02 12 06 15 13 09
  22088815.453     6533566.964 6   5144832.064 2
  24302199.508    -2902101.847 3  -1954945.880 1
  20603287.359    -8359485.433 7    661763.494 3
  24479029.305    -1025386.800 5   3630421.182 1
  20403973.352   -22488159.894 7 -17193516.721 2
  21001820.836   -18762973.784 7 -12562245.727 2
 90 10 24 12 59  0.0000000  0  6 02 12 06 15 13 09
  22093436.141     6557850.300 6   5163754.131 2
  24292850.086    -2951219.545 4  -1993219.384 1
  20606190.305    -8344228.037 7    673652.368 3
  24485584.461     -990951.034 5   3657254.262 1
  20402440.930   -22496211.389 7 -17199790.609 2
  20996594.359   -18790434.333 7 -12583643.551 2
 90 10 24 12 59 15.0000000  0  6 02 12 06 15 13 09
  22098065.398     6582179.726 7   5182712.105 2
  24283507.406    -3000329.991 4  -2031487.253 1
  20609120.797    -8328832.659 7    685648.763 3
  24492154.203     -956406.573 4   3684171.969 1
  20400933.664   -22504127.382 7 -17205958.908 2
  20991390.000   -18817787.877 7 -12604957.996 2
 90 10 24 12 59 30.0000000  0  6 02 12 06 15 13 09
  22102704.484     6606557.914 6   5201708.085 2
  24274163.953    -3049430.212 4  -2069747.129 1
  20612077.594    -8313296.528 7    697754.836 3
  24498753.188     -921750.816 5   3711176.474 1
  20399455.227   -22511905.094 7 -17212019.460 2
  20986205.586   -18845031.430 7 -12626186.730 2
 90 10 24 12 59 45.0000000  0  6 02 12 06 15 13 09
  22107352.977     6630982.009 6   5220739.834 2
  24264815.461    -3098522.953 3  -2108001.190 1
  20615059.734    -8297622.895 7    709968.053 3
  24505364.953     -886987.185 5   3738264.969 1
  20398000.188   -22519548.000 7 -17217974.964 2
  20981042.391   -18872167.728 7 -12647331.891 2
 90 10 24 13  0  0.0000000  0  6 02 12 06 15 13 09
  22112007.367     6655450.242 6   5239805.978 2
  24255478.289    -3147609.685 4  -2146250.588 1
  20618069.492    -8281813.201 7    722287.291 3
  24512002.508     -852117.858 4   3765435.866 1
  20396571.187   -22527057.637 7 -17223826.620 2
  20975899.188   -18899198.070 7 -12668394.488 2
 90 10 24 13  0 15.0000000  0  6 02 12 06 15 13 09
  22116675.086     6679964.243 6   5258907.780 2
  24246139.805    -3196688.281 4  -2184493.608 1
  20621102.688    -8265865.694 7    734713.917 2
  24518659.047     -817141.051 4   3792690.495 1
  20395167.852   -22534432.458 7 -17229573.233 2
  20970774.555   -18926120.266 7 -12689372.817 2
 90 10 24 13  0 30.0000000  0  6 02 12 06 15 13 09
  22121347.188     6704519.696 6   5278041.887 2
  24236805.438    -3245763.066 4  -2222733.698 1
  20624163.281    -8249784.766 7    747244.504 3
  24525331.578     -782061.898 4   3820024.872 1
  20393788.953   -22541677.060 7 -17235218.369 2
  20965672.047   -18952938.438 7 -12710270.084 2
 90 10 24 13  0 45.0000000  0  6 02 12 06 15 13 09
  22126028.273     6729119.370 6   5297210.446 2
  24227465.617    -3294831.164 4  -2260968.547 1
  20627248.281    -8233567.984 7    759880.957 3
  24532029.602     -746877.693 4   3847441.132 1
  20392436.016   -22548789.112 7 -17240760.224 2
  20960588.859   -18979649.964 7 -12731084.257 2
 90 10 24 13  1  0.0000000  0  6 02 12 06 15 13 09
  22130716.000     6753767.915 6   5316417.089 2
  24218127.961    -3343887.402 5  -2299194.182 1
  20630362.531    -8217210.313 7    772627.186 3
  24538746.711     -711583.759 4   3874942.874 1
  20391108.461   -22555763.824 7 -17246195.058 2
  20955526.898   -19006249.604 7 -12751811.244 2
 90 10 24 13  1 15.0000000  0  6 02 12 06 15 13 09
  22135418.586     6778465.551 6   5335661.980 2
  24208798.594    -3392931.366 5  -2337410.204 1
  20633500.188    -8200711.741 7    785483.211 3
  24545482.094     -676180.324 4   3902529.920 1
  20389807.938   -22562600.921 7 -17251522.662 2
  20950485.844   -19032736.599 7 -12772450.452 2
 90 10 24 13  1 30.0000000  0  6 02 12 06 15 13 09
  22140127.422     6803210.436 6   5354943.698 2
  24199466.594    -3441964.500 5  -2375617.851 1
  20636666.516    -8184073.972 7    798447.705 3
  24552240.266     -640669.762 4   3930200.497 1
  20388532.172   -22569302.333 7 -17256744.531 2
  20945467.633   -19059112.758 7 -12793003.296 2
 90 10 24 13  1 45.0000000  0  6 02 12 06 15 13 09
  22144842.266     6827997.277 6   5374258.097 2
  24190140.320    -3490991.990 5  -2413821.067 1
  20639858.609    -8167302.333 7    811516.512 3
  24559013.523     -605057.652 3   3957950.146 1
  20387281.352   -22575873.718 7 -17261865.088 2
  20940469.500   -19085383.159 7 -12813473.731 2
 90 10 24 13  2  0.0000000  0  6 02 12 06 15 13 09
  22149569.086     6852835.690 6   5393612.687 2
  24180809.055    -3540004.040 5  -2452012.271 1
  20643077.477    -8150387.307 7    824697.046 3
  24565815.047     -569334.689 4   3985786.233 1
  20386057.430   -22582305.585 7 -17266876.926 2
  20935491.734   -19111537.799 7 -12833853.970 2
 90 10 24 13  2 15.0000000  0  6 02 12 06 15 13 09
  22154305.484     6877727.696 6   5413009.038 2
  24171485.102    -3588998.448 5  -2490189.683 1
  20646323.906    -8133327.019 7    837990.771 3
  24572632.977     -533499.213 3   4013709.935 1
  20384860.523   -22588596.092 7 -17271778.614 2
  20930537.023   -19137574.061 7 -12854141.957 2
 90 10 24 13  2 30.0000000  0  6 02 12 06 15 13 09
  22159050.867     6902668.268 6   5432443.232 2
  24162168.406    -3637979.885 5  -2528357.036 1
  20649598.008    -8116126.121 7    851394.061 3
  24579469.203     -497556.393 3   4041717.320 1
  20383689.875   -22594750.429 7 -17276574.198 2
  20925603.547   -19163497.167 7 -12874341.771 2
 90 10 24 13  2 45.0000000  0  6 02 12 06 15 13 09
  22163808.492     6927658.427 6   5451916.067 2
  24152851.773    -3686947.086 5  -2566513.277 1
  20652897.813    -8098783.913 7    864907.466 3
  24586335.719     -461505.538 3   4069808.877 1
  20382543.906   -22600767.594 7 -17281262.890 1
  20920693.430   -19189305.397 7 -12894452.075 2
 90 10 24 13  3  0.0000000  0  6 02 12 06 15 13 09
  22168574.000     6952699.952 6   5471428.922 2
  24143533.148    -3735898.143 5  -2604656.928 1
  20656224.945    -8081298.455 7    878532.490 3
  24593214.117     -425345.152 3   4097985.759 1
  20381425.602   -22606646.210 7 -17285843.627 2
  20915804.086   -19214997.001 7 -12914471.501 2
 90 10 24 13  3 15.0000000  0  6 02 12 06 15 13 09
  22173348.734     6977787.621 6   5490977.739 2
  24134219.750    -3784838.005 5  -2642791.880 1
  20659579.844    -8063675.149 7    892264.932 3
  24600115.680     -389080.815 3   4126243.676 1
  20380332.578   -22612391.477 7 -17290320.453 2
  20910937.195   -19240576.799 7 -12934403.804 2
 90 10 24 13  3 30.0000000  0  6 02 12 06 15 13 09
  22178130.266     7002917.785 6   5510559.669 2
  24124910.633    -3833769.901 5  -2680920.590 1
  20662957.305    -8045917.463 7    906102.085 3
  24607033.758     -352716.383 3   4154579.592 1
  20379263.281   -22618007.408 7 -17294696.501 1
  20906090.219   -19266048.082 7 -12954251.550 2
 90 10 24 13  3 45.0000000  0  6 02 12 06 15 13 09
  22182919.914     7028088.057 6   5530172.850 2
  24115598.117    -3882696.095 5  -2719044.866 1
  20666361.078    -8028027.895 7    920042.003 3
  24613974.852     -316254.821 4   4182991.176 1
  20378219.078   -22623496.259 7 -17298973.521 2
  20901262.602   -19291412.838 7 -12974016.291 2
 90 10 24 13  4  0.0000000  0  6 02 12 06 15 13 09
  22187718.219     7053306.542 6   5549823.596 2
  24106291.523    -3931608.411 5  -2757158.340 1
  20669793.023    -8009998.496 7    934090.878 3
  24620935.031     -279688.311 4   4211484.532 1
  20377200.102   -22628850.338 7 -17303145.527 2
  20896457.664   -19316662.809 7 -12993691.585 2
 90 10 24 13  4 15.0000000  0  6 02 12 06 15 13 09
  22192529.391     7078577.398 6   5569515.154 2
  24096988.805    -3980502.210 5  -2795257.385 1
  20673250.352    -7991824.919 7    948252.103 3
  24627910.953     -243012.788 3   4240062.842 1
  20376207.547   -22634065.410 7 -17307209.215 2
  20891674.781   -19341793.593 7 -13013274.006 2
 90 10 24 13  4 30.0000000  0  6 02 12 06 15 13 09
  22197346.570     7103899.922 6   5589246.972 2
  24087686.281    -4029378.092 5  -2833342.452 1
  20676736.828    -7973508.020 7    962525.004 3
  24634910.445     -206229.636 3   4268725.019 1
  20375241.680   -22639142.333 7 -17311165.255 2
  20886915.188   -19366805.477 7 -13032763.781 2
 90 10 24 13  4 45.0000000  0  6 02 12 06 15 13 09
  22202175.977     7129277.211 6   5609021.460 2
  24078391.727    -4078232.671 5  -2871410.939 1
  20680249.125    -7955044.748 7    976911.968 3
  24641932.203     -169335.799 4   4297473.436 1
  20374302.984   -22644078.096 7 -17315011.292 2
  20882179.898   -19391695.136 7 -13052158.312 2
 90 10 24 13  5  0.0000000  0  6 02 12 06 15 13 09
  22207013.109     7154701.402 6   5628832.501 2
  24069096.727    -4127073.555 5  -2909468.754 1
  20683790.453    -7936443.000 7    991406.825 3
  24648971.547     -132339.552 4   4326301.643 1
  20373389.164   -22648880.979 7 -17318753.799 2
  20877464.156   -19416470.283 7 -13071463.615 2
 90 10 24 13  5 15.0000000  0  6 02 12 06 15 13 09
  22211860.188     7180173.909 6   5648681.183 2
  24059801.461    -4175899.070 5  -2947514.592 1
  20687355.375    -7917701.433 7   1006010.637 3
  24656028.164      -95239.846 4   4355210.494 1
  20372501.242   -22653549.696 7 -17322391.756 1
  20872773.281   -19441129.166 7 -13090678.319 2
 90 10 24 13  5 30.0000000  0  6 02 12 06 15 13 09
  22216718.547     7205697.234 6   5668569.469 2
  24050516.000    -4224706.160 5  -2985546.058 1
  20690949.813    -7898817.143 7   1020725.659 3
  24663111.750      -58034.107 4   4384201.944 1
  20371637.820   -22658081.551 7 -17325923.070 2
  20868102.773   -19465668.496 7 -13109799.873 2
 90 10 24 13  5 45.0000000  0  6 02 12 06 15 13 09
  22221584.211     7231271.539 6   5688497.477 2
  24041232.195    -4273494.617 5  -3023563.013 1
  20694571.305    -7879790.350 7   1035551.726 3
  24670210.242      -20722.493 4   4413275.918 1
  20370802.133   -22662476.773 7 -17329347.912 1
  20863455.469   -19490088.276 7 -13128828.261 2
 90 10 24 13  6  0.0000000  0  6 02 12 06 15 13 09
  22226459.641     7256897.838 6   5708465.999 2
  24031952.836    -4322263.208 5  -3061564.488 1
  20698218.734    -7860619.865 7   1050489.764 3
  24677333.602       16695.328 5   4442432.634 1
  20369991.445   -22666734.487 7 -17332665.606 2
  20858831.813   -19514387.179 7 -13147762.467 2
 90 10 24 13  6 15.0000000  0  6 02 12 06 15 13 09
  22231344.891     7282567.739 6   5728468.500 2
  24022673.227    -4371020.063 5  -3099556.831 1
  20701891.750    -7841314.393 7   1065532.977 3
  24684470.773       54210.804 4   4471665.441 1
  20369206.367   -22670863.231 7 -17335882.801 2
  20854229.211   -19538573.088 7 -13166608.627 2
 90 10 24 13  6 30.0000000  0  5 02 12 06 13 09
  22236237.219     7308276.590 6   5748501.348 2
  24013397.648    -4419769.601 5  -3137543.457 1
  20705590.133    -7821878.461 7   1080677.857 3
  20368443.680   -22674867.893 7 -17339003.314 1
  20849647.344   -19562650.562 7 -13185370.286 2
 90 10 24 13  6 45.0000000  0  5 02 12 06 13 09
  22241141.625     7334036.139 6   5768573.706 2
  24004123.227    -4468499.849 5  -3175515.065 1
  20709316.289    -7802300.484 7   1095933.412 3
  20367707.359   -22678736.991 7 -17342018.188 1
  20845088.672   -19586607.693 7 -13204038.177 2
 90 10 24 13  7  0.0000000  0  5 02 12 06 13 09
  22246051.734     7359846.019 6   5788685.279 2
  23994854.117    -4517210.789 5  -3213471.612 1
  20713068.656    -7782580.652 7   1111299.511 3
  20366996.289   -22682470.818 7 -17344927.658 1
  20840553.516   -19610444.344 7 -13222612.184 2
 90 10 24 13  7 15.0000000  0  5 02 12 06 13 09
  22250971.031     7385700.469 6   5808831.579 2
  23985587.367    -4565907.821 5  -3251417.323 1
  20716846.766    -7762724.707 7   1126771.668 3
  20366310.336   -22686075.240 7 -17347736.295 2
  20836039.336   -19634165.895 7 -13241096.500 2
 90 10 24 13  7 30.0000000  0  5 02 12 06 13 09
  22255898.352     7411600.791 6   5829013.626 2
  23976321.875    -4614589.568 5  -3289351.153 1
  20720653.313    -7742731.719 7   1142350.614 3
  20365648.813   -22689549.319 7 -17350443.367 1
  20831547.328   -19657770.810 7 -13259489.938 2
 90 10 24 13  7 45.0000000  0  5 02 12 06 13 09
  22260836.922     7437549.113 6   5849233.074 2
  23967060.852    -4663253.834 5  -3327271.339 1
  20724484.086    -7722599.589 7   1158037.979 3
  20365013.578   -22692891.133 7 -17353047.375 2
  20827077.320   -19681256.955 7 -13277790.823 2
 90 10 24 13  8  0.0000000  0  5 02 12 06 13 09
  22265786.781     7463546.101 6   5869490.447 2
  23957808.125    -4711899.513 5  -3365177.051 1
  20728340.969    -7702327.557 7   1173834.365 3
  20364403.602   -22696100.177 7 -17355547.920 2
  20822631.641   -19704623.331 7 -13295998.380 2
 90 10 24 13  8 15.0000000  0  5 02 12 06 13 09
  22270740.469     7489589.896 6   5889784.294 2
  23948552.008    -4760528.138 5  -3403069.466 1
  20732224.141    -7681917.604 7   1189738.216 3
  20363817.219   -22699178.598 7 -17357946.685 1
  20818207.711   -19727871.391 7 -13314113.745 2
 90 10 24 13  8 30.0000000  0  5 02 12 06 13 09
  22275709.008     7515687.913 6   5910120.383 2
  23939302.422    -4809132.227 5  -3440942.752 1
  20736136.563    -7661362.354 7   1205755.286 3
  20363257.844   -22702118.973 7 -17360237.882 1
  20813806.898   -19750993.312 7 -13332130.822 2
 90 10 24 13  8 45.0000000  0  5 02 12 06 13 09
  22280682.289     7541835.427 6   5930495.047 2
  23930056.898    -4857716.038 5  -3478800.266 1
  20740073.656    -7640666.387 7   1221882.005 3
  20362724.914   -22704926.074 7 -17362425.229 1
  20809430.680   -19773993.594 7 -13350053.114 2
 90 10 24 13  9  0.0000000  0  5 02 12 06 13 09
  22285667.469     7568030.502 6   5950906.769 2
  23920812.219    -4906281.352 5  -3516643.355 1
  20744039.898    -7619831.789 7   1238116.744 3
  20362215.031   -22707602.221 7 -17364510.535 1
  20805075.586   -19796874.148 7 -13367882.111 2
 90 10 24 13  9 15.0000000  0  5 02 12 06 13 09
  22290660.844     7594276.368 6   5971358.067 2
  23911577.773    -4954824.591 5  -3554469.240 1
  20748029.922    -7598855.480 7   1254461.914 3
  20361731.406   -22710144.299 7 -17366491.369 1
  20800746.023   -19819631.033 7 -13385614.741 2
 90 10 24 13  9 30.0000000  0  5 02 12 06 13 09
  22295665.859     7620567.082 6   5991844.310 2
  23902343.711    -5003351.467 5  -3592282.372 1
  20752047.797    -7577743.244 7   1270913.003 3
  20361271.297   -22712558.457 7 -17368372.528 2
  20796437.883   -19842270.098 7 -13403255.567 2
 90 10 24 13  9 45.0000000  0  5 02 12 06 13 09
  22300676.141     7646903.652 6   6012366.292 2
  23893114.641    -5051860.820 5  -3630081.855 1
  20756092.656    -7556494.132 7   1287470.745 3
  20360835.320   -22714843.708 7 -17370153.241 1
  20792152.055   -19864790.144 7 -13420803.647 2
 90 10 24 13 10  0.0000000  0  5 02 12 06 13 09
  22305697.008     7673292.043 6   6032928.648 1
  23883884.664    -5100346.376 5  -3667862.802 1
  20760162.656    -7535102.487 7   1304139.553 3
  20360426.617   -22716994.893 7 -17371829.485 1
  20787891.906   -19887184.685 7 -13438253.935 2
 90 10 24 13 10 15.0000000  0  5 02 12 06 13 09
  22310733.414     7699732.520 6   6053531.593 2
  23874661.914    -5148807.439 5  -3705624.636 1
  20764259.383    -7513567.852 7   1320919.781 3
  20360043.445   -22719011.216 7 -17373400.639 1
  20783653.086   -19909453.365 7 -13455606.147 2
 90 10 24 13 10 30.0000000  0  5 02 12 06 13 09
  22315769.305     7726218.544 6   6074170.017 1
  23865441.031    -5197250.318 4  -3743372.324 1
  20768384.039    -7491896.906 7   1337806.224 3
  20359684.695   -22720899.517 7 -17374872.039 1
  20779437.844   -19931602.285 7 -13472865.040 2
 90 10 24 13 10 45.0000000  0  5 02 12 06 13 09
  22320822.695     7752758.159 6   6094850.208 1
  23856231.273    -5245666.744 5  -3781099.399 1
  20772534.656    -7470081.662 7   1354805.108 3
  20359350.914   -22722652.063 7 -17376237.656 1
  20775246.641   -19953623.210 7 -13490024.197 2
 90 10 24 13 11  0.0000000  0  5 02 12 06 13 09
  22325881.758     7779345.268 6   6115567.410 1
  23847023.961    -5294062.805 5  -3818810.585 1
  20776712.563    -7448128.556 7   1371911.416 3
  20359042.484   -22724275.209 7 -17377502.438 1
  20771080.414   -19975522.349 7 -13507088.461 2
 90 10 24 13 11 15.0000000  0  5 02 12 06 13 09
  22330951.242     7805983.089 6   6136324.126 1
  23837818.836    -5342434.902 5  -3856503.110 1
  20780916.719    -7426034.201 7   1389127.787 3
  20358756.938   -22725765.876 7 -17378663.995 1
  20766937.477   -19997295.729 7 -13524054.726 2
 90 10 24 13 11 30.0000000  0  5 02 12 06 13 09
  22336026.875     7832668.259 6   6157117.739 1
  23828613.711    -5390786.068 5  -3894179.340 1
  20785147.164    -7403802.054 7   1406451.536 3
  20358497.664   -22727127.701 7 -17379725.150 1
  20762817.336   -20018946.812 7 -13540925.696 2
 90 10 24 13 11 45.0000000  0  5 02 12 06 13 09
  22341111.563     7859389.472 6   6177939.438 1
  23819419.344    -5439127.281 5  -3931847.783 1
  20789402.984    -7381443.294 7   1423873.934 3
  20358261.734   -22728371.929 7 -17380694.678 1
  20758718.492   -20040486.281 7 -13557709.696 2
 90 10 24 13 12  0.0000000  0  5 02 12 06 13 09
  22346204.695     7886164.712 6   6198803.233 1
  23810221.383    -5487440.379 5  -3969494.354 1
  20793686.297    -7358940.280 7   1441408.740 3
  20358052.117   -22729480.990 7 -17381558.875 1
  20754644.445   -20061896.064 7 -13574392.634 2
 90 10 24 13 12 15.0000000  0  5 02 12 06 13 09
  22351310.008     7912989.254 6   6219705.448 1
  23801039.289    -5535729.766 5  -4007122.431 1
  20797994.922    -7336297.713 7   1459052.290 3
  20357865.852   -22730459.707 7 -17382321.510 1
  20750592.883   -20083180.380 7 -13590977.812 2
 90 10 24 13 12 30.0000000  0  5 02 12 06 13 09
  22356424.695     7939857.694 6   6240641.869 1
  23791850.164    -5584000.484 5  -4044735.962 1
  20802326.609    -7313520.854 7   1476800.484 3
  20357701.766   -22731313.640 7 -17382986.904 1
  20746566.766   -20104344.614 7 -13607469.419 2
 90 10 24 13 12 45.0000000  0  5 02 12 06 13 09
  22361546.711     7966779.180 6   6261619.618 1
  23782666.164    -5632243.109 5  -4082327.600 1
  20806690.633    -7290600.837 7   1494660.227 3
  20357565.859   -22732033.674 7 -17383547.967 1
  20742564.352   -20125379.256 7 -13623860.043 2
 90 10 24 13 13  0.0000000  0  5 02 12 06 13 09
  22366680.813     7993749.874 6   6282635.716 1
  23773494.508    -5680461.231 5  -4119900.154 1
  20811077.164    -7267541.551 7   1512628.493 3
  20357451.945   -22732623.912 7 -17384007.893 1
  20738584.938   -20146287.645 7 -13640152.291 2
 90 10 24 13 13 15.0000000  0  5 02 12 06 13 09
  22371818.211     8020766.267 6   6303687.419 1
  23764324.063    -5728658.097 5  -4157456.147 1
  20815493.227    -7244346.290 7   1530702.714 3
  20357363.992   -22733088.283 7 -17384369.734 1
  20734628.797   -20167073.077 7 -13656348.726 2
 90 10 24 13 13 30.0000000  0  5 02 12 06 13 09
  22376969.508     8047827.514 6   6324774.081 1
  23755158.414    -5776834.204 5  -4194995.931 1
  20819929.359    -7221016.327 7   1548881.893 3
  20357298.969   -22733427.933 7 -17384634.393 1
  20730697.109   -20187736.314 7 -13672449.946 2
 90 10 24 13 13 45.0000000  0  5 02 12 06 13 09
  22382129.234     8074942.500 6   6345902.608 1
  23745993.867    -5824980.585 5  -4232512.581 1
  20824398.648    -7197542.912 7   1567172.857 3
  20357259.695   -22733633.955 7
  20726789.641   -20208268.286 6 -13688448.881 2
 90 10 24 13 14  0.0000000  0  5 02 12 06 13 09
  22387299.305     8102106.112 6   6367069.029 1
  23736835.430    -5873102.118 5  -4270009.836 1
  20828892.328    -7173930.980 7   1585571.752 3
  20357246.250   -22733711.575 7
  20722907.336   -20228673.709 7 -13704349.210 2
 90 10 24 13 14 15.0000000  0  5 02 12 06 13 09
  22392478.703     8129316.297 6   6388271.742 1
  23727682.398    -5921200.377 5  -4307488.995 1
  20833410.344    -7150182.956 7   1604076.696 3
  20357254.898   -22733663.137 7
  20719047.945   -20248954.374 7 -13720152.320 2
 90 10 24 13 14 30.0000000  0  5 02 12 06 13 09
  22397667.094     8156576.884 6   6409513.726 1
  23718532.773    -5969271.217 5  -4344946.765 1
  20837955.148    -7126294.735 7   1622690.885 3
  20357288.078   -22733485.118 7
  20715212.625   -20269106.054 7 -13735854.927 2
 90 10 24 13 14 45.0000000  0  5 02 12 06 13 09
  22402863.477     8183885.145 6   6430792.866 1
  23709394.352    -6017317.122 5  -4382385.119 1
  20842528.250    -7102269.223 7   1641412.052 3
  20357349.633   -22733180.315 7
  20711402.523   -20289131.309 7 -13751459.017 2
 90 10 24 13 15  0.0000000  0  5 02 12 06 13 09
  22408067.016     8211241.146 6   6452109.193 1
  23700253.719    -6065337.989 5  -4419803.956 1
  20847125.938    -7078106.671 7   1660240.007 3
  20357430.211   -22732749.051 7        -0.38011
  20707617.070   -20309029.978 7 -13766964.472 2
 90 10 24 13 15 15.0000000  0  5 02 12 06 13 09
  22413280.789     8238651.216 6   6473467.661 1
  23691120.305    -6113327.180 5  -4457198.093 1
  20851751.969    -7053800.798 7   1679179.636 3
  20357536.984   -22732185.175 7       439.011 1
  20703854.492   -20328795.368 7 -13782366.067 2
 90 10 24 13 15 30.0000000  0  5 02 12 06 13 09
  22418507.734     8266106.226 6   6494861.142 1
  23681998.688    -6161293.435 5  -4494574.381 1
  20856402.867    -7029360.662 7   1698223.887 3
  20357666.078   -22731497.885 7       974.560 1
  20700117.852   -20348436.243 7 -13797670.642 2
 90 10 24 13 15 45.0000000  0  5 02 12 06 13 09
  22423741.875     8293613.109 6   6516295.050 1
  23672876.375    -6209229.597 6  -4531927.233 1
  20861079.258    -7004779.584 7   1717377.960 3
  20357824.750   -22730680.728 7      1611.310 1
  20696403.656   -20367945.658 7 -13812872.780 2
 90 10 24 13 16  0.0000000  0  5 02 12 06 13 09
  22428984.539     8321166.625 6   6537765.285 1
  23663757.273    -6257140.477 5  -4569260.347 1
  20865782.914    -6980062.720 7   1736637.842 3
  20358002.797   -22729738.881 7      2345.221 1
  20692715.828   -20387328.175 7 -13827976.039 2
 90 10 24 13 16 15.0000000  0  5 02 12 06 13 09
  22434237.781     8348775.045 6   6559278.310 1
  23654646.484    -6305017.509 5  -4606567.118 1
  20870513.984    -6955201.829 7   1756009.954 3
  20358206.172   -22728664.126 7      3182.696 1
  20689054.742   -20406575.474 7 -13842973.933 2
 90 10 24 13 16 30.0000000  0  5 02 12 06 13 09
  22439501.508     8376437.173 6   6580833.185 1
  23645542.039    -6352861.505 6  -4643848.132 1
  20875272.555    -6930198.318 7   1775493.201 3
  20358435.672   -22727457.826 7      4122.674 1
  20685417.445   -20425688.375 7 -13857867.099 2
 90 10 24 13 16 45.0000000  0  5 02 12 06 13 09
  22444776.211     8404142.759 6   6602421.916 1
  23636442.961    -6400682.676 6  -4681111.368 1
  20880055.516    -6905062.453 7   1795079.574 3
  20358687.961   -22726130.679 7      5156.813 1
  20681803.047   -20444677.040 7 -13872663.459 2
 90 10 24 13 17  0.0000000  0  5 02 12 06 13 09
  22450054.969     8431894.584 6   6624046.680 1
  23627341.133    -6448477.923 5  -4718354.395 1
  20884863.289    -6879791.691 7   1814771.063 3
  20358964.703   -22724680.220 7      6287.047 1
  20678214.219   -20463538.310 7 -13887360.551 2
 90 10 24 13 17 15.0000000  0  5 02 12 06 13 09
  22455346.633     8459694.274 6   6645708.749 1
  23618256.344    -6496245.374 5  -4755575.769 1
  20889699.148    -6854384.420 7   1834568.926 3
  20359264.734   -22723104.948 7      7514.538 1
  20674649.125   -20482270.471 7 -13901957.036 2
 90 10 24 13 17 30.0000000  0  5 02 12 06 13 09
  22460649.336     8487552.699 6   6667416.579 1
  23609175.516    -6543973.879 6  -4792766.802 1
  20894561.664    -6828829.956 7   1854481.483 3
  20359590.016   -22721394.249 7      8847.548 1
  20671112.078   -20500862.289 7 -13916444.163 2
 90 10 24 13 17 45.0000000  0  5 02 12 06 13 09
  22465959.727     8515463.893 6   6689165.526 1
  23600098.117    -6591669.231 5  -4829931.991 1
  20899452.242    -6803134.502 7   1874503.905 3
  20359940.031   -22719554.455 7     10281.157 1
  20667600.023   -20519319.671 7 -13930826.539 2
 90 10 24 13 18  0.0000000  0  5 02 12 06 13 09
  22471279.531     8543424.466 6   6710952.958 1
  23591027.867    -6639334.259 5  -4867073.561 1
  20904367.188    -6777301.174 7   1894633.755 3
  20360313.367   -22717589.017 7     11812.670 1
  20664112.945   -20537645.312 7 -13945106.257 2
 90 10 24 13 18 15.0000000  0  5 02 12 06 13 09
  22476610.883     8571430.687 6   6732775.951 1
  23581960.250    -6686972.440 5  -4904194.204 1
  20909307.859    -6751333.802 7   1914868.057 3
  20360710.875   -22715501.648 7     13439.195 1
  20660648.477   -20555842.737 7 -13959286.064 2
 90 10 24 13 18 30.0000000  0  5 02 12 06 13 09
  22481952.344     8599494.787 6   6754644.051 1
  23572903.930    -6734571.195 5  -4941284.130 1
  20914278.109    -6725220.264 7   1935216.256 3
  20361134.492   -22713280.252 7     15170.157 1
  20657212.391   -20573899.723 7 -13973356.437 2
 90 10 24 13 18 45.0000000  0  5 02 12 06 13 09
  22487298.492     8627617.990 6   6776558.196 1
  23563853.008    -6782129.143 5  -4978342.244 1
  20919276.984    -6698959.528 7   1955679.155 3
  20361583.266   -22710924.143 7     17006.087 1
  20653803.383   -20591814.651 7 -13987316.119 2
 90 10 24 13 19  0.0000000  0  5 02 12 06 13 09
  22492662.703     8655788.694 6   6798509.361 1
  23554808.586    -6829657.530 5  -5015377.323 1
  20924299.008    -6672563.445 7   1976247.514 3
  20362055.305   -22708445.115 7     18937.794 1
  20650419.398   -20609598.763 7 -14001173.864 2
 90 10 24 13 19 15.0000000  0  5 02 12 06 13 09
  22498031.555     8684008.825 6   6820499.040 1
  23545771.039    -6877154.064 5  -5052387.599 1
  20929348.016    -6646029.926 7   1996922.970 3
  20362549.102   -22705841.308 7     20966.735 1
  20647062.617   -20627249.958 7 -14014928.040 2
 90 10 24 13 19 30.0000000  0  5 02 12 06 13 09
  22503413.133     8712282.260 6   6842530.252 1
  23536740.586    -6924614.795 5  -5089369.977 1
  20934422.641    -6619355.449 7   2017708.263 3
  20363068.250   -22703109.189 7     23095.664 1
  20643728.805   -20644764.275 7 -14028575.560 2
 90 10 24 13 19 45.0000000  0  5 02 12 06 13 09
  22508797.445     8740600.474 6   6864596.354 1
  23527716.617    -6972047.869 5  -5126330.791 1
  20939525.602    -6592548.546 7   2038596.748 3
  20363611.813   -22700257.419 7     25317.820 1
  20640419.586   -20662149.853 7 -14042122.760 2
 90 10 24 13 20  0.0000000  0  5 02 12 06 13 09
  22514196.375     8768961.951 6   6886696.168 1
  23518691.836    -7019454.434 5  -5163270.962 1
  20944651.484    -6565610.852 7   2059587.140 3
  20364176.500   -22697287.867 7     27631.762 1
  20637134.961   -20679407.791 7 -14055570.500 2
 90 10 24 13 20 15.0000000  0  5 02 12 06 13 09
  22519601.953     8797371.126 6   6908833.154 1
  23509678.344    -7066829.911 5  -5200186.907 1
  20949803.961    -6538538.140 7   2080682.748 3
  20364766.414   -22694196.293 7     30040.779 1
  20633875.930   -20696533.882 7 -14068915.507 2
 90 10 24 13 20 30.0000000  0  5 02 12 06 13 09
  22525016.320     8825832.931 6   6931011.148 1
  23500667.500    -7114169.031 5  -5237074.522 1
  20954981.992    -6511325.506 7   2101887.384 3
  20365378.156   -22690978.025 7     32548.519 1
  20630643.898   -20713522.604 7 -14082153.470 2
 90 10 24 13 20 45.0000000  0  5 02 12 06 13 09
  22530446.773     8854344.407 6   6953227.847 1
  23491667.992    -7161474.394 5  -5273935.845 1
  20960184.688    -6483975.943 7   2123198.714 3
  20366014.203   -22687636.194 7     35152.545 1
  20627436.852   -20730376.699 7 -14095286.530 2
 90 10 24 13 21  0.0000000  0  5 02 12 06 13 09
  22535881.250     8882912.585 6   6975488.723 1
  23482670.453    -7208738.562 5  -5310765.041 1
  20965417.219    -6456482.709 7   2144622.002 3
  20366674.836   -22684163.853 7     37858.265 1
  20624256.086   -20747088.869 7 -14108308.996 2
 90 10 24 13 21 15.0000000  0  5 02 12 06 13 09
  22541328.711     8911534.875 6   6997791.773 1
  23473682.016    -7255963.858 5  -5347563.958 1
  20970676.938    -6428848.357 7   2166155.245 3
  20367359.734   -22680563.954 7     40663.380 2
  20621102.547   -20763661.365 7 -14121222.628 2
 90 10 24 13 21 30.0000000  0  5 02 12 06 13 09
  22546790.680     8940231.368 6   7020152.634 1
  23464708.375    -7303130.092 5  -5384316.856 1
  20975964.563    -6401052.965 7   2187813.974 3
  20368072.594   -22676816.643 7     43583.366 2
  20617979.930   -20780074.052 7 -14134011.731 2
 90 10 24 13 21 45.0000000  0  5 02 12 06 13 09
  22552259.766     8968977.676 6   7042552.314 1
  23455735.789    -7350261.188 5  -5421042.379 1
  20981281.703    -6373121.002 7   2209579.128 3
  20368809.531   -22672946.504 7     46599.055 1
  20614882.031   -20796350.871 7 -14146694.962 2
 90 10 24 13 22  0.0000000  0  5 02 12 06 13 09
  22557742.055     8997785.305 6   7064999.782 1
  23446779.102    -7397345.532 5  -5457731.460 1
  20986623.727    -6345041.187 7   2231459.489 3
  20369570.547   -22668942.432 7     49719.111 1
  20611813.266   -20812480.347 7 -14159263.387 2
 90 10 24 13 22 15.0000000  0  5 02 12 06 13 09
  22563233.609     9026649.876 6   7087491.616 1
  23437828.078    -7444387.319 5  -5494387.391 1
  20991996.258    -6316818.103 7   2253451.487 3
  20370358.117   -22664808.920 7     52940.028 1
  20608770.180   -20828466.698 7 -14171720.281 2
 90 10 24 13 22 30.0000000  0  5 02 12 06 13 09
  22568737.969     9055562.823 6   7110021.149 1
  23428886.516    -7491394.653 5  -5531016.463 1
  20997391.172    -6288460.411 7   2275548.373 3
  20371166.758   -22660554.810 7     56254.920 1
  20605753.844   -20844317.973 6 -14184071.921 2
 90 10 24 13 22 45.0000000  0  5 02 12 06 13 09
  22574249.984     9084522.096 6   7132586.771 1
  23419947.758    -7538369.136 5  -5567619.941 1
  21002811.539    -6259970.101 7   2297748.600 3
  20371999.102   -22656182.326 7     59662.051 2
  20602763.258   -20860035.989 7 -14196319.723 2
 90 10 24 13 23  0.0000000  0  5 02 12 06 13 09
  22579768.680     9113526.100 6   7155187.251 1
  23411013.273    -7585312.203 5  -5604198.944 1
  21008259.289    -6231348.979 7   2320050.755 3
  20372854.102   -22651693.113 7     63160.135 1
  20599797.164   -20875622.195 7 -14208464.818 2
 90 10 24 13 23 15.0000000  0  5 02 12 06 13 09
  22585291.641     9142581.329 6   7177827.646 1
  23402089.492    -7632216.976 5  -5640748.106 1
  21013732.969    -6202590.577 7   2342459.884 3
  20373731.703   -22647080.966 7     66754.019 2
  20596857.023   -20891069.796 7 -14220501.912 2
 90 10 24 13 23 30.0000000  0  5 02 12 06 13 09
  22590833.047     9171686.012 6   7200506.579 1
  23393168.438    -7679084.960 5  -5677268.599 1
  21019230.227    -6173696.947 7   2364974.380 3
  20374632.234   -22642348.167 7     70441.911 2
  20593943.766   -20906380.183 7 -14232432.081 2
 90 10 24 13 23 45.0000000  0  5 02 12 06 13 09
  22596381.344     9200837.079 6
  23384253.375    -7725918.914 5  -5713762.578 1
  21024753.219    -6144671.334 7
  20375555.344   -22637498.060 7     74221.215 2
  20591056.305   -20921556.238 7 -14244257.575 2
 90 10 24 13 24  0.0000000  0  5 02 12 06 13 09
  22601939.109     9230046.399 6
  23375352.023    -7772706.765 5  -5750220.630 1
  21030304.078    -6115501.783 7
  20376502.508   -22632518.915 7     78101.067 1
  20588194.984   -20936586.069 7 -14255969.133 2
 90 10 24 13 24 15.0000000  0  5 02 12 06 13 09
  22607512.945     9259331.216 6
  23366456.828    -7819430.824 5  -5786628.971 1
  21035885.375    -6086171.328 7
  20377477.523   -22627393.542 7     82094.862 2
  20585366.898   -20951452.153 7 -14267553.094 2
 90 10 24 13 24 30.0000000  0  5 02 12 06 13 09
  22613091.734     9288657.816 6   7291653.258 1
  23357577.195    -7866124.658 5  -5823013.766 1
  21041492.227    -6056713.932 7   2456129.913 3
  20378474.336   -22622155.974 7     86176.082 1
  20582562.969   -20966187.873 7 -14279035.473 2
 90 10 24 13 24 45.0000000  0  5 02 12 06 13 09
  22618680.539     9318037.155 6   7314546.209 1
  23348699.781    -7912776.862 5  -5859366.118 1
  21047124.906    -6027118.492 7   2479191.278 3
  20379495.000   -22616795.473 7     90353.099 2
  20579784.773   -20980782.091 7 -14290407.589 2
 90 10 24 13 25  0.0000000  0  5 02 12 06 13 09
  22624291.352     9347501.842 6   7337505.664 1
  23339833.500    -7959354.376 6  -5895660.275 1
  21052786.859    -5997352.433 7   2502385.590 3
  20380544.016   -22611279.457 7     94651.287 1
  20577042.289   -20995201.735 7 -14301643.680 2
 90 10 24 13 25 15.0000000  0  5 02 12 06 13 09
  22629906.414     9377002.880 6   7360493.440 1
  23330977.555    -8005906.119 6  -5931934.346 1
  21058474.016    -5967465.269 7   2525674.271 2
  20381614.203   -22605657.461 7     99032.064 2
  20574322.586   -21009495.636 7 -14312781.785 2
 90 10 24 13 25 30.0000000  0  5 02 12 06 13 09
  22635521.828     9406523.486 6   7383496.468 1
  23322117.797    -8052448.532 6  -5968201.144 1
  21064181.375    -5937473.901 7   2549044.151 2
  20382700.883   -22599946.440 7    103482.211 1
  20571623.055   -21023680.656 7 -14323835.047 2
 90 10 24 13 25 45.0000000  0  5 02 12 06 13 09
  22641149.484     9436097.759 6   7406541.311 1
  23313268.234    -8098947.372 6  -6004434.002 1
  21069916.305    -5907344.209 7   2572521.815 3
  20383810.602   -22594112.507 7    108028.130 2
  20568951.188   -21037722.381 7 -14334776.653 2
 90 10 24 13 26  0.0000000  0  5 02 12 06 13 09
  22646788.469     9465720.480 6   7429623.907 1
  23304431.797    -8145407.527 6  -6040636.704 1
  21075673.828    -5877081.712 7   2596102.962 3
  20384943.523   -22588161.357 7    112665.387 2
  20566304.898   -21051625.811 7 -14345610.493 2
 90 10 24 13 26 15.0000000  0  5 02 12 06 13 09
  22652439.375     9495430.854 6   7452774.799 1
  23295602.172    -8191789.416 6  -6076778.418 1
  21081467.797    -5846647.213 7   2619818.138 3
  20386105.195   -22582053.988 7    117424.371 1
  20563693.008   -21065351.247 7 -14356305.639 2
 90 10 24 13 26 30.0000000  0  5 02 12 06 13 09
  22658108.609     9525198.047 6   7475969.976 1
  23286785.141    -8238123.540 6  -6112882.921 1
  21087283.578    -5816071.788 7   2643643.128 2
  20387292.125   -22575821.390 7    122280.940 2
  20561108.906   -21078929.713 7 -14366886.262 2
 90 10 24 13 26 45.0000000  0  5 02 12 06 13 09
  22663775.227     9555012.551 6   7499202.006 1
  23277973.406    -8284419.073 6  -6148957.346 1
  21093127.969    -5785365.079 7   2667570.413 3
  20388500.703   -22569473.145 7    127227.623 1
  20558550.555   -21092370.060 7 -14377359.261 2
 90 10 24 13 27  0.0000000  0  5 02 12 06 13 09
  22669463.086     9584874.518 6   7522471.026 1
  23269174.117    -8330675.393 6  -6185001.217 1
  21098994.812    -5754526.843 7   2691600.191 3
  20389730.117   -22563009.316 7    132264.373 1
  20556019.398   -21105672.133 7 -14387724.514 2
 90 10 24 13 27 15.0000000  0  5 02 12 06 13 09
  22675158.938     9614798.877 6   7545788.665 1
  23260382.461    -8376877.413 6  -6221002.777 1
  21104891.523    -5723542.455 7   2715743.852 3
  20390984.305   -22556415.147 7    137402.685 1
  20553517.797   -21118820.570 7 -14397970.049 2
 90 10 24 13 27 30.0000000  0  5 02 12 06 13 09
  22680862.188     9644779.215 6   7569149.915 1
  23251602.469    -8423031.183 6  -6256966.741 1
  21110815.227    -5692418.339 7   2739996.390 3
  20392261.688   -22549697.461 7    142637.244 1
  20551044.789   -21131821.646 7 -14408100.761 2
 90 10 24 13 27 45.0000000  0  5 02 12 06 13 09
  22686573.172     9674800.687 6   7592543.227 1
  23242824.172    -8469151.136 6  -6292904.354 1
  21116761.422    -5661169.736 7   2764345.933 3
  20393562.180   -22542871.386 7    147956.262 1
  20548595.008   -21144690.026 7 -14418128.069 2
 90 10 24 13 28  0.0000000  0  5 02 12 06 13 09
  22692296.031     9704881.064 6   7615982.434 1
  23234062.172    -8515219.282 6  -6328801.589 1
  21122734.578    -5629778.999 7   2788806.227 3
  20394884.641   -22535919.416 7    153373.377 2
  20546174.359   -21157407.944 7 -14428038.136 2
 90 10 24 13 28 15.0000000  0  5 02 12 06 13 09
  22698031.797     9734998.824 6   7639450.771 1
  23225298.766    -8561256.687 6  -6364674.892 1
  21128730.344    -5598267.521 7   2813360.609 3
  20396226.875   -22528863.279 7    158871.670 1
  20543779.586   -21169996.096 7 -14437847.086 2
 90 10 24 13 28 30.0000000  0  5 02 12 06 13 09
  22703769.734     9765149.265 6   7662944.574 1
  23216542.203    -8607267.987 6  -6400527.840 1
  21134748.891    -5566640.456 7   2838005.057 3
  20397588.719   -22521708.032 7    164447.180 1
  20541408.445   -21182459.582 7 -14447558.895 2
 90 10 24 13 28 45.0000000  0  5 02 12 06 13 09
  22709508.516     9795325.131 6   7686458.192 1
  23207790.852    -8653260.184 6  -6436365.909 1
  21140787.586    -5534905.297 7   2862733.730 3
  20398968.484   -22514461.146 7    170094.102 1
  20539059.352   -21194805.260 7 -14457178.906 2
 90 10 24 13 29  0.0000000  0  5 02 12 06 13 09
  22715257.625     9825535.758 6   7709998.898 1
  23199042.633    -8699223.640 6  -6472181.576 1
  21146850.156    -5503052.723 7   2887553.902 3
  20400366.555   -22507113.574 7    175819.483 1
  20536733.133   -21207023.739 7 -14466699.795 2
 90 10 24 13 29 15.0000000  0  5 02 12 06 13 09
  22721011.898     9855781.005 6   7733566.571 1
  23190301.500    -8745158.151 6  -6507974.688 1
  21152933.594    -5471083.044 7   2912465.320 3
  20401783.656   -22499665.511 7    181623.163 1
  20534433.391   -21219114.673 7 -14476121.305 2
 90 10 24 13 29 30.0000000  0  5 02 12 06 13 09
  22726776.039     9886067.700 6   7757166.548 1
  23181569.711    -8791056.475 6  -6543739.607 1
  21159040.789    -5438989.638 7   2937473.147 3
  20403221.453   -22492110.607 7    187510.099 1
  20532157.523   -21231071.259 7 -14485438.128 2
 90 10 24 13 29 45.0000000  0  5 02 12 06 13 09
  22732554.578     9916421.136 6   7780818.521 1
  23172846.023    -8836893.015 6  -6579456.379 1
  21165176.430    -5406747.179 7   2962597.122 3
  20404684.039   -22484423.982 7    193499.675 2
  20529912.453   -21242867.510 7 -14494630.014 2
 90 10 24 13 30  0.0000000  0  5 02 12 06 13 09
  22738338.555     9946830.552 6   7804514.124 1
  23164132.367    -8882678.255 6  -6615133.185 1
  21171336.078    -5374366.774 7   2987828.585 3
  20406168.852   -22476616.206 7    199583.655 2
  20527698.219   -21254514.478 7 -14503705.575 2
 90 10 24 13 30 15.0000000  0  5 02 12 06 13 09
  22744134.414     9977293.682 6   7828251.585 1
  23155429.844    -8928413.979 6  -6650771.394 1
  21177526.047    -5341850.646 7   3013165.806 3
  20407678.313   -22468689.863 7    205760.021 2
  20525507.227   -21266014.068 7 -14512666.295 2
 90 10 24 13 30 30.0000000  0  5 02 12 06 13 09
  22749947.344    10007815.004 6   7852034.379 1
  23146733.547    -8974095.426 6  -6686367.315 1
  21183739.414    -5309194.614 7   3038612.045 3
  20409209.148   -22460640.726 7    212032.068 1
  20523349.039   -21277361.607 7 -14521508.535 2
 90 10 24 13 30 45.0000000  0  5 02 12 06 13 09
  22755766.250    10038396.236 6   7875863.866 1
  23138055.977    -9019720.529 6  -6721919.325 1
  21189980.789    -5276397.025 7   3064168.582 3
  20410765.313   -22452467.463 7    218400.843 1
  20521219.320   -21288554.851 7 -14530230.547 2
 90 10 24 13 31  0.0000000  0  5 02 12 06 13 09
  22761591.867    10069015.499 6   7899722.981 1
  23129377.539    -9065311.107 6  -6757444.439 1
  21196244.953    -5243480.097 7   3089818.117 3
  20412339.563   -22444192.183 7    224849.110 1
  20519113.758   -21299615.962 7 -14538849.596 2
 90 10 24 13 31 15.0000000  0  5 02 12 06 13 09
  22767430.648    10099704.303 6   7923636.283 1
  23120716.039    -9110835.161 6  -6792917.717 1
  21202536.836    -5210412.358 7   3115585.162 3
  20413939.680   -22435783.682 7    231401.184 1
  20517041.156   -21310512.728 7 -14547340.587 1
 90 10 24 13 31 30.0000000  0  5 02 12 06 13 09
  22773294.227    10130504.877 6   7947636.681 1
  23112074.922    -9156249.981 6  -6828305.866 1
  21208866.797    -5177151.710 7   3141502.528 3
  20415573.438   -22427199.938 7    238089.814 1
  20515005.352   -21321203.182 7 -14555670.811 1
 90 10 24 13 31 45.0000000  0  5 02 12 06 13 09
  22779158.641    10161344.653 6   7971667.622 1
  23103438.797    -9201627.946 6  -6863665.316 1
  21215219.703    -5143771.038 7   3167513.420 3
  20417225.914   -22418513.724 7    244858.286 1
  20512997.734   -21331759.282 7 -14563896.348 1
 90 10 24 13 32  0.0000000  0  5 02 12 06 13 09
  22785028.227    10192190.309 6   7995703.147 1
  23094802.492    -9247001.992 6  -6899021.703 1
  21221586.969    -5110303.773 7   3193591.786 3
  20418892.141   -22409758.538 7    251680.501 1
  20511007.477   -21342214.258 7 -14572043.087 2
 90 10 24 13 32 15.0000000  0  5 02 12 06 13 09
  22790907.266    10223069.149 6   8019764.531 1
  23086177.219    -9292344.573 6  -6934353.574 1
  21227976.344    -5076722.721 7   3219758.816 3
  20420576.289   -22400907.496 7    258577.411 1
  20509043.984   -21352540.818 7 -14580089.759 1
 90 10 24 13 32 30.0000000  0  5 02 12 06 13 09
  22796799.602    10254024.861 6   8043885.809 1
  23077561.047    -9337611.903 6  -6969626.815 1
  21234397.703    -5042984.514 7   3246048.308 3
  20422286.891   -22391917.307 7    265582.750 1
  20507109.836   -21362694.842 7 -14588001.988 2
 90 10 24 13 32 45.0000000  0  5 02 12 06 13 09
  22802704.398    10285058.363 6   8068067.704 1
  23068963.977    -9382802.733 6  -7004840.437 1
  21240848.641    -5009088.452 7   3272460.800 3
  20424025.344   -22382787.311 7    272697.029 2
  20505211.133   -21372675.458 7 -14595779.097 2
 90 10 24 13 33  0.0000000  0  5 02 12 06 13 09
  22808616.891    10316127.857 6   8092277.650 1
  23060367.156    -9427958.306 6  -7040026.580 1
  21247321.508    -4975076.241 7   3298963.795 3
  20425779.648   -22373559.529 7    279887.503 1
  20503337.125   -21382524.203 7 -14603453.446 1
 90 10 24 13 33 15.0000000  0  5 02 12 06 13 09
  22814537.266    10347261.235 6   8116537.380 1
  23051787.453    -9473050.430 6  -7075163.288 1
  21253820.617    -4940920.400 7   3325578.710 3
  20427561.289   -22364206.159 7    287175.838 1
  20501492.828   -21392212.631 7 -14611002.875 1
 90 10 24 13 33 30.0000000  0  5 02 12 06 13 09
  22820471.219    10378445.106 6   8140836.449 1
  23043217.305    -9518092.146 6  -7110260.727 1
  21260344.578    -4906634.331 7   3352295.104 3
  20429362.055   -22354740.800 7    294551.440 1
  20499678.281   -21401754.272 7 -14618437.923 1
 90 10 24 13 33 45.0000000  0  5 02 12 06 13 09
  22826414.672    10409666.709 6   8165164.906 1
  23034652.469    -9563095.948 6  -7145328.608 1
  21266891.195    -4872231.134 7   3379102.766 2
  20431181.063   -22345176.589 7    302004.064 1
  20497887.883   -21411161.890 7 -14625768.539 1
 90 10 24 13 34  0.0000000  0  5 02 12 06 13 09
  22832361.211    10440929.204 6   8189525.249 1
  23026097.633    -9608058.265 6  -7180364.165 1
  21273461.094    -4837707.690 7   3406004.125 3
  20433021.414   -22335510.656 7    309535.950 1
  20496123.148   -21420431.703 7 -14632991.773 2
 90 10 24 13 34 15.0000000  0  5 02 12 06 13 09
  22838331.297    10472278.878 6   8213953.504 1
  23017555.609    -9652932.489 6  -7215331.091 1
  21280061.555    -4803017.949 7   3433035.069 2
  20434889.109   -22325696.837 7    317183.080 1
  20494394.789   -21429517.263 7 -14640071.439 2
 90 10 24 13 34 30.0000000  0  5 02 12 06 13 09
  22844305.000    10503664.576 6   8238409.841 1
  23009027.047    -9697769.471 6  -7250268.991 1
  21286684.930    -4768213.092 7   3460155.706 2
  20436775.172   -22315786.574 7    324905.355 2
  20492692.180   -21438469.700 7 -14647047.368 1
 90 10 24 13 34 45.0000000  0  5 02 12 06 13 09
  22850284.242    10535118.858 6   8262919.615 1
  23000509.094    -9742536.425 6  -7285152.316 1
  21293336.938    -4733260.978 7   3487391.095 3
  20438684.664   -22305747.521 7    332727.986 1
  20491018.664   -21447256.286 7 -14653894.064 1
 90 10 24 13 35  0.0000000  0  5 02 12 06 13 09
  22856293.523    10566670.438 6   8287505.192 1
  22992004.758    -9787204.069 6  -7319958.264 1
  21300021.703    -4698133.014 7   3514763.504 2
  20440625.602   -22295551.193 7    340673.169 2
  20489384.227   -21455847.985 7 -14660588.902 1
 90 10 24 13 35 15.0000000  0  5 02 12 06 13 09
  22862310.852    10598283.913 6   8312139.024 1
  22983518.234    -9831807.626 6  -7354714.268 1
  21306732.477    -4662864.751 7   3542245.246 2
  20442588.500   -22285233.577 7    348712.862 1
  20487778.766   -21464280.133 7 -14667159.415 2
 90 10 24 13 35 30.0000000  0  5 02 12 06 13 09
  22868328.344    10629930.060 6   8336798.301 1
  22975038.500    -9876376.013 6  -7389442.887 1
  21313465.102    -4627485.567 7   3569813.411 2
  20444569.781   -22274824.019 7    356824.200 1
  20486198.906   -21472581.830 7 -14673628.274 1
 90 10 24 13 35 45.0000000  0  5 02 12 06 13 09
  22874360.547    10661619.964 6   8361491.669 1
  22966565.992    -9920897.901 6  -7424135.249 1
  21320219.258    -4591984.829 7   3597476.297 2
  20446569.891   -22264311.702 7    365015.606 2
  20484647.539   -21480741.688 7 -14679986.610 2
 90 10 24 13 36  0.0000000  0  5 02 12 06 13 09
  22880396.977    10693341.664 6   8386209.828 1
  22958098.906    -9965384.889 6  -7458800.430 1
  21326997.695    -4556374.568 7   3625224.524 2
  20448587.359   -22253708.880 7    373277.539 2
  20483119.570   -21488771.448 7 -14686243.576 1
 90 10 24 13 36 15.0000000  0  5 02 12 06 13 09
  22886449.211    10725145.145 6   8410991.705 1
  22949648.938   -10009786.502 6  -7493399.074 1
  21333802.680    -4520604.665 7   3653097.150 2
  20450631.375   -22242965.881 7    381648.703 2
  20481626.156   -21496620.955 7 -14692360.081 1
 90 10 24 13 36 30.0000000  0  5 02 12 06 13 09
  22892516.469    10757021.479 6   8435830.338 1
  22941217.016   -10054111.416 6  -7527937.964 1
  21340639.789    -4484684.435 7   3681086.911 2
  20452700.773   -22232091.843 7    390121.969 1
  20480165.031   -21504298.912 7 -14698342.913 2
 90 10 24 13 36 45.0000000  0  5 02 12 06 13 09
  22898587.898    10788921.164 6   8460687.181 1
  22932785.836   -10098408.748 6  -7562455.360 1
  21347494.273    -4448663.629 7   3709155.042 2
  20454785.195   -22221136.391 7    398658.675 2
  20478726.547   -21511854.747 7 -14704230.582 2
 90 10 24 13 37  0.0000000  0  5 02 12 06 13 09
  22904665.813    10820869.008 6   8485581.542 1
  22924367.547   -10142653.499 6  -7596931.783 1
  21354371.961    -4412517.689 7   3737320.684 2
  20456890.000   -22210074.924 7    407277.990 2
  20477317.297   -21519263.265 7 -14710003.464 1
 90 10 24 13 37 15.0000000  0  5 02 12 06 13 09
  22910752.344    10852863.098 6   8510511.939 1
  22915953.945   -10186847.019 6  -7631368.284 1
  21361274.078    -4376248.448 7   3765582.404 2
  20459014.945   -22198909.532 7    415978.286 1
  20475934.789   -21526526.410 7 -14715663.066 1
 90 10 24 13 37 30.0000000  0  5 02 12 06 13 09
  22916848.297    10884890.819 6   8535468.539 1
  22907553.633   -10231001.617 6  -7665774.455 1
  21368197.133    -4339868.757 7   3793930.181 2
  20461157.211   -22187653.377 7    424749.312 2
  20474577.578   -21533656.518 7 -14721219.000 1
 90 10 24 13 37 45.0000000  0  5 02 12 06 13 09
  22922951.992    10916980.252 6   8560473.223 1
  22899165.258   -10275088.928 6  -7700128.198 1
  21375146.141    -4303351.055 7   3822385.508 2
  20463322.734   -22176278.799 7    433612.608 2
  20473252.438   -21540625.261 7 -14726649.198 1
 90 10 24 13 38  0.0000000  0  5 02 12 06 13 09
  22929070.727    10949126.118 6   8585521.894 1
  22890786.688   -10319113.908 6  -7734433.367 1
  21382121.180    -4266700.645 7   3850944.241 2
  20465508.656   -22164791.128 7    442564.033 2
  20471955.977   -21547437.940 7 -14731957.786 2
 90 10 24 13 38 15.0000000  0  5 02 12 06 13 09
  22935196.758    10981309.490 6   8610599.771 1
  22882419.391   -10363095.214 6  -7768704.509 1
  21389117.344    -4229936.629 7   3879591.496 3
  20467712.805   -22153209.606 7    451588.584 1
  20470684.914   -21554113.224 7 -14737159.317 1
 90 10 24 13 38 30.0000000  0  5 02 12 06 13 09
  22941329.789    11013542.186 6   8635716.093 1
  22874059.289   -10407020.821 6  -7802932.243 1
  21396136.469    -4193047.538 7   3908336.213 3
  20469936.625   -22141522.737 7    460695.226 2
  20469442.609   -21560639.310 7 -14742244.585 1
 90 10 24 13 38 45.0000000  0  5 02 12 06 13 09
  22947471.648    11045820.728 6   8660868.150 1
  22865709.664   -10450893.667 6  -7837118.871 1
  21403179.141    -4156036.961 7   3937175.592 2
  20472178.555   -22129734.096 7    469881.170 2
  20468228.484   -21567019.207 7 -14747215.943 1
 90 10 24 13 39  0.0000000  0  5 02 12 06 13 09
  22953622.086    11078144.507 6   8686055.441 1
  22857369.992   -10494713.997 6  -7871264.572 1
  21410244.664    -4118905.403 7   3966109.241 2
  20474441.023   -22117844.365 7    479145.889 2
  20467042.938   -21573253.418 7 -14752073.778 1
 90 10 24 13 39 15.0000000  0  5 02 12 06 13 09
  22959793.484    11110551.272 6   8711307.397 1
  22849052.109   -10538443.850 6  -7905339.778 1
  21417341.156    -4081615.664 7   3995166.152 2
  20476730.570   -22105816.382 7    488518.334 1
  20465891.023   -21579304.005 7 -14756788.527 1
 90 10 24 13 39 30.0000000  0  5 02 12 06 13 09
  22965965.531    11143002.448 6   8736593.964 1
  22840739.016   -10582121.515 6  -7939374.324 1
  21424459.047    -4044206.613 7   4024316.035 2
  20479039.211   -22093689.122 7    497968.136 2
  20464768.063   -21585209.384 7 -14761390.132 1
 90 10 24 13 39 45.0000000  0  5 02 12 06 13 09
  22972143.859    11175486.739 6   8761906.322 1
  22832433.539   -10625757.904 6  -7973376.692 1
  21431598.797    -4006689.546 7   4053550.083 3
  20481363.336   -22081474.033 7    507486.375 2
  20463669.664   -21590980.923 7 -14765887.439 1
 90 10 24 13 40  0.0000000  0  5 02 12 06 13 09
  22978335.891    11208010.975 6   8787249.819 1
  22824140.727   -10669345.535 6  -8007341.074 1
  21438760.273    -3969057.804 7   4082873.485 2
  20483704.789   -22069164.579 7    517078.148 1
  20462598.500   -21596611.484 7 -14770274.902 1
 90 10 24 13 40 15.0000000  0  5 02 12 06 13 09
  22984535.883    11240583.665 6   8812631.072 1
  22815857.664   -10712875.822 6  -8041260.771 1
  21445943.656    -3931303.235 7   4112292.598 3
  20486068.016   -22056752.659 7    526749.762 2
  20461554.625   -21602092.249 7 -14774545.634 1
 90 10 24 13 40 30.0000000  0  5 02 12 06 13 09
  22990740.773    11273195.579 6   8838042.870 1
  22807584.250   -10756357.541 6  -8075142.625 1
  21453150.477    -3893435.074 7   4141800.221 2
  20488446.305   -22044247.601 7    536493.952 2
  20460538.938   -21607432.264 7 -14778706.699 1
 90 10 24 13 40 45.0000000  0  5 02 12 06 13 09
  22996959.922    11305859.521 6   8863495.223 1
  22799317.359   -10799777.659 6  -8108976.478 1
  21460380.859    -3855440.771 7   4171406.137 3
  20490847.000   -22031636.776 7    546320.561 2
  20459551.445   -21612618.629 7 -14782748.030 1
 90 10 24 13 41  0.0000000  0  5 02 12 06 13 09
  23003183.711    11338575.005 6   8888987.738 1
  22791069.516   -10843136.335 6  -8142762.452 1
  21467634.492    -3817321.115 7   4201109.726 3
  20493265.852   -22018920.948 7    556228.988 1
  20458593.945   -21617651.649 7 -14786669.875 1
 90 10 24 13 41 15.0000000  0  5 02 12 06 13 09
  23009419.070    11371342.591 6   8914520.846 1
  22782830.414   -10886432.799 6  -8176499.959 1
  21474911.828    -3779075.965 7   4230911.110 2
  20495706.000   -22006099.949 7    566219.366 1
  20457665.398   -21622530.874 7 -14790471.877 1
 90 10 24 13 41 30.0000000  0  5 02 12 06 13 09
  23015661.922    11404156.980 6   8940090.419 1
  22774600.438   -10929671.891 6  -8210192.757 1
  21482213.438    -3740710.561 7   4260806.195 2
  20498164.141   -21993179.315 7    576287.376 2
  20456765.320   -21627261.386 7 -14794157.998 1
 90 10 24 13 41 45.0000000  0  5 02 12 06 13 09
  23021915.992    11437022.666 6   8965699.974 1
  22766386.141   -10972848.617 6  -8243836.955 1
  21489537.047    -3702220.550 7   4290798.373 2
  20500644.742   -21980154.726 7    586436.396 2
  20455894.031   -21631837.995 7 -14797724.202 1
 90 10 24 13 42  0.0000000  0  5 02 12 06 13 09
  23028178.156    11469925.923 6   8991338.795 1
  22758177.531   -11015976.585 6  -8277443.158 1
  21496882.477    -3663620.008 7   4320876.686 2
  20503138.641   -21967040.328 7    596655.395 1
  20455051.609   -21636274.939 7 -14801181.570 1
 90 10 24 13 42 15.0000000  0  5 02 12 06 13 09
  23034452.305    11502904.629 6   9017035.916 1
  22749988.195   -11059017.291 6  -8310981.872 1
  21504257.453    -3624871.134 7   4351070.072 2
  20505658.273   -21953798.480 7    606973.204 2
  20454240.773   -21640533.746 7 -14804500.630 1
 90 10 24 13 42 30.0000000  0  5 02 12 06 13 09
  23040797.875    11536252.895 6   9043022.004 1
  22741868.188   -11101676.563 6  -8344222.362 1
  21511714.352    -3585680.318 7   4381608.838 2
  20508259.180   -21940135.122 7    617620.467 2
  20453518.234   -21644320.280 7 -14807450.685 2
 90 10 24 13 42 45.0000000  0  5 02 12 06 13 09
  23047156.484          -0.20016
  22733767.227   -11144270.865 6  -8377412.722 1
  21519196.180    -3546364.369 7   4412244.607 2
  20510878.711                          -0.58517
  20452828.211   -21647951.621 7 -14810280.318 1
 90 10 24 13 43  0.0000000  0  5 02 12 06 13 09
  23053526.398       33481.372 6
  22725676.070   -11186771.874 6  -8410530.381 1
  21526706.227    -3506895.679 7   4442999.395 2
  20513524.164                       13898.460 7
  20452171.758   -21651399.064 7 -14812966.643 1
 90 10 24 13 43 15.0000000  0  5 02 12 06 13 09
  23059899.148       66967.724 6
  22717593.094   -11229255.101 6  -8443634.197 1
  21534230.688    -3467350.459 7   4473813.814 2
  20516179.383       27853.080 7        -0.47011
  20451536.398   -21654738.816 7 -14815569.060 1
 90 10 24 13 43 30.0000000  0  5 02 12 06 13 09
  23066276.016      100469.189 6        -0.31111
  22709515.547   -11271709.821 6  -8476715.795 1
  21541772.961    -3427718.472 7   4504695.844 2
  20518847.336       41873.407 7     10924.450 1
  20450923.695   -21657960.166 7 -14818079.213 1
 90 10 24 13 43 45.0000000  0  5 02 12 06 13 09
  23072663.102      134029.361 6     26150.401 1
  22701446.211   -11314091.908 6  -8509740.791 1
  21549339.148    -3387956.130 7   4535679.451 2
  20521536.188       56003.173 7     21934.645 1
  20450342.414   -21661019.076 7 -14820462.795 1
 90 10 24 13 44  0.0000000  0  5 02 12 06 13 09
  23079048.641      167605.925 6     52313.879 1
  22693389.516   -11356443.495 6  -8542742.025 1
  21556923.945    -3348106.065 7   4566731.415 2
  20524236.719       70199.545 7     32996.734 2
  20449783.086   -21663957.988 7 -14822752.861 1
 90 10 24 13 44 15.0000000  0  5 02 12 06 13 09
  23085440.813      201187.168 6     78481.003 1
  22685333.969   -11398776.110 6  -8575728.474 1
  21564521.594    -3308180.309 7   4597842.354 2
  20526948.414       84450.195 7     44101.127 2
  20449243.961   -21666788.620 7 -14824958.563 1
 90 10 24 13 44 30.0000000  0  5 02 12 06 13 09
  23091835.430      234804.173 6    104675.994 1
  22677288.039   -11441058.206 6  -8608675.557 1
  21572138.891    -3268148.007 7   4629036.318 2
  20529677.109       98786.090 7     55271.941 2
  20448731.852   -21669479.797 7 -14827055.594 1
 90 10 24 13 44 45.0000000  0  5 02 12 06 13 09
  23098242.570      268475.908 6    130913.626 1
  22669254.406   -11483270.313 6  -8641568.111 1
  21579781.188    -3227990.300 7   4660327.998 2
  20532424.875      113226.092 7     66523.875 1
  20448251.398   -21672011.890 7 -14829028.667 1
 90 10 24 13 45  0.0000000  0  5 02 12 06 13 09
  23104668.359      302228.491 6    157214.259 1
  22661240.992   -11525386.130 6  -8674385.626 1
  21587451.211    -3187681.577 7   4691737.362 2
  20535197.602      127796.102 7     77877.117 2
  20447803.695   -21674359.019 7 -14830857.612 1
 90 10 24 13 45 15.0000000  0  5 02 12 06 13 09
  23111095.820      336000.860 6    183530.310 1
  22653232.828   -11567466.345 6  -8707175.403 1
  21595139.344    -3147282.843 7   4723216.855 2
  20537983.766      142434.575 7     89283.704 1
  20447380.273   -21676582.274 7 -14832590.030 1
 90 10 24 13 45 30.0000000  0  5 02 12 06 13 09
  23117538.328      369847.301 6    209904.068 1
  22645244.047   -11609456.371 6  -8739894.897 1
  21602854.469    -3106740.073 7   4754808.586 2
  20540792.477      157195.351 7    100785.593 2
  20446990.891   -21678627.085 7 -14834183.397 2
 90 10 24 13 45 45.0000000  0  5 02 12 06 13 09
  23123996.727      403802.006 6    236362.199 1
  22637276.609   -11651321.479 6  -8772517.059 1
  21610602.648    -3066019.462 7   4786538.893 2
  20543631.727      172112.569 7    112409.386 2
  20446643.688   -21680458.840 7 -14835610.751 1
 90 10 24 13 46  0.0000000  0  5 02 12 06 13 09
  23130456.234      437759.470 6    262822.472 1
  22629315.227   -11693166.709 6  -8805123.736 1
  21618367.266    -3025226.446 7   4818325.622 2
  20546479.625      187080.740 7    124072.878 1
  20446314.563   -21682183.083 7 -14836954.333 1
 90 10 24 13 46 15.0000000  0  5 02 12 06 13 09
  23136921.344      471717.865 6    289283.456 1
  22621353.492   -11734993.616 6  -8837716.125 1
  21626141.859    -2984363.144 7   4850167.117 2
  20549336.516      202097.607 7    135774.316 1
  20446005.484   -21683801.355 7 -14838215.337 1
 90 10 24 13 46 30.0000000  0  5 02 12 06 13 09
  23143386.641      505707.776 6    315769.011 1
  22613404.867   -11776771.584 6  -8870270.385 1
  21633937.633    -2943399.291 7   4882086.962 2
  20552209.313      217193.336 7    147537.202 2
  20445724.234   -21685283.214 7 -14839370.044 1
 90 10 24 13 46 45.0000000  0  5 02 12 06 13 09
  23149874.906      539775.435 6    342315.153 1
  22605471.859   -11818453.846 6  -8902750.066 1
  21641758.656    -2902289.027 7   4914120.897 2
  20555106.070      232413.786 7    159397.280 2
  20445477.734   -21686582.047 7 -14840382.137 1
 90 10 24 13 47  0.0000000  0  5 02 12 06 13 09
  23156378.094      573961.338 6    368953.430 1
  22597565.555   -11859999.733 6  -8935123.480 1
  21649618.344    -2860992.076 7   4946300.298 2
  20558034.703      247799.164 7    171385.870 2
  20445272.195   -21687657.815 7 -14841220.409 1
 90 10 24 13 47 15.0000000  0  5 02 12 06 13 09
  23162884.297      608154.943 6    395597.705 1
  22589664.922   -11901519.301 6  -8967476.388 1
  21657490.781    -2819619.208 7   4978538.857 2
  20560972.000      263238.766 7    183416.716 2
  20445090.102   -21688620.313 7 -14841970.423 1
 90 10 24 13 47 30.0000000  0  5 02 12 06 13 09
  23169417.352      642481.876 6    422345.880 1
  22581793.336   -11942886.723 6  -8999710.742 1
  21665401.875    -2778045.057 7   5010934.264 2
  20563944.547      278858.031 7    195587.551 2
  20444950.344   -21689344.159 7 -14842534.469 1
 90 10 24 13 47 45.0000000  0  5 02 12 06 13 09
  23175933.125      676718.925 6    449024.002 1
  22573907.258   -11984324.732 6  -9032000.101 1
  21673309.633    -2736492.871 7   5043312.547 2
  20566908.188      294433.233 7    207724.050 2
  20444816.266   -21690052.292 7 -14843086.280 1
 90 10 24 13 48  0.0000000  0  5 02 12 06 13 09
  23182462.758      711044.684 6    475771.265 1
  22566042.445   -12025654.363 6  -9064205.015 1
  21681246.867    -2694784.372 7   5075812.631 2
  20569897.367      310142.861 7    219965.300 2
  20444720.703   -21690566.075 7 -14843486.648 1
 90 10 24 13 48 15.0000000  0  5 02 12 06 13 09
  23189004.484      745422.528 6    502559.088 1
  22558191.648   -12066911.849 6  -9096353.704 1
  21689207.516    -2652956.452 7   5108405.770 2
  20572905.891      325950.221 7    232282.705 1
  20444651.898   -21690921.926 7 -14843763.948 1
 90 10 24 13 48 30.0000000  0  5 02 12 06 13 09
  23195568.320      779893.019 6    529419.120 1
  22550362.570   -12108056.086 6  -9128414.152 1
  21697195.945    -2610968.621 6   5141123.516 2
  20575939.242      341895.608 7    244707.666 1
  20444620.641   -21691078.797 7
 90 10 24 13 48 45.0000000  0  4 12 06 13 09
  22542566.852   -12149029.192 6  -9160341.246 1
  21705229.195    -2568763.424 6   5174010.637 2
  20579011.023      358036.072 7    257284.634 2
  20444641.570   -21690979.398 7
 90 10 24 13 49  0.0000000  0  5 02 12 06 13 09
  23208736.500          -0.67016
  22534770.281   -12189997.455 6  -9192264.794 1
  21713269.328    -2526508.061 6   5206936.627 2
  20582088.453      374204.623 7    269883.262 2
  20444678.281   -21690790.007 7
 90 10 24 13 49 15.0000000  0  5 02 12 06 13 09
  23215340.430       34713.112 6
  22526999.305   -12230834.907 6  -9224086.467 1
  21721343.977    -2484076.978 7   5239999.487 2
  20585193.078      390526.831 7    282601.569 2
  20444756.203   -21690384.959 7
 90 10 24 13 49 30.0000000  0  5 02 12 06 13 09
  23221944.133       69394.070 6
  22519226.156   -12271683.160 6  -9255916.271 1
  21729424.062    -2441612.303 6   5273088.804 2
  20588301.805      406860.423 7    295329.019 2
  20444843.578   -21689906.142 7        -0.01311
 90 10 24 13 49 45.0000000  0  5 02 12 06 13 09
  23228558.141      104143.354 6        -0.35211
  22511469.156   -12312440.922 6  -9287675.568 1
  21737530.398    -2399013.556 6   5306282.587 2
  20591432.250      423306.178 7    308143.878 2
  20444970.430   -21689252.376 7       509.397 1
 90 10 24 13 50  0.0000000  0  5 02 12 06 13 09
  23235175.859      138932.237 6     27107.757 1
  22503725.656   -12353136.516 6  -9319386.426 1
  21745656.625    -2356309.510 6   5339558.422 2
  20594576.641      439835.092 7    321023.532 2
  20445122.992   -21688452.575 7      1132.601 1
 90 10 24 13 50 15.0000000  0  5 02 12 06 13 09
  23241799.805      173750.813 5     54239.020 1
  22495990.734   -12393779.483 6  -9351056.274 1
  21753800.719    -2313510.195 6   5372908.491 2
  20597735.625      456436.797 7    333959.903 2
  20445300.625   -21687515.963 7      1862.409 1
 90 10 24 13 50 30.0000000  0  5 02 12 06 13 09
  23248437.906      208602.876 6     81396.361 1
  22488268.852   -12434365.735 6  -9382681.928 1
  21761964.375    -2270612.137 6   5406335.504 2
  20600909.883      473114.908 7    346955.817 1
  20445503.711   -21686438.884 7      2701.677 1
 90 10 24 13 50 45.0000000  0  5 02 12 06 13 09
  23255062.602      243443.566 5    108544.850 1
  22480545.914   -12474939.808 6  -9414298.091 1
  21770137.000    -2227660.588 6   5439804.192 2
  20604088.742      489824.165 7    359975.993 2
  20445727.852   -21685266.387 7      3615.291 1
 90 10 24 13 51  0.0000000  0  5 02 12 06 13 09
  23261710.531      278351.020 6    135745.357 1
  22472843.086   -12515423.117 6  -9445843.528 1
  21778335.703    -2184577.488 6   5473375.395 2
  20607289.180      506642.608 7    373081.255 1
  20445984.758   -21683919.895 7      4664.487 1
 90 10 24 13 51 15.0000000  0  5 02 12 06 13 09
  23268354.844      313264.783 6    162950.766 1
  22465145.031   -12555875.643 6  -9477364.978 1
  21786549.070    -2141423.670 6   5507001.696 2
  20610499.102      523509.596 7    386224.335 2
  20446262.289   -21682459.646 7      5802.322 1
 90 10 24 13 51 30.0000000  0  5 02 12 06 13 09
  23274997.719      348208.517 5    190179.553 1
  22457459.047   -12596273.487 6  -9508843.825 1
  21794778.547    -2098175.567 6   5540701.467 2
  20613722.266      540448.291 7    399423.296 2
  20446566.227   -21680862.334 7      7046.962 1
 90 10 24 13 51 45.0000000  0  5 02 12 06 13 09
  23281670.539      383231.694 6    217470.225 1
  22449790.453   -12636566.895 6  -9540241.287 1
  21803035.805    -2054784.110 6   5574512.946 2
  20616968.453      557507.995 7    412716.551 2
  20446905.141   -21679078.060 7      8437.287 1
 90 10 24 13 52  0.0000000  0  5 02 12 06 13 09
  23288338.359      418291.525 6    244789.467 1
  22442135.781   -12676798.072 6  -9571590.263 1
  21811311.672    -2011292.177 6   5608402.706 2
  20620229.758      574645.751 7    426070.621 2
  20447272.172   -21677149.527 7      9940.018 1
 90 10 24 13 52 15.0000000  0  5 02 12 06 13 09
  23295016.234      453385.394 6    272135.227 1
  22434491.008   -12716969.466 6  -9602892.653 1
  21819606.883    -1967702.817 6   5642368.390 2
  20623505.672      591858.450 7    439483.090 2
  20447666.312   -21675079.362 7     11553.113 1
 90 10 24 13 52 30.0000000  0  5 02 12 06 13 09
  23301716.133      488584.424 6    299562.944 1
  22426871.813   -12757009.540 6  -9634092.719 1
  21827931.555    -1923945.060 6   5676465.295 2
  20626809.227      609217.162 7    453009.333 1
  20448100.742   -21672796.273 7     13332.126 1
 90 10 24 13 52 45.0000000  0  5 02 12 06 13 09
  23308417.930      523808.825 6    327010.432 1
  22419261.898   -12796997.698 6  -9665252.338 1
  21836275.898    -1880098.919 6   5710631.065 2
  20630126.422      626641.589 7    466586.783 2
  20448559.977   -21670380.113 7     15214.820 1
 90 10 24 13 53  0.0000000  0  5 02 12 06 13 09
  23315126.813      559062.213 6    354480.481 1
  22411661.781   -12836930.013 6  -9696368.436 1
  21844638.086    -1836161.202 6   5744868.193 2
  20633454.078      644134.930 7    480217.933 2
  20449047.070   -21667826.886 7     17204.324 1
 90 10 24 13 53 15.0000000  0  5 02 12 06 13 09
  23321844.180      594367.095 6    381990.677 1
  22404078.961   -12876783.593 6  -9727423.182 1
  21853021.367    -1792109.502 6   5779194.142 2
  20636800.391      661719.665 7    493920.294 2
  20449562.719   -21665114.289 7     19318.018 1
 90 10 24 13 53 30.0000000  0  5 02 12 06 13 09
  23328585.633      629774.730 6    409580.933 1
  22396519.477   -12916506.732 6  -9758376.284 1
  21861435.031    -1747892.694 6   5813648.742 2
  20640173.672      679446.825 7    507733.639 2
  20450119.445   -21662190.728 7     21596.094 1
 90 10 24 13 53 45.0000000  0  5 02 12 06 13 09
  23335334.016      665259.359 5
  22388981.570   -12956124.803 6  -9789247.523 1
  21869877.719    -1703536.772 6   5848211.744 2
  20643569.180      697290.346 7    521637.656 2
  20450710.188   -21659081.884 7
 90 10 24 13 54  0.0000000  0  5 02 12 06 13 09
  23342100.258          -0.55415
  22381458.609   -12995648.996 6  -9820045.602 1
  21878339.852    -1659053.753 6   5882873.782 2
  20646985.109      715238.443 7    535623.151 2
  20451335.836          -0.09417
 90 10 24 13 54 15.0000000  0  5 02 12 06 13 09
  23348869.289       35555.083 5
  22373945.391   -13035139.063 6  -9850817.100 1
  21886817.523    -1614503.758 6   5917588.008 2
  20650408.797      733230.766 7    549643.121 2
  20451982.305        3396.538 7
 90 10 24 13 54 30.0000000  0  5 02 12 06 13 09
  23355639.563       71171.563 5
  22366447.328   -13074539.031 6  -9881518.385 1
  21895320.320    -1569831.501 7   5952397.497 2
  20653851.164      751322.514 7    563740.556 2
  20452659.938        6962.606 7        -0.02811
 90 10 24 13 54 45.0000000  0  5 02 12 06 13 09
  23362430.977      106823.840 5        -0.12211
  22358962.508   -13113873.642 6  -9912168.747 1
  21903838.320    -1525062.517 6   5987282.362 2
  20657308.609      769488.266 7    577895.659 2
  20453366.758       10673.164 7      2891.298 1
 90 10 24 13 55  0.0000000  0  5 02 12 06 13 09
  23369218.102      142510.730 5     27807.728 1
  22351490.008   -13153143.776 6  -9942768.863 1
  21912375.313    -1480198.149 7   6022241.554 2
  20660779.180      787726.700 7    592107.397 2
  20454100.313       14526.951 7      5894.223 1
 90 10 24 13 55 15.0000000  0  5 02 12 06 13 09
  23376023.398      178256.015 5     55661.077 1
  22344034.359   -13192325.281 6  -9973299.917 1
  21920936.461    -1435214.924 6   6057293.357 2
  20664268.172      806061.218 7    606394.005 2
  20454865.172       18547.984 7      9027.472 1
 90 10 24 13 55 30.0000000  0  5 02 12 06 13 09
  23382831.453      214049.836 5     83552.241 1
  22336592.664   -13231427.669 6 -10003769.322 1
  21929516.063    -1390122.901 6   6092429.938 2
  20667774.281      824481.806 7    620747.682 2
  20455660.109       22726.685 7     12283.580 1
 90 10 24 13 55 45.0000000  0  5 02 12 06 13 09
  23389653.750      249897.446 5    111485.333 1
  22329167.906   -13270445.562 6 -10034172.892 1
  21938118.594    -1344917.239 6   6127655.073 2
  20671295.805      842993.221 7    635172.128 2
  20456486.109       27067.807 7     15666.246 1
 90 10 24 13 56  0.0000000  0  5 02 12 06 13 09
  23396485.938      285798.435 5    139460.012 1
  22321758.836   -13309378.829 6 -10064510.506 1
  21946742.211    -1299598.557 6   6162968.270 2
  20674835.750      861594.668 7    649666.733 2
  20457343.680       31571.196 7     19175.355 1
 90 10 24 13 56 15.0000000  0  5 02 12 06 13 09
  23403325.352      321746.510 5    167471.376 1
  22314365.250   -13348233.495 6 -10094786.885 1
  21955387.391    -1254173.414 6   6198364.425 2
  20678391.406      880279.721 7    664226.484 2
  20458230.906       36230.830 7     22806.211 1
 90 10 24 13 56 30.0000000  0  5 02 12 06 13 09
  23410177.141      357730.304 6    195510.565 1
  22306983.063   -13387020.648 6 -10125010.655 1
  21964049.188    -1208653.440 6   6233834.480 2
  20681960.313      899036.776 7    678842.343 2
  20459144.633       41035.212 7     26549.863 1
 90 10 24 13 56 45.0000000  0  5 02 12 06 13 09
  23417043.641      393797.070 6    223614.431 1
  22299626.109   -13425692.438 6 -10155144.532 1
  21972738.828    -1162991.557 6   6269415.107 2
  20685552.094      917912.997 7    693551.057 2
  20460095.367       46031.817 7     30443.298 1
 90 10 24 13 57  0.0000000  0  5 02 12 06 13 09
  23423907.570      429902.891 5    251748.714 1
  22292281.133   -13464292.329 6 -10185222.383 1
  21981446.617    -1117231.930 6   6305071.901 2
  20689158.203      936864.155 7    708318.161 2
  20461074.016       51176.885 7     34452.416 1
 90 10 24 13 57 15.0000000  0  5 02 12 06 13 09
  23430791.188      466070.162 6    279930.895 1
  22284951.359   -13502797.562 6 -10215226.473 1
  21990176.617    -1071352.416 6   6340822.108 2
  20692783.328      955912.390 7    723160.913 2
  20462086.641       56492.934 7     38594.764 1
 90 10 24 13 57 30.0000000  0  5 02 12 06 13 09
  23437681.555      502279.832 5    308146.104 1
  22277639.883   -13541226.892 6 -10245171.418 1
  21998927.297    -1025372.422 6   6376650.621 2
  20696423.820      975037.986 7    738063.943 2
  20463126.805       61960.709 7     42855.347 1
 90 10 24 13 57 45.0000000  0  5 02 12 06 13 09
  23444569.836      538480.373 5    336354.201 1
  22270331.859   -13579631.491 6 -10275097.098 1
  22007685.664     -979343.754 6   6412517.050 2
  20700067.797      994189.382 7    752987.078 2
  20464185.727       67529.003 7     47194.255 1
 90 10 24 13 58  0.0000000  0  5 02 12 06 13 09
  23451471.609      574730.552 5    364600.970 1
  22263038.664   -13617952.032 6 -10304957.277 1
  22016464.320     -933207.619 6   6448467.219 2
  20703728.508     1013425.075 7    767975.902 2
  20465275.656       73256.343 7     51657.092 1
 90 10 24 13 58 15.0000000  0  5 02 12 06 13 09
  23458381.344      611033.986 5    392889.243 1
  22255763.727   -13656184.646 6 -10334748.935 1
  22025266.031     -886960.911 6   6484503.556 2
  20707404.953     1032748.491 7    783033.078 2
  20466397.156       79147.047 7     56247.230 1
 90 10 24 13 58 30.0000000  0  5 02 12 06 13 09
  23465294.922      647389.612 5    421218.182 1
  22248505.672   -13694330.056 7 -10364472.646 1
  22034086.789     -840604.893 6   6520625.069 2
  20711098.945     1052158.232 7    798157.522 2
  20467549.484       85199.714 7     60963.562 1
 90 10 24 13 58 45.0000000  0  5 02 12 06 13 09
  23472223.508      683787.260 5    449579.869 1
  22241262.664   -13732397.941 7 -10394135.951 1
  22042926.570     -794149.913 6   6556823.686 2
  20714806.633     1071643.965 7    813341.176 2
  20468728.680       91404.166 7     65798.181 1
 90 10 24 13 59  0.0000000  0  5 02 12 06 13 09
  23479148.516      720210.650 5    477961.610 1
  22234027.898   -13770404.444 6 -10423751.428 1
  22051782.414     -747612.755 6   6593086.351 2
  20718526.164     1091188.951 7    828571.002 2
  20469935.438       97744.035 7     70738.309 1
 90 10 24 13 59 15.0000000  0  5 02 12 06 13 09
  23486095.461      756684.256 5    506382.474 1
  22226813.281   -13808324.512 6 -10453299.550 1
  22060658.711     -700968.858 6   6629432.176 2
  20722261.742     1110817.783 7    843866.159 2
  20471173.039      104244.323 7     75803.443 1
 90 10 24 13 59 30.0000000  0  5 02 12 06 13 09
  23493044.406      793206.056 5    534840.902 1
  22219613.977   -13846159.922 7 -10482781.701 1
  22069555.563     -654220.811 6   6665859.167 2
  20726012.617     1130527.769 7    859224.565 2
  20472440.008      110902.816 7     80991.852 1
 90 10 24 13 59 45.0000000  0  5 02 12 06 13 09
  23500005.250      829782.917 5    563342.222 1
  22212431.477   -13883903.556 7 -10512192.344 1
  22078473.156     -607361.996 6   6702372.464 2
  20729779.773     1150325.459 7    874651.308 2
  20473738.992      117726.343 7     86308.862 1
 90 10 24 14  0  0.0000000  0  5 02 12 06 13 09
  23506975.875      866400.592 5    591875.364 1
  22205263.078   -13921569.194 7 -10541542.211 1
  22087407.727     -560406.915 6   6738960.774 2
  20733561.234     1170196.539 7    890135.231 2
  20475065.078      124700.871 7     91743.535 1
 90 10 24 14  0 15.0000000  0  5 02 12 06 13 09
  23513950.133      903060.080 5    620441.070 1
  22198111.117   -13959155.483 7 -10570830.251 2
  22096361.859     -513354.892 6   6775624.621 2
  20737356.531     1190141.422 7    905676.664 2
  20476421.242      131827.355 7     97296.614 1
 90 10 24 14  0 30.0000000  0  5 02 12 06 13 09
  23520936.336      939769.970 5    649046.050 1
  22190975.656   -13996653.435 7 -10600049.448 2
  22105334.086     -466197.504 6   6812370.573 2
  20741166.820     1210168.661 7    921282.274 2
  20477807.813      139114.410 7    102974.812 1
 90 10 24 14  0 45.0000000  0  5 02 12 06 13 09
  23527936.125      976540.104 5    677697.981 1
  22183859.313   -14034052.698 7 -10629191.753 2
  22114330.422     -418925.100 6   6849206.147 1
  20744996.313     1230287.992 7    936959.643 2
  20479227.922      146572.093 7    108785.967 1
 90 10 24 14  1  0.0000000  0  5 02 12 06 13 09
  23534939.461     1013362.950 5    706390.986 1
  22176758.617   -14071360.484 7 -10658262.768 2
  22123347.078     -371545.419 6   6886125.318 1
  20748841.297     1250491.545 7    952702.643 2
  20480676.641      154192.896 7    114724.226 1
 90 10 24 14  1 15.0000000  0  5 02 12 06 13 09
  23541953.328     1050215.450 5    735107.085 1
  22169671.898   -14108599.374 7 -10687280.102 2
  22132378.914     -324081.961 6   6923109.763 1
  20752696.719     1270756.102 7    968493.172 2
  20482154.594      161953.839 7    120771.690 1
 90 10 24 14  1 30.0000000  0  5 02 12 06 13 09
  23548973.688     1087111.729 5    763857.322 1
  22162602.055   -14145754.951 7 -10716232.518 1
  22141429.258     -276520.757 6   6960170.376 1
  20756567.586     1291095.181 7    984341.772 2
  20483660.180      169869.224 7    126939.497 1
 90 10 24 14  1 45.0000000  0  5 02 12 06 13 09
  23556007.695     1124063.004 5    792650.404 1
  22155550.148   -14182815.812 7 -10745111.128 2
  22150501.117     -228851.185 6   6997315.427 1
  20760454.164     1311519.704 7   1000256.952 2
  20485197.820      177949.616 7    133235.876 1
 90 10 24 14  2  0.0000000  0  5 02 12 06 13 09
  23563045.078     1161057.279 5    821476.999 1
  22148515.094   -14219793.565 7 -10773924.980 2
  22159590.562     -181085.268 6   7034535.556 1
  20764354.898     1332017.641 7   1016229.335 2
  20486765.297      186183.608 7    139651.951 1
 90 10 24 14  2 15.0000000  0  5 02 12 06 13 09
  23570095.430     1198106.049 5    850346.056 1
  22141494.609   -14256676.143 7 -10802664.664 2
  22168700.414     -133211.740 6   7071839.533 1
  20768272.984     1352600.213 7   1032267.671 2
  20488364.164      194582.870 7    146196.803 1
 90 10 24 14  2 30.0000000  0  5 02 12 06 13 09
  23577157.406     1235209.105 5    879257.392 1
  22134493.781   -14293463.512 7 -10831330.167 2
  22177830.891      -85231.201 6   7109226.903 1
  20772204.641     1373266.937 7   1048371.573 2
  20489993.953      203146.810 7    152869.976 1
 90 10 24 14  2 45.0000000  0  5 02 12 06 13 09
  23584222.805     1272354.191 5    908201.495 1
  22127509.945   -14330167.591 7 -10859930.769 2
  22186979.219      -37156.230 6   7146687.847 1
  20776151.008     1394004.957 7   1064531.040 2
  20491652.773      211863.459 7    159662.137 1
 90 10 24 14  3  0.0000000  0  5 02 12 06 13 09
  23591301.844     1309548.595 5    937184.015 1
  22120541.641   -14366780.673 7 -10888460.459 2
  22196146.234       11020.377 6   7184227.995 1
  20780112.086     1414821.635 7   1080751.795 2
  20493341.766      220740.181 7    166579.039 1
 90 10 24 14  3 15.0000000  0  5 02 12 06 13 09
  23598390.875     1346790.690 5    966203.701 1
  22113593.375   -14403304.122 7 -10916920.311 2
  22205334.719       59296.543 6   7221845.718 1
  20784088.258     1435714.988 7   1097032.296 2
  20495061.313      229775.102 7    173619.210 1
 90 10 24 14  3 30.0000000  0  5 02 12 06 13 09
  23605486.430     1384089.982 5    995267.949 1
  22106661.367   -14439728.096 7 -10945302.649 2
  22214540.664      107681.555 6   7259548.249 1
  20788079.711     1456694.046 7   1113379.579 2
  20496811.945      238978.131 7    180790.372 1
 90 10 24 14  3 45.0000000  0  5 02 12 06 13 09
  23612591.992     1421431.905 5   1024365.421 1
  22099746.430   -14476066.664 7 -10973618.427 2
  22223767.125      156160.526 6   7297324.002 1
  20792085.797     1477744.174 7   1129782.245 2
  20498592.711      248334.678 7    188081.163 2
 90 10 24 14  4  0.0000000  0  5 02 12 06 13 09
  23619705.859     1458805.838 5   1053487.826 1
  22092845.922   -14512329.948 7 -11001875.556 2
  22233007.398      204722.683 6   7335164.569 1
  20796102.992     1498854.472 7   1146231.793 2
  20500400.148      257833.772 7    195483.029 1
 90 10 24 14  4 15.0000000  0  5 02 12 06 13 09
  23626834.336     1496246.037 5   1082661.881 1
  22085965.648   -14548483.468 7 -11030047.149 2
  22242270.781      253401.942 6   7373096.393 1
  20800138.125     1520059.012 7   1162754.775 2
  20502241.797      267510.254 7    203023.119 1
 90 10 24 14  4 30.0000000  0  5 02 12 06 13 09
  23633970.883     1533777.208 5   1111906.828 1
  22079111.906   -14584502.082 7 -11058113.621 2
  22251561.398      302222.687 6   7411138.461 1
  20804195.336     1541382.251 7   1179370.251 2
  20504121.063      277388.519 7    210720.438 1
 90 10 24 14  4 45.0000000  0  5 02 12 06 13 09
  23641121.063     1571344.539 5   1141179.949 1
  22072272.102   -14620440.165 7 -11086117.339 2
  22260868.109      351130.042 6   7449248.019 1
  20808266.727     1562768.878 7   1196035.123 2
  20506029.609      287414.039 7    218532.503 1
 90 10 24 14  5  0.0000000  0  5 02 12 06 13 09
  23648275.086     1608939.579 5   1170474.646 1
  22065448.266   -14656305.775 7 -11114064.589 2
  22270189.320      400115.159 6   7487418.172 1
  20812345.328     1584210.390 7   1212742.757 2
  20507963.930      297578.034 7    226452.474 1
 90 10 24 14  5 15.0000000  0  5 02 12 06 13 09
  23655441.852     1646593.474 5   1199815.203 1
  22058641.961   -14692067.455 7 -11141930.849 2
  22279533.055      449208.919 6   7525672.983 1
  20816443.242     1605737.650 7   1229517.211 2
  20509929.539      307912.068 7    234504.933 1
 90 10 24 14  5 30.0000000  0  5 02 12 06 13 09
  23662621.648     1684335.999 5   1229224.835 1
  22051864.258   -14727694.968 7 -11169692.568 2
  22288900.500      498440.962 6   7564035.538 1
  20820561.586     1627380.354 7   1246381.620 2
  20511933.867      318445.846 7    242713.043 1
 90 10 24 14  5 45.0000000  0  5 02 12 06 13 09
  23669817.273     1722138.335 5   1258681.103 1
  22045104.602   -14763216.873 7 -11197371.993 2
  22298288.133      547781.898 6   7602482.958 1
  20824695.641     1649109.185 7   1263313.138 2
  20513970.969      329150.581 7    251054.369 1
 90 10 24 14  6  0.0000000  0  5 02 12 06 13 09
  23677022.984     1760000.322 5   1288183.812 1
  22038363.352   -14798632.855 7 -11224968.883 2
  22307701.023      597231.519 6   7641015.055 1
  20828847.531     1670924.007 7   1280311.666 2
  20516040.500      340025.927 7    259528.636 2
 90 10 24 14  6 15.0000000  0  5 02 12 06 13 09
  23684241.797     1797941.870 5   1317748.524 1
  22031648.547   -14833922.647 7 -11252467.440 2
  22317135.641      646809.285 6   7679647.007 1
  20833018.258     1692844.205 7   1297392.305 2
  20518147.180      351092.025 7    268151.539 1
 90 10 24 14  6 30.0000000  0  5 02 12 06 13 09
  23691478.711     1835962.565 5   1347374.901 1
  22024955.609   -14869086.533 7 -11279867.887 2
  22326592.391      696514.444 6   7718378.227 1
  20837209.695     1714868.875 7   1314554.343 2
  20520289.063      362348.341 7    276922.670 2
 90 10 24 14  6 45.0000000  0  5 02 12 06 13 09
  23698722.117     1874033.562 5   1377040.480 1
  22018284.352   -14904152.829 7 -11307192.296 2
  22336070.531      746318.043 6   7757186.157 1
  20841415.586     1736969.118 7   1331775.277 2
  20522461.430      373765.951 7    285819.478 2
 90 10 24 14  7  0.0000000  0  5 02 12 06 13 09
  23705979.195     1912154.101 5   1406744.657 1
  22011629.531   -14939122.264 7 -11334441.226 2
  22345566.930      796218.779 6   7796069.775 1
  20845635.625     1759143.645 7   1349054.088 2
  20524665.023      385344.149 7    294841.417 2
 90 10 24 14  7 15.0000000  0  5 02 12 06 13 09
  23713246.344     1950353.524 5   1436510.304 1
  22004998.781   -14973964.938 7 -11361591.386 2
  22355086.484      846245.776 6   7835051.773 1
  20849874.625     1781421.715 7   1366413.582 2
  20526903.672      397112.299 7    304011.376 2
 90 10 24 14  7 30.0000000  0  5 02 12 06 13 09
  23720551.578     1988744.792 5   1466425.436 1
  21998415.047   -15008567.156 7 -11388554.166 2
  22364651.531      896512.008 6   7874220.192 1
  20854154.617     1803916.449 7   1383941.910 2
  20529202.305      409183.491 7    313417.466 2
 90 10 24 14  7 45.0000000  0  5 02 12 06 13 09
  23727849.188     2027090.023 5   1496304.711 1
  21991830.609   -15043166.531 7 -11415514.740 2
  22374217.578      946779.150 6   7913389.323 1
  20858430.977     1826389.419 7   1401453.277 2
  20531511.563      421319.877 7    322874.360 2
 90 10 24 14  8  0.0000000  0  5 02 12 06 13 09
  23735160.672     2065510.149 5   1526242.349 1
  21985270.922   -15077641.754 7 -11442378.569 2
  22383805.227      997167.858 6   7952653.174 1
  20862726.859     1848961.174 7   1419041.615 2
  20533855.820      433642.432 7    332476.320 2
 90 10 24 14  8 15.0000000  0  5 02 12 06 13 09
  23742478.594     2103957.443 5   1556201.130 1
  21978724.352   -15112040.127 7 -11469182.514 2
  22393407.086     1047630.169 6   7991974.384 1
  20867031.273     1871583.781 7   1436669.581 2
  20536227.906      446103.696 7    342186.365 1
 90 10 24 14  8 30.0000000  0  5 02 12 06 13 09
  23749823.500     2142571.163 5   1586289.640 1
  21972218.695   -15146222.105 7 -11495817.841 2
  22403051.125     1098304.988 6   8031461.186 1
  20871373.000     1894396.182 7   1454445.438 2
  20538651.133      458842.229 7    352112.464 1
 90 10 24 14  8 45.0000000  0  5 02 12 06 13 09
  23757192.469     2181293.168 5   1616462.495 1
  21965744.953   -15180245.395 7 -11522329.517 2
  22412722.438     1149133.976 6   8071068.113 1
  20875738.203     1917340.070 7   1472323.751 2
  20541118.148      471800.398 7    362209.708 1
 90 10 24 14  9  0.0000000  0  5 02 12 06 13 09
  23764555.086     2219977.552 5   1646606.043 1
  21959274.664   -15214255.618 7 -11548831.009 2
  22422397.586     1199970.871 6   8110681.205 1
  20880102.398     1940269.298 7   1490190.642 2
  20543596.672      484832.244 7    372364.358 2
 90 10 24 14  9 15.0000000  0  5 02 12 06 13 09
  23771907.336     2258610.084 5   1676709.162 1
  21952802.109   -15248266.534 7 -11575333.042 2
  22432071.516     1250801.254 6   8150289.219 1
  20884459.594     1963169.428 7   1508034.856 2
  20546089.688      497923.485 7    382565.297 1
 90 10 24 14  9 30.0000000  0  5 02 12 06 13 09
  23779270.656     2297320.289 5   1706872.818 1
  21946355.000   -15282148.351 7 -11601734.476 2
  22441766.688     1301754.252 6   8189992.779 1
  20888836.844     1986169.478 7   1525956.934 2
  20548615.297      511203.465 7    392913.304 2
 90 10 24 14  9 45.0000000  0  5 02 12 06 13 09
  23786647.188     2336073.773 5   1737070.207 1
  21939924.211   -15315935.150 7 -11628061.877 2
  22451479.805     1352795.192 6   8229764.862 1
  20893226.758     2009235.073 7   1543930.082 2
  20551171.000      524638.055 7    403381.778 1
 90 10 24 14 10  0.0000000  0  5 02 12 06 13 09
  23794032.227     2374888.355 5   1767315.178 1
  21933517.516   -15349608.851 7 -11654301.151 2
  22461212.844     1403941.410 6   8269618.977 1
  20897631.156     2032383.631 7   1561967.874 2
  20553761.914      538245.042 7    413984.598 2
 90 10 24 14 10 15.0000000  0  5 02 12 06 13 09
  23801433.586     2413769.196 5   1797611.804 1
  21927131.414   -15383163.812 7 -11680447.888 2
  22470966.820     1455197.997 6   8309559.099 1
  20902051.469     2055620.054 7   1580074.138 2
  20556384.703      552029.415 7    424725.634 2
 90 10 24 14 10 30.0000000  0  5 02 12 06 13 09
  23808831.539     2452668.183 5   1827922.573 1
  21920758.891   -15416647.651 7 -11706539.213 2
  22480731.531     1506516.573 6   8349547.523 1
  20906481.211     2078896.137 7   1598211.306 2
  20559032.727      565943.151 7    435567.475 2
 90 10 24 14 10 45.0000000  0  5 02 12 06 13 09
  23816254.813     2491662.381 5   1858307.519 1
  21914417.516   -15449982.799 7 -11732514.679 2
  22490525.055     1557973.941 6   8389644.095 1
  20910932.633     2102288.667 7   1616439.204 2
  20561720.680      580063.421 7    446570.249 2
 90 10 24 14 11  0.0000000  0  5 02 12 06 13 09
  23823685.016     2530711.760 5   1888735.456 1
  21908093.320   -15483209.111 7 -11758405.333 2
  22500333.797     1609529.722 6   8429817.350 1
  20915399.250     2125757.522 7   1634726.584 2
  20564438.742      594350.101 7    457702.696 1
 90 10 24 14 11 15.0000000  0  5 02 12 06 13 09
  23831136.375     2569857.537 5   1919238.530 1
  21901798.992   -15516284.868 7 -11784178.671 2
  22510172.602     1661224.928 6   8470099.254 1
  20919888.469     2149343.373 7   1653105.126 2
  20567196.445      608844.658 7    468997.124 2
 90 10 24 14 11 30.0000000  0  5 02 12 06 13 09
  23838587.898     2609022.649 5   1949756.665 1
  21895519.773   -15549286.850 7 -11809894.522 2
  22520021.500     1712982.113 6   8510429.452 1
  20924384.469     2172968.713 7   1671514.440 2
  20569978.938      623469.616 7    480393.162 2
 90 10 24 14 11 45.0000000  0  5 02 12 06 13 09
  23846041.750     2648201.908 5   1980285.833 1
  21889252.852   -15582219.890 7 -11835556.657 2
  22529881.484     1764795.765 6   8550803.644 1
  20928887.203     2196628.375 7   1689950.495 2
  20572785.008      638219.526 7    491886.567 2
 90 10 24 14 12  0.0000000  0  5 02 12 06 13 09
  23853514.164     2687464.862 5   2010880.212 1
  21883012.148   -15615013.940 7 -11861110.483 2
  22539765.773     1816735.248 6   8591275.890 1
  20933407.391     2220391.598 7   1708467.250 2
  20575630.344      653164.702 7    503532.127 2
 90 10 24 14 12 15.0000000  0  5 02 12 06 13 09
  23860996.414     2726786.300 5   2041520.169 1
  21876792.516   -15647693.790 7 -11886575.325 2
  22549668.711     1868775.166 6   8631826.401 1
  20937944.234     2244233.063 7   1727044.972 2
  20578507.344      668279.533 7    515309.883 2
 90 10 24 14 12 30.0000000  0  5 02 12 06 13 09
  23868491.664     2766161.494 5   2072202.001 1
  21870595.477   -15680264.021 7 -11911954.747 2
  22559588.945     1920910.324 6   8672451.117 1
  20942495.680     2268147.583 7   1745679.620 2
  20581412.812      683559.086 7    527215.997 2
 90 10 24 14 12 45.0000000  0  5 02 12 06 13 09
  23875989.867     2805584.563 5   2102921.156 1
  21864417.398   -15712730.008 7 -11937252.942 2
  22569527.086     1973134.630 6   8713145.300 1
  20947058.281     2292129.199 7   1764366.545 2
  20584352.852      698998.124 7    539246.382 2
 90 10 24 14 13  0.0000000  0  5 02 12 06 13 09
  23883498.203     2845011.089 5   2133642.987 1
  21858251.383   -15745135.921 7 -11962504.327 2
  22579472.625     2025403.274 6   8753874.032 1
  20951628.281     2316133.206 7   1783070.928 2
  20587310.758      714551.548 7    551365.895 2
 90 10 24 14 13 15.0000000  0  5 02 12 06 13 09
  23891017.555     2884548.202 5   2164450.982 1
  21852116.492   -15777374.283 7 -11987625.156 2
  22589449.195     2077823.084 6   8794720.558 1
  20956218.859     2340266.471 7   1801876.028 2
  20590313.898      730326.575 7    563658.093 2
 90 10 24 14 13 30.0000000  0  5 02 12 06 13 09
  23898603.719     2924399.091 5   2195503.475 1
  21846051.898   -15809241.496 7 -12012456.771 2
  22599491.461     2130597.072 6   8835843.067 1
  20960873.758     2364731.759 7   1820939.845 2
  20593395.477      746526.565 7    576281.431 2
 90 10 24 14 13 45.0000000  0  5 02 12 06 13 09
  23906139.773     2964011.510 5   2226370.159 1
  21839953.055   -15841289.218 7 -12037429.053 2
  22609496.664     2183172.775 6   8876811.063 1
  20965489.688     2388976.768 7   1839832.018 2
  20596454.016      762599.088 7    588805.437 2
 90 10 24 14 14  0.0000000  0  5 02 12 06 13 09
  23913689.852     3003690.939 5   2257289.063 1
  21833878.242   -15873211.695 7 -12062303.732 2
  22619521.234     2235855.351 6   8917862.349 1
  20970119.602     2413306.834 7   1858790.471 2
  20599547.547      778849.713 7    601468.229 2
 90 10 24 14 14 15.0000000  0  5 02 12 06 13 09
  23921256.031     3043439.211 5   2288261.603 1
  21827828.672   -15905006.793 7 -12087079.157 2
  22629567.242     2288646.252 6   8958998.031 1
  20974765.203     2437723.514 7   1877816.416 2
  20602675.188      795280.225 7    614271.190 2
 90 10 24 14 14 30.0000000  0  5 02 12 06 13 09
  23928819.375     3083195.529 5   2319240.404 1
  21821790.453   -15936734.974 7 -12111802.440 2
  22639621.313     2341484.463 6   9000170.583 1
  20979415.461     2462165.660 7   1896862.200 2
  20605824.953      811829.953 7    627167.047 2
 90 10 24 14 14 45.0000000  0  5 02 12 06 13 09
  23936399.148     3123028.245 5   2350278.735 1
  21815780.859   -15968327.351 7 -12136419.897 2
  22649698.633     2394438.036 6   9041433.020 1
  20984085.203     2486701.484 7   1915980.979 2
  20609009.250      828567.099 7    640208.946 2
 90 10 24 14 15  0.0000000  0  5 02 12 06 13 09
  23943977.297     3162856.612 5   2381313.681 1
  21809778.125   -15999864.471 7 -12160994.301 2
  22659780.813     2447425.849 6   9082722.148 1
  20988756.711     2511249.743 7   1935109.453 2
  20612213.797      845410.906 7    653333.957 2
 90 10 24 14 15 15.0000000  0  5 02 12 06 13 09
  23951559.016     3202692.372 5   2412354.398 1
  21803789.484   -16031334.037 7 -12185516.068 2
  22669875.156     2500459.447 6   9124046.947 1
  20993432.313     2535821.909 7   1954256.546 2
  20615441.789      862372.986 7    666551.120 2
 90 10 24 14 15 30.0000000  0  5 02 12 06 13 09
  23959156.867     3242600.216 5   2443451.283 1
  21797826.547   -16062671.053 7 -12209934.544 2
  22679985.453     2553603.136 6   9165457.536 1
  20998125.648     2560482.655 7   1973472.674 2
  20618706.117      879517.694 7    679910.602 2
 90 10 24 14 15 45.0000000  0  5 02 12 06 13 09
  23966758.023     3282545.062 5   2474577.009 1
  21791881.188   -16093910.042 7 -12234276.638 2
  22690114.617     2606821.750 6   9206926.513 1
  21002828.992     2585196.642 7   1992730.284 2
  20621995.367      896810.773 7    693385.691 2
 90 10 24 14 16  0.0000000  0  5 02 12 06 13 09
  23974371.063     3322547.652 5   2505747.722 1
  21785958.547   -16125030.081 7 -12258526.042 2
  22700260.094     2660135.613 6   9248469.699 1
  21007546.922     2609984.342 7   2012045.329 2
  20625316.445      914272.199 7    706991.958 2
 90 10 24 14 16 15.0000000  0  5 02 12 06 13 09
  23981993.977     3362611.474 5   2536966.125 1
  21780060.984   -16156027.473 7 -12282679.882 2
  22710422.148     2713547.668 6   9290089.401 1
  21012276.398     2634848.701 7   2031420.108 2
  20628672.867      931905.316 7    720732.020 2
 90 10 24 14 16 30.0000000  0  5 02 12 06 13 09
  23989624.000     3402716.891 5   2568216.963 1
  21774182.633   -16186921.164 7 -12306752.911 2
  22720603.211     2767038.251 6   9331770.296 1
  21017018.719     2659770.327 7   2050839.514 2
  20632058.563      949690.844 7    734590.832 2
 90 10 24 14 16 45.0000000  0  5 02 12 06 13 09
  23997265.820     3442863.287 5   2599499.742 1
  21768323.141   -16217711.590 7 -12330745.473 2
  22730796.750     2820606.511 6   9373511.711 1
  21021773.914     2684748.301 7   2070302.821 2
  20635468.898      967628.265 7    748568.002 2
 90 10 24 14 17  0.0000000  0  5 02 12 06 13 09
  24004915.383     3483065.699 5   2630826.149 1
  21762487.336   -16248383.326 7 -12354645.549 2
  22741008.063     2874267.014 6   9415325.005 1
  21026538.242     2709797.119 7   2089821.336 2
  20638917.313      985732.172 7    762674.911 2
 90 10 24 14 17 15.0000000  0  5 02 12 06 13 09
  24012575.375     3523332.882 5   2662203.025 1
  21756674.672   -16278927.274 7 -12378446.059 2
  22751239.625     2928028.270 6   9457216.811 1
  21031321.227     2734925.364 7   2109401.738 2
  20642392.820     1004011.592 7    776918.576 2
 90 10 24 14 17 30.0000000  0  5 02 12 06 13 09
  24020252.898     3563668.022 5   2693632.862 1
  21750886.617   -16309339.707 7 -12402144.080 2
  22761489.195     2981893.365 6   9499189.530 1
  21036118.180     2760136.351 7   2129046.614 2
  20645907.391     1022469.559 7    791301.370 2
 90 10 24 14 17 45.0000000  0  5 02 12 06 13 09
  24027939.758     3604058.925 5   2725106.157 1
  21745122.766   -16339632.665 7 -12425749.011 2
  22771755.813     3035849.567 6   9541233.237 1
  21040927.531     2785417.191 7   2148745.925 2
  20649451.570     1041093.825 7    805813.747 2
 90 10 24 14 18  0.0000000  0  5 02 12 06 13 09
  24035637.531     3644495.665 5   2756615.180 1
  21739378.406   -16369815.622 7 -12449268.223 2
  22782040.289     3089886.703 6   9583340.013 1
  21045753.953     2810757.741 7   2168491.760 2
  20653023.586     1059874.366 7    820447.899 2
 90 10 24 14 18 15.0000000  0  5 02 12 06 13 09
  24043341.539     3684994.579 5   2788172.605 1
  21733659.719   -16399871.603 7 -12472688.490 2
  22792341.352     3144021.081 6   9625522.559 1
  21050589.164     2836174.535 7   2188297.005 2
  20656630.234     1078827.822 7    835216.786 2
 90 10 24 14 18 30.0000000  0  5 02 12 06 13 09
  24051064.586     3725571.910 5   2819791.166 1
  21727966.852   -16429784.164 7 -12495997.009 2
  22802663.875     3198268.492 6   9667793.182 1
  21055443.734     2861683.197 7   2208173.836 2
  20660274.336     1097970.070 7    850132.785 2
 90 10 24 14 18 45.0000000  0  5 02 12 06 13 09
  24058791.984     3766179.370 5   2851433.164 1
  21722292.922   -16459601.336 7 -12519231.195 2
  22812998.602     3252580.150 6   9710113.866 1
  21060304.937     2887235.197 7   2228084.436 2
  20663944.711     1117252.612 7    865158.105 2
 90 10 24 14 19  0.0000000  0  5 02 12 06 13 09
  24066524.945     3806830.665 5   2883109.362 1
  21716639.688   -16489308.883 7 -12542379.957 2
  22823347.070     3306969.709 6   9752495.257 1
  21065177.680     2912844.223 7   2248039.473 2
  20667643.203     1136689.613 7    880303.780 2
 90 10 24 14 19 15.0000000  0  5 02 12 06 13 09
  24074272.219     3847527.363 5   2914820.935 1
  21711006.977   -16518904.988 7 -12565441.882 2
  22833713.188     3361438.313 6   9794938.239 1
  21070061.000     2938511.620 7   2268039.992 2
  20671371.203     1156282.031 7    895570.562 2
 90 10 24 14 19 30.0000000  0  5 02 12 06 13 09
  24082022.008     3888256.812 5   2946558.041 1
  21705395.688   -16548401.979 7 -12588426.576 2
  22844091.891     3415973.004 6   9837432.714 1
  21074957.203     2964224.237 7   2288075.750 2
  20675124.758     1176017.259 7    910948.620 2
 90 10 24 14 19 45.0000000  0  5 02 12 06 13 09
  24089778.250     3929017.033 5   2978319.095 1
  21699800.531   -16577801.307 7 -12611335.165 2
  22854481.930     3470571.627 6   9879977.010 1
  21079857.516     2989979.929 7   2308145.067 2
  20678907.141     1195893.535 7    926436.590 2
 90 10 24 14 20  0.0000000  0  5 02 12 06 13 09
  24097542.516     3969820.198 5   3010113.608 1
  21694226.836   -16607090.455 7 -12634157.904 2
  22864885.188     3525245.921 6   9922580.267 1
  21084766.766     3015790.835 7   2328257.412 2
  20682721.039     1215922.986 7    942043.908 2
 90 10 24 14 20 15.0000000  0  5 02 12 06 13 09
  24105328.188     4010729.458 5   3041990.798 1
  21688686.844   -16636205.933 7 -12656845.317 2
  22875317.305     3580058.852 6   9965291.556 1
  21089701.445     3041719.783 7   2348461.738 2
  20686574.203     1236168.347 7    957819.481 2
 90 10 24 14 20 30.0000000  0  5 02 12 06 13 09
  24113121.414     4051671.974 5   3073893.924 1
  21683165.500   -16665220.185 7 -12679453.848 2
  22885758.742     3634937.248 6  10008053.844 1
  21094646.305     3067693.736 7   2368701.137 2
  20690451.172     1256557.175 7    973706.840 2
 90 10 24 14 20 45.0000000  0  5 02 12 06 13 09
  24120920.102     4092670.759 5   3105840.877 1
  21677667.969   -16694109.898 7 -12701965.338 2
  22896219.141     3689903.718 6  10050884.770 1
  21099599.203     3093735.277 7   2388993.191 2
  20694366.219     1277112.167 7    989723.677 2
 90 10 24 14 21  0.0000000  0  5 02 12 06 13 09
  24128732.672     4133711.279 5   3137820.365 1
  21672191.211   -16722889.187 7 -12724390.781 2
  22906693.828     3744943.699 6  10093772.980 1
  21104566.977     3119829.977 7   2409326.679 2
  20698303.523     1297818.569 7   1005858.496 2
 90 10 24 14 21 15.0000000  0  5 02 12 06 13 09
  24136561.758     4174876.961 5   3169897.352 1
  21666751.484   -16751474.265 7 -12746664.897 2
  22917197.555     3800140.230 6  10136783.175 1
  21109558.266     3146060.884 7   2429766.300 2
  20702291.711     1318760.178 7   1022176.594 2
 90 10 24 14 21 30.0000000  0  5 02 12 06 13 09
  24144391.828     4216020.124 5   3201956.807 1
  21661320.969   -16780012.576 7 -12768902.566 2
  22927702.391     3855345.154 6  10179799.910 1
  21114546.906     3172279.941 7   2450196.681 2
  20706289.414     1339788.922 7   1038562.587 2
 90 10 24 14 21 45.0000000  0  5 02 12 06 13 09
  24152234.797     4257221.672 5   3234061.759 1
  21655915.688   -16808422.733 7 -12791040.377 2
  22938224.953     3910639.198 6  10222886.080 1
  21119550.938     3198567.894 7   2470680.758 2
  20710324.570     1360985.448 7   1055079.322 2
 90 10 24 14 22  0.0000000  0  5 02 12 06 13 09
  24160082.484     4298464.849 5   3266199.169 1
  21650529.453   -16836720.882 7 -12813090.912 2
  22948760.805     3966005.484 6  10266028.553 1
  21124561.617     3224907.914 7   2491205.399 2
  20714389.523     1382333.304 7   1071713.973 2
 90 10 24 14 22 15.0000000  0  5 02 12 06 13 09
  24167944.289     4339773.885 4   3298387.863 1
  21645170.961   -16864882.641 7 -12835035.162 2
  22959316.352     4021467.782 6  10309245.829 1
  21129587.141     3251323.761 7   2511789.127 2
  20718485.609     1403856.580 7   1088485.317 2
 90 10 24 14 22 30.0000000  0  5 02 12 06 13 09
  24175791.633     4381016.599 4   3330524.885 1
  21639813.016   -16893039.954 7 -12856975.954 2
  22969859.875     4076893.538 6  10352434.645 1
  21134605.227     3277683.085 7   2532328.808 2
  20722587.344     1425423.063 7   1105290.328 2
 90 10 24 14 22 45.0000000  0  5 02 12 06 13 09
  24183661.664     4422377.680 4   3362753.865 1
  21634490.719   -16921007.538 7 -12878769.185 2
  22980437.156     4132467.315 6  10395738.504 1
  21139645.320     3304170.518 7   2552968.041 2
  20726734.438     1447217.144 7   1122272.406 2
 90 10 24 14 23  0.0000000  0  5 02 12 06 13 09
  24191573.633     4463954.477 4   3395151.502 1
  21629223.305   -16948687.889 7 -12900338.037 2
  22991057.930     4188286.032 6  10439233.780 1
  21144727.930     3330883.236 7   2573783.375 2
  20730943.820     1469336.362 7   1139508.398 2
 90 10 24 14 23 15.0000000  0  5 02 12 06 13 09
  24199482.242     4505504.365 5   3427527.868 1
  21623963.977   -16976323.157 7 -12921872.042 2
  23001682.258     4244106.788 6  10482730.391 1
  21149806.844     3357578.241 7   2594584.628 2
  20735169.211     1491537.851 7   1156808.220 2
 90 10 24 14 23 30.0000000  0  5 02 12 06 13 09
  24207390.578     4547067.505 4   3459914.560 1
  21618721.563   -17003872.876 7 -12943339.384 2
  23012313.141     4299969.510 6  10526259.682 1
  21154891.992     3384295.339 7   2615403.096 2
  20739419.453     1513861.935 7   1174203.567 2
 90 10 24 14 23 45.0000000  0  5 02 12 06 13 09
  24215312.086     4588697.657 4   3492353.486 1
  21613506.563   -17031283.152 7 -12964698.074 2
  23022960.727     4355927.322 6  10569863.087 1
  21159991.328     3411087.883 7   2636280.352 1
  20743699.594     1536361.778 7   1191735.870 2
 90 10 24 14 24  0.0000000  0  5 02 12 06 13 09
  24223249.992     4630410.538 4   3524856.862 1
  21608319.031   -17058537.551 7 -12985935.290 2
  23033629.711     4411996.052 6  10613552.921 1
  21165109.109     3437971.834 7   2657228.840 1
  20748014.000     1559053.494 7   1209417.689 2
 90 10 24 14 24 15.0000000  0  5 02 12 06 13 09
  24231173.125     4672033.126 4   3557289.884 1
  21603130.773   -17085808.689 7 -13007185.561 2
  23044287.078     4468002.313 6  10657194.055 1
  21170207.695     3464773.740 7   2678113.390 2
  20752338.461     1581763.762 7   1227113.958 2
 90 10 24 14 24 30.0000000  0  5 02 12 06 13 09
  24239090.086     4713648.807 4   3589717.510 1
  21597954.086   -17113012.792 7 -13028383.593 2
  23054948.961     4524029.232 6  10700851.316 1
  21175307.836     3491577.019 7   2698999.012 2
  20756679.961     1604576.164 7   1244889.815 2
 90 10 24 14 24 45.0000000  0  5 02 12 06 13 09
  24247020.180     4755323.445 4   3622191.118 1
  21592802.273   -17140083.623 7 -13049477.775 2
  23065625.945     4580142.480 6  10744575.823 1
  21180421.117     3518447.294 7   2719936.840 2
  20761050.828     1627556.205 7   1262796.295 2
 90 10 24 14 25  0.0000000  0  5 02 12 06 13 09
  24254955.195     4797021.349 4   3654682.808 1
  21587669.289   -17167056.503 7 -13070495.635 2
  23076313.656     4636306.065 6  10788339.560 1
  21185540.195     3545348.520 7   2740898.777 2
  20765450.586     1650668.334 7   1280805.705 2
 90 10 24 14 25 15.0000000  0  5 02 12 06 13 09
  24262896.875     4838745.153 4   3687194.713 1
  21582555.313   -17193928.541 7 -13091434.915 2
  23087013.305     4692522.147 6  10832144.199 1
  21190665.547     3572283.226 7   2761886.809 1
  20769875.063     1673915.196 7   1298920.107 2
 90 10 24 14 25 30.0000000  0  5 02 12 06 13 09
  24270836.547     4880476.986 4   3719712.873 1
  21577457.891   -17220717.401 7 -13112309.378 2
  23097717.945     4748772.648 6  10875975.665 1
  21195796.133     3599233.254 7   2782886.782 1
  20774317.742     1697278.517 7   1317125.246 2
 90 10 24 14 25 45.0000000  0  5 02 12 06 13 09
  24278786.453     4922245.113 4   3752259.308 1
  21572381.453   -17247394.566 7 -13133096.815 2
  23108432.312     4805085.280 6  10919855.542 1
  21200931.922     3626226.480 7   2803920.409 1
  20778794.016     1720786.352 7   1335442.996 2
 90 10 24 14 26  0.0000000  0  5 02 12 06 13 09
  24286744.414     4964090.236 4   3784865.760 1
  21567334.219   -17273918.910 7 -13153765.166 2
  23119169.844     4861500.517 6  10963815.370 1
  21206082.227     3653303.416 7   2825019.269 2
  20783304.711     1744479.414 7   1353905.082 2
 90 10 24 14 26 15.0000000  0  5 02 12 06 13 09
  24294729.219     5006029.271 4   3817545.379 1
  21562319.383   -17300273.066 7 -13174300.906 2
  23129926.898     4918035.132 6  11007868.209 1
  21211252.891     3680480.756 7   2846196.362 1
  20787851.563     1768374.536 7   1372524.616 2
 90 10 24 14 26 30.0000000  0  5 02 12 06 13 09
  24302723.891     5048029.716 4   3850272.844 1
  21557330.695   -17326489.062 7 -13194728.981 2
  23140701.664     4974656.288 6  11051988.501 1
  21216437.742     3707725.716 7   2867426.150 1
  20792429.625     1792439.485 7   1391276.481 2
 90 10 24 14 26 45.0000000  0  5 02 12 06 13 09
  24310729.383     5090093.772 4   3883049.871 1
  21552369.492   -17352564.324 7 -13215047.403 2
  23151493.367     5031365.946 5  11096177.745 1
  21221636.711     3735040.607 7   2888710.429 2
  20797041.875     1816675.852 7   1410161.924 2
 90 10 24 14 27  0.0000000  0  5 02 12 06 13 09
  24318752.367     5132250.331 4   3915898.989 1
  21547438.477   -17378469.606 7 -13235233.369 2
  23162308.156     5088192.753 5  11140458.273 1
  21226853.031     3762454.194 7   2910071.610 2
  20801692.781     1841112.885 7   1429203.724 2
 90 10 24 14 27 15.0000000  0  5 02 12 06 13 09
  24326782.820     5174448.966 4   3948780.887 1
  21542532.734   -17404254.856 7 -13255325.800 2
  23173133.492     5145085.995 5  11184790.564 1
  21232079.266     3789915.623 7   2931470.071 2
  20806372.461     1865700.150 7   1448362.590 2
 90 10 24 14 27 30.0000000  0  5 02 12 06 13 09
  24334824.508     5216706.439 4   3981708.629 1
  21537652.172   -17429903.075 7 -13275311.458 2
  23183975.797     5202062.031 5  11229187.383 1
  21237319.648     3817441.465 7   2952918.726 2
  20811080.266     1890453.694 7   1467651.020 2
 90 10 24 14 27 45.0000000  0  5 02 12 06 13 09
  24342875.688     5259033.020 3   4014690.226 1
  21532799.250   -17455403.727 7 -13295182.124 2
  23194833.484     5259130.778 5  11273656.444 1
  21242573.836     3845041.830 7   2974425.448 1
  20815821.695     1915384.191 7   1487077.340 2
 90 10 24 14 28  0.0000000  0  5 02 12 06 13 09
  24350945.297     5301430.451 4   4047727.006 1
  21527975.008   -17480754.547 7 -13314936.044 2
  23205714.523     5316293.848 5  11318198.980 1
  21247836.844     3872718.258 7   2995991.444 1
  20820603.805     1940493.063 7   1506642.652 2
 90 10 24 14 28 15.0000000  0  5 02 12 06 13 09
  24359015.250     5343873.132 3   4080799.086 1
  21523173.867   -17505980.982 7 -13334593.035 2
  23216602.594     5373525.199 5  11362794.736 1
  21253115.148     3900444.795 7   3017596.482 2
  20825410.297     1965754.737 7   1526327.031 2
 90 10 24 14 28 30.0000000  0  5 02 12 06 13 09
  24367113.141     5386395.170 3   4113932.970 1
  21518404.359   -17531048.429 7 -13354126.143 2
  23227515.844     5430858.652 5  11407470.042 1
  21258404.305     3928255.477 7   3039267.086 1
  20830252.125     1991203.260 7   1546157.007 2
 90 10 24 14 28 45.0000000  0  5 02 12 06 13 09
  24375214.609     5428961.587 3   4147101.422 1
  21513657.398   -17555991.267 7 -13373562.153 2
  23238437.891     5488259.084 5  11452197.552 1
  21263706.938     3956115.177 7   3060975.887 2
  20835123.914     2016803.482 7   1566105.188 2
 90 10 24 14 29  0.0000000  0  5 02 12 06 13 09
  24383309.547     5471546.492 3   4180284.282 1
  21508930.227   -17580835.059 7 -13392920.979 2
  23249367.383     5545700.389 5  11496956.908 1
  21269012.797     3983997.663 7   3082702.450 2
  20840020.555     2042529.354 7   1586151.278 2
 90 10 24 14 29 15.0000000  0  5 02 12 06 13 09
  24391433.461     5514194.593 4   4213516.420 1
  21504230.992   -17605534.964 7 -13412167.693 2
  23260315.242     5603226.692 5  11541782.497 1
  21274336.047     4011947.327 7   3104481.351 2
  20844943.914     2068425.595 7   1606330.125 2
 90 10 24 14 29 30.0000000  0  5 02 12 06 13 09
  24399556.578     5556893.827 4   4246788.437 1
  21499554.523   -17630102.863 7 -13431311.539 2
  23271275.633     5660825.534 5  11586664.596 1
  21279661.781     4039952.017 7   3126303.136 1
  20849905.992     2094479.863 7   1626632.108 2
 90 10 24 14 29 45.0000000  0  5 02 12 06 13 09
  24407690.609     5599633.909 4   4280092.215 1
  21494902.961   -17654548.510 7 -13450360.126 2
  23282248.938     5718486.595 5  11631595.182 1
  21284998.195     4068001.105 7   3148159.512 2
  20854893.906     2120681.548 7   1647048.959 2
 90 10 24 14 30  0.0000000  0  5 02 12 06 13 09
  24415833.383     5642425.225 4   4313435.984 1
  21490276.484   -17678861.136 7 -13469305.061 2
  23293237.180     5776219.938 5  11676582.087 1
  21290344.922     4096104.724 7   3170058.383 2
  20859909.703     2147041.452 7   1667589.102 2
 90 10 24 14 30 15.0000000  0  5 02 12 06 13 09
  24423983.617     5685247.839 5   4346804.077 1
  21485671.516   -17703060.215 7 -13488161.518 2
  23304229.602     5834005.415 5  11721609.624 1
  21295701.078     4124242.962 7   3191984.218 2
  20864950.484     2173539.355 7   1688236.775 2
 90 10 24 14 30 30.0000000  0  5 02 12 06 13 09
  24432144.414     5728123.384 5   4380213.454 1
  21481091.211   -17727123.864 7 -13506912.443 2
  23315241.680     5891864.309 5  11766694.364 1
  21301066.445     4152437.306 7   3213953.780 1
  20870024.344     2200196.652 7   1709008.651 2
 90 10 24 14 30 45.0000000  0  5 02 12 06 13 09
  24440306.148     5771017.469 5   4413637.275 1
  21476532.047   -17751086.067 7 -13525584.318 2
  23326257.297     5949761.973 5  11811809.317 1
  21306434.617     4180653.157 7   3235940.104 2
  20875122.305     2226979.104 7   1729878.051 2
 90 10 24 14 31  0.0000000  0  5 02 12 06 13 09
  24448487.687     5814017.816 5   4447143.863 1
  21472009.578   -17774858.734 7 -13544108.503 2
  23337300.672     6007785.717 5  11857022.511 1
  21311825.266     4208978.087 7   3258011.414 2
  20880259.477     2253974.129 7   1750913.087 2
 90 10 24 14 31 15.0000000  0  5 02 12 06 13 09
  24456683.945     5857095.135 5   4480710.404 1
  21467515.602   -17798470.817 7 -13562507.559 2
  23348359.156     6065906.026 5  11902310.951 1
  21317233.594     4237382.587 7   3280144.736 1
  20885428.359     2281152.330 7   1772090.865 2
 90 10 24 14 31 30.0000000  0  5 02 12 06 13 09
  24464893.797     5900242.879 5   4514331.914 1
  21463052.008   -17821928.653 7 -13580786.416 2
  23359438.930     6124115.978 5  11947669.234 1
  21322651.234     4265859.840 7   3302334.751 2
  20890630.430     2308506.838 7   1793406.024 2
 90 10 24 14 31 45.0000000  0  5 02 12 06 13 09
  24473109.336     5943407.175 5   4547966.258 1
  21458606.164   -17845285.558 7 -13598986.634 2
  23370520.586     6182361.627 5  11993055.355 1
  21328070.445     4294355.733 7   3324539.284 2
  20895864.109     2335984.103 7   1814816.834 2
 90 10 24 14 32  0.0000000  0  5 02 12 06 13 09
  24481324.055     5986582.262 5   4581609.043 1
  21454180.172   -17868547.078 7 -13617112.519 2
  23381609.477     6240636.780 5  12038464.446 1
  21333500.258     4322864.338 7   3346753.730 1
  20901113.430     2363578.153 7   1836318.647 2
 90 10 24 14 32 15.0000000  0  5 02 12 06 13 09
  24489554.227     6029817.754 5   4615298.900 1
  21449782.211   -17891663.136 7 -13635125.060 2
  23392715.047     6298990.792 5  12083934.993 1
  21338934.570     4351435.245 7   3369016.720 2
  20906395.133     2391338.249 7   1857949.844 2
 90 10 24 14 32 30.0000000  0  5 02 12 06 13 09
  24497792.336     6073106.101 5   4649029.406 1
  21445409.711   -17914641.142 7 -13653030.527 2
  23403834.563     6357415.575 5  12129460.189 1
  21344384.813     4380060.410 7   3391321.487 2
  20911708.633     2419256.812 7   1879704.021 2
 90 10 24 14 32 45.0000000  0  5 02 12 06 13 09
  24506027.773     6116396.257 5   4682761.844 1
  21441053.203   -17937531.641 7 -13670867.307 2
  23414954.273     6415860.058 5  12175001.235 1
  21349829.195     4408688.591 7   3413629.102 2
  20917045.031     2447282.612 7   1901542.263 2
 90 10 24 14 33  0.0000000  0  5 02 12 06 13 09
  24514270.094     6159693.896 5   4716500.101 1
  21436715.016   -17960328.675 7 -13688631.257 2
  23426083.422     6474329.520 5  12220561.745 1
  21355280.453     4437325.409 7   3435943.454 2
  20922393.359     2475421.318 7   1923468.481 2
 90 10 24 14 33 15.0000000  0  5 02 12 06 13 09
  24522523.141     6203064.275 5   4750295.034 1
  21432407.117   -17982966.607 7 -13706271.230 2
  23437225.508     6532888.991 5  12266192.382 1
  21360744.742     4466036.047 7   3458315.322 2
  20927783.727     2503738.161 7   1945533.512 2
 90 10 24 14 33 30.0000000  0  5 02 12 06 13 09
  24530777.063     6246433.960 4   4784089.441 1
  21428116.227   -18005518.555 7 -13723844.206 2
  23448372.820     6591464.652 5  12311835.635 1
  21366204.406     4494746.973 7   3480687.413 1
  20933195.117     2532159.283 7   1967679.793 2
 90 10 24 14 33 45.0000000  0  5 02 12 06 13 09
  24539020.125     6289765.594 4   4817854.203 1
  21423833.711   -18028021.485 7 -13741378.982 2
  23459515.539     6650019.027 5  12357462.310 1
  21371661.773     4523420.576 7   3503030.425 2
  20938616.453     2560647.394 7   1989878.280 2
 90 10 24 14 34  0.0000000  0  5 02 12 06 13 09
  24547263.016     6333075.034 4   4851601.655 1
  21419563.625   -18050459.291 7 -13758863.016 2
  23470655.883     6708567.534 5  12403084.398 1
  21377113.109     4552072.267 7
  20944053.789     2589218.409 7
 90 10 24 14 34 15.0000000  0  5 02 12 06 13 09
  24555519.594     6376442.837 4   4885394.583 1
  21415322.219   -18072750.916 7 -13776233.141 2
  23481814.406     6767190.507 5  12448764.519 1
  21382575.977     4580782.654 7
  20949521.508     2617952.337 7
 90 10 24 14 34 30.0000000  0  5 02 12 06 13 09
  24563777.211     6419861.392 4   4919227.073 1
  21411106.766   -18094903.747 7 -13793495.116 2
  23492979.469     6825879.950 5  12494496.449 1
  21388052.398     4609543.785 7   3570139.245 1
  20955018.906     2646841.572 7   2057042.428 2
 90 10 24 14 34 45.0000000  0  5 02 12 06 13 09
  24572045.555     6463327.526 4   4953096.618 1
  21406917.094   -18116920.440 7 -13810651.007 2
  23504160.156     6884632.463 5  12540277.500 1
  21393534.648     4638352.375 7   3592587.437 2
  20960544.789     2675883.086 7   2079672.138 2
 90 10 24 14 35  0.0000000  0  5 02 12 06 13 09
  24580342.156     6506906.039 4   4987053.714 1
  21402764.922   -18138735.895 7 -13827650.092 2
  23515366.359     6943512.737 5  12586158.115 1
  21399039.555     4667273.036 7   3615122.958 2
  20966108.469     2705141.327 7   2102470.718 2
 90 10 24 14 35 15.0000000  0  5 02 12 06 13 09
  24588655.570          -0.55514
  21398653.539   -18160347.391 7 -13844490.247 2
  23526594.836          -0.23815
  21404560.945     4696308.112 7   3637747.628 2
  20971718.461     2734618.631 7   2125440.001 2
 90 10 24 14 35 30.0000000  0  5 02 12 06 13 09
  24596955.219       43608.402 3
  21394542.094   -18181953.925 7 -13861326.537 2
  23537810.141       58939.904 5
  21410070.469     4725257.972 7   3660305.901 2
  20977336.242     2764115.594 7   2148424.598 2
 90 10 24 14 35 45.0000000  0  5 02 12 06 13 09
  24605285.297       87367.916 3        -0.10811
  21390477.086   -18203319.965 7 -13877975.426 2
  23549057.953      118044.936 5        -0.16411
  21415610.953     4754357.506 7   3682980.797 2
  20982992.063     2793866.935 7   2171607.415 2
